[[[{"header":{"parameterUnit":"kt","parameterCategory":2,"dx":1,"dy":1,"la1":29.587661999999998,"la2":31.0,"lo1":-88.76705300000003,"lo2":-86.6583820000003,"nx":115,"ny":88,"refTime":"2022-09-23T06:00:00:Z","depth":0,"parameterNumber":1,"parameterNumberName":"U-component_of_WINDS"},"data":[-5.3948,-5.3628,-5.4508,-5.4586,-5.4251,-5.3639,-5.3002,-5.2305,-5.1528,-5.063,-5.0184,-5.0556,-5.1179,-5.1238,-5.2821,-5.3002,-5.2242,-5.2742,-5.2163,-5.134,-5.1901,-5.126,-5.0695,-5.029,-4.9476,-4.8098,-4.6536,-4.5394,-4.4904,-4.4904,-4.4904,-4.4904,-4.4904,-4.4904,-4.4904,-4.4904,-4.4942,-4.4999,-4.5056,-4.5075,-4.5075,-4.5037,-4.4904,-4.4904,-4.4904,-4.4904,-4.4904,-4.4904,-4.4904,-4.4904,-4.4999,-4.5056,-4.4866,-4.4695,-4.4505,-4.4382,-4.4174,-4.4132,-4.3997,-4.404,-4.3854,-4.3488,-4.3387,-4.3426,-4.3164,-4.2881,-4.304,-4.3184,-4.3164,-4.2732,-4.2571,-4.2032,-4.1821,-4.2018,-4.1879,-4.1342,-4.0496,-3.9426,-3.8517,-3.8483,-3.874,-3.8519,-3.7937,-3.7399,-3.6572,-3.6363,-3.586,-3.5777,-3.5695,-3.5451,-3.5338,-3.555,-3.5844,-3.6523,-3.6703,-3.538,-3.4638,-3.3824,-3.2552,-3.0137,-2.8023,-2.6171,-2.5051,-2.5097,-2.52,-2.5703,-2.5775,-2.6174,-2.6362,-2.6721,-2.7218,-2.7195,-2.6367,-2.5666,-2.5031,-5.6425,-5.6143,-5.6187,-5.6258,-5.6153,-5.5712,-5.5464,-5.5216,-5.4838,-5.3778,-5.2699,-5.3935,-5.4674,-5.4752,-5.511,-5.4931,-5.4775,-5.4519,-5.4775,-5.4362,-5.4362,-5.3397,-5.2742,-5.2424,-5.1281,-4.9802,-4.8346,-4.6954,-4.5629,-4.5544,-4.5629,-4.497,-4.4904,-4.497,-4.4904,-4.497,-4.4885,-4.4885,-4.4904,-4.4904,-4.497,-4.4904,-4.4989,-4.4989,-4.4904,-4.4904,-4.4904,-4.4904,-4.4904,-4.4904,-4.4904,-4.4904,-4.4819,-4.4819,-4.4734,-4.4734,-4.4545,-4.4393,-4.4308,-4.4241,-4.388,-4.3622,-4.3537,-4.3352,-4.3147,-4.3043,-4.3216,-4.3357,-4.3425,-4.3365,-4.3365,-4.3114,-4.2961,-4.2843,-4.2522,-4.2112,-4.0996,-3.9818,-3.9248,-3.8802,-3.9025,-3.9292,-3.8892,-3.8554,-3.8218,-3.8174,-3.7954,-3.7857,-3.7642,-3.724,-3.695,-3.721,-3.7543,-3.7406,-3.7402,-3.6746,-3.6223,-3.5374,-3.4408,-3.1597,-2.9058,-2.7294,-2.6006,-2.5453,-2.5372,-2.5983,-2.6154,-2.6418,-2.6212,-2.635,-2.6427,-2.6151,-2.542,-2.495,-2.4396,-5.7485,-5.7282,-5.6982,-5.6754,-5.6549,-5.6396,-5.6296,-5.6219,-5.5836,-5.545,-5.5141,-5.5628,-5.6013,-5.6013,-5.5782,-5.5605,-5.5527,-5.5574,-5.5497,-5.542,-5.5009,-5.4775,-5.462,-5.4206,-5.298,-5.2003,-5.0798,-4.9579,-4.8306,-4.7747,-4.7684,-4.7995,-4.783,-4.7498,-4.6452,-4.6387,-4.6051,-4.5055,-4.4885,-4.5564,-4.6536,-4.6303,-4.6051,-4.5074,-4.4904,-4.4904,-4.4904,-4.4904,-4.4904,-4.4904,-4.4904,-4.4904,-4.4904,-4.4904,-4.4904,-4.4904,-4.4904,-4.4819,-4.4734,-4.4564,-4.4393,-4.4137,-4.3965,-4.3708,-4.3469,-4.3641,-4.3794,-4.3537,-4.3708,-4.3708,-4.369,-4.3708,-4.3537,-4.3255,-4.295,-4.2913,-4.2215,-4.0946,-3.9907,-3.964,-3.9979,-4.0139,-3.9622,-3.9203,-3.9061,-3.8954,-3.8616,-3.8316,-3.8819,-3.8813,-3.8701,-3.881,-3.8912,-3.8876,-3.8521,-3.8102,-3.7507,-3.7009,-3.6514,-3.3934,-3.1472,-2.9153,-2.7553,-2.7893,-2.7959,-2.7515,-2.7115,-2.7471,-2.7312,-2.6531,-2.5839,-2.5118,-2.4731,-2.4251,-2.3738,-5.7666,-5.7886,-5.7485,-5.7158,-5.6878,-5.6778,-5.6678,-5.6678,-5.6372,-5.6349,-5.6625,-5.6549,-5.6573,-5.6473,-5.6243,-5.6143,-5.6066,-5.5782,-5.5574,-5.5551,-5.542,-5.5187,-5.5265,-5.5032,-5.4597,-5.3712,-5.2843,-5.1763,-5.0593,-5.0026,-5.0026,-5.0026,-4.9781,-4.921,-4.8264,-4.8181,-4.7767,-4.6934,-4.6851,-4.7435,-4.8078,-4.8016,-4.7455,-4.6219,-4.5564,-4.5648,-4.4904,-4.4904,-4.4904,-4.4904,-4.4904,-4.4904,-4.4904,-4.4904,-4.4904,-4.4904,-4.4904,-4.4904,-4.4819,-4.4819,-4.4734,-4.4478,-4.4393,-4.4155,-4.407,-4.4308,-4.4308,-4.4051,-4.3947,-4.3947,-4.3947,-4.3947,-4.3843,-4.3554,-4.3284,-4.3554,-4.3769,-4.2281,-4.0733,-4.0829,-4.1119,-4.0834,-4.0264,-3.9925,-3.9701,-3.9488,-3.9239,-3.9185,-3.9765,-4.0235,-4.0128,-4.0235,-4.0324,-4.0003,-3.9708,-3.9219,-3.8395,-3.7884,-3.7358,-3.5907,-3.412,-3.1951,-3.0042,-3.0393,-3.0166,-2.9318,-2.8817,-2.8675,-2.7772,-2.6829,-2.596,-2.4376,-2.3769,-2.3819,-2.322,-5.6884,-5.7813,-5.791,-5.7713,-5.7735,-5.7285,-5.7109,-5.7109,-5.7034,-5.7034,-5.7058,-5.6754,-5.6649,-5.6802,-5.6625,-5.6525,-5.6372,-5.6143,-5.5913,-5.5913,-5.5705,-5.5574,-5.5497,-5.542,-5.5164,-5.4698,-5.3971,-5.316,-5.2242,-5.1661,-5.1018,-5.0209,-5.0512,-5.0431,-5.0128,-4.9965,-5.0047,-4.9639,-4.9781,-4.9618,-5.0026,-4.9802,-4.9149,-4.7601,-4.7038,-4.6555,-4.5394,-4.4904,-4.4904,-4.4904,-4.4904,-4.4904,-4.4904,-4.4904,-4.4904,-4.4904,-4.4904,-4.4904,-4.4904,-4.4904,-4.48,-4.4819,-4.4819,-4.4564,-4.4478,-4.4564,-4.4649,-4.4545,-4.446,-4.4374,-4.4374,-4.4374,-4.4308,-4.4091,-4.3998,-4.4177,-4.411,-4.3173,-4.1847,-4.1244,-4.148,-4.1565,-4.0995,-4.0513,-4.0252,-4.0567,-4.046,-4.0181,-4.0644,-4.1355,-4.1498,-4.164,-4.1302,-4.0822,-4.0573,-4.0092,-3.9256,-3.8509,-3.7915,-3.674,-3.5363,-3.3963,-3.2618,-3.1996,-3.1532,-3.089,-3.0393,-2.925,-2.8382,-2.7454,-2.6064,-2.3985,-2.3191,-2.3455,-2.3429,-5.5543,-5.5982,-5.6617,-5.6885,-5.6933,-5.7443,-5.7636,-5.7636,-5.7611,-5.7636,-5.7636,-5.7433,-5.7357,-5.7357,-5.7082,-5.6906,-5.6906,-5.6525,-5.6296,-5.6296,-5.6243,-5.5936,-5.5859,-5.5782,-5.5628,-5.5319,-5.4698,-5.4206,-5.4261,-5.3532,-5.3217,-5.3138,-5.3375,-5.2799,-5.2061,-5.1923,-5.2322,-5.2799,-5.3059,-5.2662,-5.2185,-5.1763,-4.9905,-4.8181,-4.7601,-4.6536,-4.514,-4.4885,-4.4904,-4.4904,-4.4904,-4.4904,-4.4904,-4.4904,-4.4904,-4.4904,-4.4904,-4.4904,-4.4904,-4.4904,-4.4904,-4.4904,-4.4904,-4.48,-4.4819,-4.4819,-4.4819,-4.4904,-4.4904,-4.4904,-4.4904,-4.4904,-4.4819,-4.4649,-4.4734,-4.4734,-4.4309,-4.3783,-4.2944,-4.2054,-4.185,-4.1939,-4.1725,-4.1262,-4.103,-4.1244,-4.1347,-4.1119,-4.1512,-4.1924,-4.2067,-4.2156,-4.1818,-4.1533,-4.132,-4.1013,-4.0075,-3.9274,-3.8624,-3.7575,-3.6506,-3.533,-3.4546,-3.3775,-3.2983,-3.3062,-3.3126,-3.1392,-2.9459,-2.8502,-2.735,-2.6243,-2.571,-2.5208,-2.5269,-5.4442,-5.4738,-5.5715,-5.6153,-5.6324,-5.7447,-5.7886,-5.7886,-5.7886,-5.7886,-5.7886,-5.7886,-5.7835,-5.7886,-5.756,-5.7385,-5.7233,-5.6982,-5.6754,-5.6625,-5.6549,-5.6396,-5.6243,-5.6143,-5.5913,-5.5705,-5.5474,-5.5319,-5.5366,-5.5265,-5.5187,-5.5583,-5.5348,-5.467,-5.4085,-5.369,-5.4339,-5.4853,-5.4931,-5.4362,-5.3814,-5.3555,-5.1945,-5.0393,-4.966,-4.8098,-4.6619,-4.5882,-4.531,-4.514,-4.4904,-4.4904,-4.4904,-4.4904,-4.4904,-4.4904,-4.4904,-4.4904,-4.4904,-4.4904,-4.4904,-4.4904,-4.4904,-4.4904,-4.4904,-4.4904,-4.4904,-4.4904,-4.4904,-4.4904,-4.4904,-4.4904,-4.4904,-4.4819,-4.4819,-4.4819,-4.4696,-4.4206,-4.3628,-4.2906,-4.2649,-4.2721,-4.2703,-4.2202,-4.187,-4.209,-4.2129,-4.1954,-4.2028,-4.2135,-4.2156,-4.2156,-4.196,-4.1889,-4.1729,-4.1494,-4.0763,-3.995,-3.9061,-3.8059,-3.7192,-3.6584,-3.6334,-3.5693,-3.4658,-3.4736,-3.5084,-3.3505,-3.1163,-3.0061,-2.9094,-2.8764,-2.8411,-2.7969,-2.7829,-5.4061,-5.4738,-5.5715,-5.6178,-5.6422,-5.7497,-5.791,-5.791,-5.791,-5.7886,-5.7886,-5.7886,-5.7886,-5.7886,-5.7886,-5.7811,-5.7735,-5.7385,-5.7282,-5.7178,-5.7218,-5.7037,-5.6936,-5.6931,-5.6914,-5.6397,-5.6297,-5.6543,-5.5661,-5.6168,-5.6121,-5.602,-5.6684,-5.6191,-5.584,-5.5529,-5.5692,-5.5598,-5.5652,-5.5396,-5.5164,-5.5086,-5.3869,-5.264,-5.1763,-5.0371,-4.8676,-4.7351,-4.6516,-4.5798,-4.5055,-4.4989,-4.4904,-4.4904,-4.4904,-4.4904,-4.4904,-4.4904,-4.4904,-4.4904,-4.4904,-4.4904,-4.4904,-4.4904,-4.4904,-4.4904,-4.4904,-4.4904,-4.4904,-4.4904,-4.4904,-4.4904,-4.4904,-4.4904,-4.4904,-4.4885,-4.48,-4.4545,-4.4051,-4.3708,-4.3346,-4.326,-4.3224,-4.3224,-4.2815,-4.2825,-4.2635,-4.2531,-4.2395,-4.2416,-4.2156,-4.2156,-4.2156,-4.2156,-4.1924,-4.1569,-4.0928,-4.0407,-3.9452,-3.8901,-3.7908,-3.7215,-3.7061,-3.6705,-3.6125,-3.5621,-3.5362,-3.4267,-3.2637,-3.1743,-3.079,-3.0444,-3.0858,-3.0492,-3.0313,-5.332,-5.4061,-5.5142,-5.5736,-5.6348,-5.772,-5.8336,-5.8261,-5.8061,-5.7886,-5.7961,-5.7961,-5.7961,-5.7961,-5.7886,-5.7886,-5.7886,-5.776,-5.7781,-5.8604,-5.8551,-5.8634,-5.8888,-5.9147,-5.8551,-5.8601,-5.8522,-5.8427,-5.7991,-5.8213,-5.8213,-5.807,-5.7999,-5.7612,-5.7477,-5.7199,-5.7009,-5.6261,-5.6113,-5.609,-5.6113,-5.5936,-5.5296,-5.416,-5.3431,-5.2618,-5.0512,-4.9025,-4.8037,-4.7415,-4.6536,-4.5668,-4.5498,-4.5329,-4.5244,-4.4989,-4.4904,-4.4904,-4.497,-4.497,-4.514,-4.5055,-4.4904,-4.4904,-4.4904,-4.497,-4.4989,-4.4989,-4.4904,-4.4904,-4.4904,-4.4904,-4.4904,-4.4904,-4.4904,-4.4904,-4.4885,-4.48,-4.446,-4.3965,-4.3622,-4.3622,-4.3518,-4.3622,-4.3604,-4.3365,-4.3193,-4.2934,-4.2761,-4.252,-4.2156,-4.2173,-4.226,-4.226,-4.2082,-4.1815,-4.1351,-4.0727,-4.0217,-3.9808,-3.8892,-3.7837,-3.7664,-3.7515,-3.6747,-3.6104,-3.5704,-3.5083,-3.3791,-3.2858,-3.2325,-3.2701,-3.3221,-3.3362,-3.3484,-5.504,-5.5922,-5.6446,-5.7458,-5.8727,-5.9728,-6.0179,-6.0131,-5.9912,-5.9693,-5.9498,-5.8784,-5.866,-5.8461,-5.8312,-5.7886,-5.8008,-5.8106,-5.8642,-5.9444,-5.9809,-6.0237,-6.04,-6.0394,-6.0356,-6.0133,-5.9972,-5.9828,-5.994,-5.9516,-5.9836,-6.0132,-5.9373,-5.9061,-5.9098,-5.8587,-5.7802,-5.684,-5.6573,-5.6573,-5.6573,-5.6496,-5.6066,-5.504,-5.4939,-5.4059,-5.2357,-5.1457,-5.0469,-4.9597,-4.9046,-4.785,-4.7038,-4.6851,-4.6387,-4.5583,-4.5159,-4.5159,-4.5244,-4.5928,-4.5947,-4.5564,-4.5414,-4.5498,-4.5394,-4.5394,-4.5244,-4.5244,-4.5244,-4.5074,-4.4904,-4.4904,-4.4904,-4.4904,-4.4904,-4.4904,-4.4885,-4.4885,-4.48,-4.4308,-4.4222,-4.4222,-4.4222,-4.4308,-4.4118,-4.3861,-4.3794,-4.3555,-4.3193,-4.2761,-4.2502,-4.252,-4.2448,-4.2484,-4.2502,-4.2445,-4.205,-4.0757,-4.021,-4.0068,-3.9505,-3.8475,-3.821,-3.7884,-3.7226,-3.6494,-3.6077,-3.5565,-3.4612,-3.431,-3.4337,-3.4559,-3.45,-3.4736,-3.505,-5.923,-6.0223,-5.9858,-6.1074,-6.3084,-6.3356,-6.3175,-6.2897,-6.2897,-6.2688,-6.2152,-6.0871,-6.0273,-6.0008,-5.9277,-5.8858,-5.8982,-5.9248,-5.9585,-5.9802,-6.0316,-6.0839,-6.1083,-6.1101,-6.1039,-6.0629,-6.0638,-6.063,-6.0164,-6.0686,-6.0716,-6.0812,-6.0542,-6.0269,-6.0705,-5.9594,-5.8166,-5.6869,-5.6725,-5.6725,-5.6802,-5.6802,-5.6778,-5.6372,-5.6396,-5.5812,-5.4527,-5.37,-5.2811,-5.1857,-5.1238,-5.0188,-4.9107,-4.8861,-4.8243,-4.689,-4.6323,-4.6005,-4.5967,-4.7686,-4.7254,-4.6088,-4.5695,-4.585,-4.6135,-4.6174,-4.6005,-4.5668,-4.5583,-4.5329,-4.5159,-4.4904,-4.4904,-4.4904,-4.4904,-4.4904,-4.4904,-4.4885,-4.4885,-4.4649,-4.4734,-4.4904,-4.4904,-4.4819,-4.4545,-4.4393,-4.4326,-4.407,-4.3708,-4.3365,-4.3193,-4.3052,-4.2888,-4.2748,-4.2554,-4.2735,-4.2166,-4.0715,-3.9818,-3.9604,-3.9096,-3.8661,-3.8395,-3.8201,-3.762,-3.707,-3.6514,-3.6056,-3.5788,-3.5598,-3.5832,-3.5676,-3.5615,-3.5458,-3.5207,-6.0954,-6.1713,-6.1651,-6.3174,-6.5367,-6.4316,-6.3796,-6.3728,-6.3563,-6.3287,-6.3175,-6.2731,-6.2381,-6.2197,-6.1586,-6.1256,-6.0907,-6.049,-6.0527,-6.0526,-6.0631,-6.0839,-6.1424,-6.1668,-6.1644,-6.2856,-6.2555,-6.1792,-6.1558,-6.2585,-6.1994,-6.1436,-6.1517,-6.1129,-6.0961,-5.9853,-5.8754,-5.7775,-5.7533,-5.7533,-5.7509,-5.7509,-5.7409,-5.7409,-5.7433,-5.693,-5.6449,-5.5481,-5.4683,-5.4036,-5.3149,-5.2119,-5.1457,-5.0975,-5.0674,-4.9781,-4.8964,-4.8635,-4.892,-4.8932,-4.7143,-4.6389,-4.5937,-4.5941,-4.6063,-4.6258,-4.6245,-4.6012,-4.5817,-4.5583,-4.5518,-4.5074,-4.4989,-4.4904,-4.4904,-4.4904,-4.4904,-4.4904,-4.4904,-4.4904,-4.4904,-4.4904,-4.4904,-4.4819,-4.4715,-4.4649,-4.4582,-4.4308,-4.3928,-4.3787,-4.3635,-4.3524,-4.3303,-4.2912,-4.2541,-4.2172,-4.1612,-4.0253,-3.9632,-3.9266,-3.8972,-3.8794,-3.8572,-3.8342,-3.8007,-3.7568,-3.7088,-3.661,-3.6601,-3.6722,-3.6394,-3.6083,-3.5927,-3.5693,-3.5442,-6.4052,-6.4838,-6.3824,-6.4736,-6.6758,-6.5611,-6.5153,-6.5143,-6.5417,-6.5478,-6.5344,-6.4575,-6.4234,-6.3961,-6.359,-6.3009,-6.2854,-6.1977,-6.1881,-6.1581,-6.1303,-6.1444,-6.1229,-6.1546,-6.17,-6.2425,-6.2352,-6.201,-6.2213,-6.2734,-6.1986,-6.1138,-6.1174,-6.1107,-6.0668,-5.9741,-5.8834,-5.8127,-5.791,-5.791,-5.7886,-5.7886,-5.7886,-5.7886,-5.7886,-5.7886,-5.7735,-5.6778,-5.6549,-5.6066,-5.5326,-5.4372,-5.3543,-5.3386,-5.2754,-5.1719,-5.0733,-5.0572,-5.1006,-4.9574,-4.8355,-4.7336,-4.6569,-4.6092,-4.6257,-4.5957,-4.5993,-4.628,-4.6049,-4.5714,-4.5701,-4.5414,-4.5121,-4.497,-4.4904,-4.4904,-4.4904,-4.4904,-4.4904,-4.4904,-4.4904,-4.497,-4.497,-4.497,-4.497,-4.4904,-4.4734,-4.446,-4.4328,-4.4065,-4.4083,-4.399,-4.3616,-4.327,-4.2861,-4.1994,-4.0997,-4.0235,-3.9498,-3.9186,-3.8794,-3.8652,-3.8527,-3.843,-3.8227,-3.783,-3.7426,-3.7112,-3.7025,-3.7092,-3.6919,-3.6532,-3.6239,-3.6005,-3.5771,-6.7619,-6.8579,-6.6075,-6.5755,-6.6801,-6.6924,-6.683,-6.6552,-6.7834,-6.7929,-6.7185,-6.6529,-6.5777,-6.564,-6.4873,-6.4139,-6.3919,-6.4379,-6.3684,-6.3139,-6.2898,-6.2442,-6.2078,-6.174,-6.1502,-6.2051,-6.1538,-6.1464,-6.1528,-6.2724,-6.1054,-5.8822,-6.0627,-6.0292,-5.9619,-5.9204,-5.8618,-5.813,-5.7886,-5.7886,-5.7886,-5.7886,-5.7886,-5.7886,-5.7886,-5.7886,-5.7886,-5.7735,-5.7584,-5.7584,-5.7182,-5.6601,-5.5588,-5.5246,-5.4444,-5.3324,-5.2219,-5.194,-5.1905,-5.0983,-5.0547,-5.0463,-4.9284,-4.7127,-4.7154,-4.6063,-4.6232,-4.7385,-4.6575,-4.6143,-4.6177,-4.5863,-4.5831,-4.5701,-4.5564,-4.5394,-4.5055,-4.514,-4.5479,-4.5055,-4.5055,-4.5225,-4.531,-4.5733,-4.5817,-4.497,-4.4734,-4.4734,-4.4564,-4.4197,-4.43,-4.3941,-4.3647,-4.3198,-4.2831,-4.1906,-4.0481,-3.9553,-3.8959,-3.8632,-3.8438,-3.8438,-3.8296,-3.8242,-3.8082,-3.7905,-3.7691,-3.743,-3.7264,-3.7442,-3.7424,-3.7134,-3.6842,-3.6454,-3.6144,-6.5787,-6.6019,-6.5379,-6.5263,-6.5554,-6.5583,-6.5583,-6.5612,-6.6019,-6.6075,-6.6038,-6.6511,-6.721,-6.7743,-6.7162,-6.6537,-6.6894,-6.5906,-6.5176,-6.4448,-6.3749,-6.318,-6.2686,-6.2483,-6.2871,-6.4877,-6.2418,-6.1735,-6.2188,-6.2638,-6.2077,-5.9722,-6.0579,-6.01,-5.8924,-5.8374,-5.835,-5.7886,-5.7886,-5.7886,-5.7886,-5.7886,-5.7886,-5.7886,-5.7886,-5.7886,-5.7886,-5.7886,-5.7886,-5.7886,-5.7886,-5.7687,-5.7016,-5.6308,-5.5475,-5.4816,-5.3175,-5.2822,-5.2872,-5.2118,-5.0947,-5.0284,-4.9119,-4.8241,-4.8322,-4.755,-4.7399,-4.9437,-4.7829,-4.7496,-4.8059,-4.8301,-4.7468,-4.6657,-4.6516,-4.5798,-4.5564,-4.6536,-4.7018,-4.6368,-4.5798,-4.5798,-4.6368,-4.6639,-4.6219,-4.531,-4.4904,-4.4904,-4.4601,-4.4222,-4.3862,-4.318,-4.2687,-4.2058,-4.1494,-4.0691,-3.9725,-3.8823,-3.8227,-3.79,-3.7893,-3.7929,-3.8018,-3.7911,-3.7715,-3.7626,-3.7662,-3.7573,-3.7501,-3.7501,-3.7501,-3.7442,-3.7288,-3.6997,-3.661,-6.4421,-6.5179,-6.413,-6.3896,-6.4245,-6.4274,-6.4274,-6.4391,-6.4856,-6.5118,-6.5263,-6.5992,-6.6572,-6.6914,-6.7114,-6.699,-6.6712,-6.5627,-6.4926,-6.3871,-6.2977,-6.2337,-6.2422,-6.2252,-6.2396,-6.3253,-6.2885,-6.2329,-6.2011,-6.2146,-6.1994,-6.0336,-6.0192,-5.9645,-5.9279,-5.8361,-5.8036,-5.7961,-5.7886,-5.7886,-5.7886,-5.7886,-5.7886,-5.7886,-5.7886,-5.7886,-5.7886,-5.7886,-5.7886,-5.7886,-5.7886,-5.7715,-5.7129,-5.6641,-5.5885,-5.5568,-5.3927,-5.3663,-5.4258,-5.3231,-5.2444,-5.1593,-5.0413,-4.9342,-4.8932,-4.812,-4.8022,-5.0295,-4.8485,-4.8028,-4.8774,-4.9516,-4.8649,-4.8463,-4.8837,-4.806,-4.7498,-4.8326,-4.8326,-4.7435,-4.6787,-4.7601,-4.8243,-4.845,-4.8327,-4.7105,-4.6309,-4.5753,-4.5089,-4.4525,-4.3732,-4.2942,-4.2309,-4.16,-4.1063,-4.0584,-4.011,-3.9313,-3.8724,-3.8111,-3.7827,-3.7578,-3.7626,-3.759,-3.7614,-3.7614,-3.7519,-3.7501,-3.7501,-3.7501,-3.7501,-3.7424,-3.7442,-3.7134,-3.6997,-6.3382,-6.4918,-6.2777,-6.2316,-6.3022,-6.3052,-6.3023,-6.3169,-6.4042,-6.4652,-6.4332,-6.4769,-6.4885,-6.5118,-6.5147,-6.5234,-6.5143,-6.4866,-6.4343,-6.3572,-6.2833,-6.2036,-6.083,-6.1352,-6.2373,-6.2684,-6.2959,-6.2809,-6.2717,-6.1281,-6.0657,-6.0911,-6.0238,-5.9358,-6.0055,-5.9249,-5.8287,-5.8336,-5.8136,-5.7986,-5.7961,-5.791,-5.791,-5.7886,-5.7886,-5.7886,-5.7886,-5.7886,-5.7886,-5.7886,-5.7886,-5.7422,-5.6568,-5.6275,-5.5568,-5.4982,-5.4687,-5.4711,-5.4616,-5.4014,-5.3457,-5.2621,-5.1493,-5.0485,-4.981,-4.8694,-4.8628,-4.977,-4.8928,-4.8776,-4.9567,-5.0273,-5.0168,-5.0098,-5.0148,-4.9983,-4.9225,-4.9543,-4.9534,-4.8902,-4.9397,-4.9967,-4.9437,-4.9886,-5.0218,-4.8798,-4.7545,-4.6501,-4.5694,-4.5004,-4.4295,-4.4177,-4.3659,-4.2865,-4.2237,-4.1862,-4.1211,-4.0204,-3.9505,-3.8745,-3.8574,-3.8345,-3.8039,-3.7809,-3.775,-3.7827,-3.775,-3.7673,-3.7596,-3.7519,-3.7501,-3.7501,-3.7501,-3.7442,-3.7383,-6.2682,-6.2878,-6.2292,-6.2233,-6.2329,-6.2194,-6.2111,-6.2082,-6.2121,-6.2209,-6.2152,-6.3111,-6.3605,-6.3838,-6.4478,-6.503,-6.5118,-6.4913,-6.4558,-6.4052,-6.375,-6.3743,-6.34,-6.3679,-6.3425,-6.3147,-6.2951,-6.2798,-6.3177,-6.2937,-6.2442,-6.1936,-6.2508,-6.235,-6.1192,-6.0498,-6.0681,-6.0131,-5.9302,-5.8486,-5.8312,-5.8111,-5.7886,-5.7886,-5.7886,-5.7986,-5.8061,-5.8036,-5.7961,-5.7961,-5.7937,-5.7764,-5.7447,-5.6715,-5.5908,-5.5262,-5.5087,-5.4899,-5.466,-5.4177,-5.3884,-5.342,-5.2074,-5.1404,-5.0863,-5.0669,-5.0703,-5.1586,-5.0557,-4.9574,-5.082,-5.1799,-5.1094,-5.0309,-5.0978,-5.1771,-5.0848,-5.0853,-5.1036,-5.1293,-5.2103,-5.1474,-4.9838,-4.9914,-5.0706,-4.9617,-4.8665,-4.7677,-4.6792,-4.6017,-4.6126,-4.5809,-4.4636,-4.3796,-4.3348,-4.2887,-4.2348,-4.1623,-4.0953,-4.0353,-3.9921,-3.9259,-3.8955,-3.8726,-3.8669,-3.8726,-3.8152,-3.8016,-3.7845,-3.7673,-3.7578,-3.7501,-3.7501,-3.7442,-3.7442,-6.2628,-6.2386,-6.2386,-6.2331,-6.2196,-6.2031,-6.2005,-6.2005,-6.181,-6.1643,-6.1736,-6.2117,-6.241,-6.2471,-6.3082,-6.3198,-6.314,-6.3198,-6.3256,-6.3227,-6.3111,-6.2966,-6.2704,-6.3455,-6.3687,-6.3394,-6.2374,-6.2088,-6.2879,-6.2907,-6.2431,-6.2188,-6.1794,-6.1853,-6.1574,-6.1485,-6.1301,-6.1381,-6.1113,-6.0923,-6.0923,-6.0011,-5.9105,-5.8734,-5.8536,-5.8486,-5.8461,-5.8461,-5.8486,-5.8411,-5.8237,-5.8041,-5.7771,-5.7499,-5.7425,-5.6957,-5.6834,-5.6664,-5.6153,-5.5787,-5.4933,-5.4494,-5.364,-5.2927,-5.2341,-5.1828,-5.162,-5.1826,-5.0737,-5.0727,-5.1683,-5.2316,-5.211,-5.1444,-5.2381,-5.2474,-5.1761,-5.2903,-5.292,-5.2707,-5.2952,-5.2288,-5.0485,-5.0436,-5.1112,-5.0719,-4.9882,-4.8962,-4.8076,-4.8225,-4.8725,-4.732,-4.4833,-4.4308,-4.411,-4.3964,-4.3631,-4.3277,-4.2817,-4.2397,-4.1806,-4.0728,-4.0222,-4.0297,-4.0091,-4.0222,-3.9713,-3.9049,-3.8381,-3.7845,-3.7827,-3.7732,-3.7655,-3.7501,-3.7501,-6.2839,-6.2682,-6.2653,-6.252,-6.2331,-6.2306,-6.2306,-6.2222,-6.2196,-6.2086,-6.1895,-6.1868,-6.1816,-6.1563,-6.1393,-6.1422,-6.1713,-6.1687,-6.1542,-6.1542,-6.1571,-6.1515,-6.1718,-6.2357,-6.2734,-6.2501,-6.1922,-6.1316,-6.1371,-6.1026,-6.1665,-6.1951,-6.1373,-6.1334,-6.1871,-6.1841,-6.1917,-6.2431,-6.2387,-6.27,-6.2678,-6.1967,-6.0877,-5.967,-5.9571,-5.9376,-5.9154,-5.9031,-5.9105,-5.9031,-5.8734,-5.8238,-5.7861,-5.8058,-5.8161,-5.7917,-5.7695,-5.7424,-5.7132,-5.7082,-5.6495,-5.5884,-5.4638,-5.3688,-5.281,-5.2219,-5.1926,-5.1712,-5.1492,-5.1443,-5.1535,-5.2424,-5.2839,-5.2936,-5.3266,-5.3399,-5.2418,-5.2659,-5.3088,-5.2803,-5.3231,-5.3202,-5.2256,-5.1755,-5.1867,-5.1255,-5.0718,-5.0163,-4.9815,-5.0308,-5.0479,-4.8087,-4.5531,-4.5345,-4.5201,-4.5323,-4.5466,-4.528,-4.4922,-4.449,-4.3766,-4.2544,-4.2269,-4.2984,-4.3058,-4.2269,-4.1251,-4.0448,-3.9921,-3.977,-3.8936,-3.8115,-3.7962,-3.7885,-3.7809,-6.2922,-6.2922,-6.2922,-6.2922,-6.2815,-6.2742,-6.2717,-6.2579,-6.2276,-6.2509,-6.2141,-6.2141,-6.2204,-6.1976,-6.1839,-6.1728,-6.1617,-6.1476,-6.1252,-6.1223,-6.1223,-6.1223,-6.1281,-6.1484,-6.1687,-6.1542,-6.1339,-6.1252,-6.1223,-6.1224,-6.1313,-6.1488,-6.1953,-6.2295,-6.2695,-6.2814,-6.2986,-6.3584,-6.3088,-6.301,-6.3609,-6.3333,-6.2372,-6.1249,-6.0871,-6.0349,-5.967,-5.9253,-5.9105,-5.9105,-5.9006,-5.8726,-5.8184,-5.7604,-5.6924,-5.7539,-5.7132,-5.6967,-5.6686,-5.5628,-5.4643,-5.4126,-5.3579,-5.2879,-5.2341,-5.2335,-5.2164,-5.1846,-5.1552,-5.1552,-5.1583,-5.2365,-5.2488,-5.2219,-5.2732,-5.3131,-5.2757,-5.2146,-5.2181,-5.2083,-5.24,-5.2453,-5.2227,-5.231,-5.213,-5.1946,-5.1805,-5.1641,-5.1853,-5.1948,-5.1004,-4.9135,-4.793,-4.7422,-4.7422,-4.7469,-4.7701,-4.7469,-4.7026,-4.6652,-4.6156,-4.523,-4.4799,-4.5538,-4.5302,-4.4346,-4.3329,-4.2323,-4.188,-4.1954,-4.1137,-3.9826,-3.8918,-3.8327,-3.7885,-6.5065,-6.5763,-6.5845,-6.5845,-6.5793,-6.572,-6.5333,-6.4719,-6.4505,-6.4102,-6.3559,-6.3478,-6.2952,-6.2226,-6.2116,-6.2005,-6.1921,-6.1699,-6.142,-6.1252,-6.1223,-6.1223,-6.1223,-6.1223,-6.1223,-6.1252,-6.1223,-6.1223,-6.1223,-6.1223,-6.1223,-6.1339,-6.1775,-6.221,-6.2126,-6.2729,-6.3378,-6.3706,-6.3634,-6.3913,-6.446,-6.4344,-6.3739,-6.3256,-6.2309,-6.1567,-6.0805,-6.0131,-5.9743,-5.9612,-5.9253,-5.8615,-5.7711,-5.7122,-5.6698,-5.6794,-5.6508,-5.6378,-5.6075,-5.5265,-5.462,-5.47,-5.4012,-5.3401,-5.3154,-5.2709,-5.2494,-5.19,-5.1686,-5.1644,-5.1535,-5.2097,-5.2048,-5.1681,-5.1974,-5.2219,-5.2102,-5.1828,-5.1486,-5.1486,-5.1486,-5.1376,-5.1358,-5.1753,-5.1723,-5.1755,-5.1618,-5.1573,-5.1976,-5.1536,-5.0873,-5.0339,-4.9596,-4.9226,-4.9202,-4.9202,-4.9202,-4.8766,-4.8258,-4.7958,-4.7749,-4.7469,-4.7118,-4.6978,-4.6744,-4.5943,-4.5352,-4.4201,-4.3402,-4.3329,-4.2744,-4.1435,-4.0334,-3.9373,-3.8708,-6.7721,-6.8748,-6.8779,-6.883,-6.8716,-6.883,-6.793,-6.6445,-6.6445,-6.5614,-6.481,-6.4587,-6.3911,-6.283,-6.2864,-6.2542,-6.2281,-6.1976,-6.1754,-6.1447,-6.142,-6.1364,-6.1364,-6.1364,-6.1308,-6.1223,-6.1223,-6.1223,-6.1223,-6.1223,-6.1223,-6.1223,-6.1368,-6.1252,-6.1426,-6.2241,-6.2821,-6.3286,-6.4069,-6.4618,-6.4809,-6.4909,-6.4841,-6.4638,-6.3657,-6.2843,-6.2326,-6.1117,-6.0259,-5.9796,-5.9008,-5.7823,-5.6746,-5.6194,-5.5964,-5.5841,-5.5773,-5.5603,-5.5359,-5.5065,-5.5015,-5.4741,-5.4199,-5.3975,-5.3683,-5.3111,-5.2613,-5.2018,-5.1885,-5.1924,-5.1968,-5.1877,-5.1828,-5.1608,-5.1559,-5.1583,-5.1601,-5.1552,-5.1486,-5.1486,-5.1486,-5.1486,-5.1486,-5.1541,-5.1516,-5.151,-5.1425,-5.1358,-5.1095,-5.0761,-5.0349,-5.0055,-4.95,-4.9226,-4.9202,-4.9202,-4.9202,-4.8927,-4.8835,-4.8697,-4.8766,-4.8559,-4.8281,-4.8119,-4.798,-4.7749,-4.7236,-4.6227,-4.5637,-4.4922,-4.4346,-4.2964,-4.1658,-4.0503,-3.9619,-7.0225,-7.0351,-7.0351,-7.0351,-7.0454,-7.032,-6.9291,-6.7121,-6.7121,-6.6379,-6.5517,-6.5066,-6.5236,-6.4631,-6.4575,-6.3762,-6.2698,-6.2542,-6.2289,-6.2178,-6.1895,-6.1754,-6.1784,-6.1754,-6.1561,-6.1308,-6.1223,-6.1223,-6.1223,-6.1223,-6.1223,-6.1223,-6.1223,-6.1223,-6.1339,-6.1426,-6.2094,-6.285,-6.3227,-6.3809,-6.4447,-6.4792,-6.4783,-6.4803,-6.4342,-6.3871,-6.2599,-6.1367,-6.0232,-5.9123,-5.7903,-5.6946,-5.5644,-5.4405,-5.4375,-5.4783,-5.4562,-5.4369,-5.4515,-5.3995,-5.3442,-5.3643,-5.3903,-5.3701,-5.317,-5.3369,-5.3161,-5.2134,-5.1952,-5.2255,-5.2575,-5.2781,-5.2409,-5.1815,-5.1577,-5.1644,-5.1752,-5.1619,-5.1486,-5.1486,-5.1486,-5.1486,-5.1486,-5.1486,-5.1486,-5.1486,-5.1486,-5.1309,-5.0998,-5.0771,-5.0477,-4.991,-4.95,-4.9202,-4.9202,-4.9202,-4.9202,-4.9202,-4.9202,-4.9202,-4.9202,-4.9202,-4.9202,-4.9133,-4.8697,-4.8489,-4.8466,-4.8535,-4.8328,-4.7469,-4.5801,-4.4439,-4.2984,-4.1529,-3.9789,-7.311,-7.3808,-7.3661,-7.3612,-7.3612,-7.3612,-7.263,-7.1177,-7.096,-7.0338,-6.9489,-6.9274,-6.8494,-6.7228,-6.7033,-6.6315,-6.5138,-6.4089,-6.3596,-6.3392,-6.258,-6.2259,-6.2226,-6.2086,-6.1895,-6.1617,-6.1532,-6.1476,-6.1279,-6.1223,-6.1223,-6.1223,-6.1223,-6.1223,-6.1223,-6.1252,-6.1571,-6.192,-6.2065,-6.2297,-6.2879,-6.3605,-6.3896,-6.4068,-6.4725,-6.4314,-6.2843,-6.1542,-6.0364,-5.9286,-5.8622,-5.7775,-5.66,-5.5961,-5.5485,-5.4944,-5.4789,-5.43,-5.4034,-5.357,-5.3266,-5.3367,-5.3529,-5.3423,-5.3257,-5.3358,-5.3543,-5.2662,-5.2612,-5.2639,-5.2794,-5.2734,-5.2487,-5.2141,-5.2241,-5.2217,-5.1861,-5.171,-5.1486,-5.1486,-5.1486,-5.1486,-5.1486,-5.1486,-5.1486,-5.1486,-5.1486,-5.1309,-5.1041,-5.1041,-5.0815,-5.0046,-4.9477,-4.9271,-4.9202,-4.9202,-4.9202,-4.9202,-4.9202,-4.9202,-4.9202,-4.9202,-4.9202,-4.9202,-4.9202,-4.9133,-4.8996,-4.8996,-4.8904,-4.8328,-4.7259,-4.568,-4.3714,-4.2048,-4.0072,-7.5942,-7.6822,-7.6618,-7.6441,-7.6441,-7.6394,-7.5468,-7.4153,-7.402,-7.3114,-7.2563,-7.252,-7.1275,-6.9861,-6.9419,-6.8631,-6.7276,-6.5908,-6.5182,-6.5004,-6.3889,-6.3618,-6.3669,-6.3181,-6.2524,-6.195,-6.1895,-6.1784,-6.1532,-6.1476,-6.1449,-6.1364,-6.1308,-6.1223,-6.1223,-6.1223,-6.1223,-6.1223,-6.1252,-6.131,-6.1484,-6.2269,-6.2617,-6.2763,-6.3896,-6.3769,-6.2552,-6.1827,-6.096,-5.9909,-5.9508,-5.8692,-5.7373,-5.6798,-5.6148,-5.538,-5.5012,-5.4376,-5.3681,-5.3461,-5.3461,-5.3461,-5.3472,-5.3461,-5.3461,-5.3461,-5.3331,-5.3136,-5.3071,-5.29,-5.2596,-5.2514,-5.2489,-5.253,-5.2768,-5.2743,-5.2217,-5.1752,-5.1486,-5.1486,-5.1486,-5.1486,-5.1486,-5.1486,-5.1486,-5.1486,-5.1486,-5.1352,-5.1242,-5.1218,-5.1017,-5.0182,-4.9545,-4.9339,-4.9202,-4.9202,-4.9202,-4.9202,-4.9202,-4.9202,-4.9202,-4.9202,-4.9202,-4.9202,-4.9202,-4.9202,-4.9202,-4.9202,-4.8605,-4.8235,-4.6956,-4.5445,-4.3714,-4.1941,-3.9956,-7.8465,-7.8564,-7.8277,-7.8082,-7.8034,-7.7889,-7.6498,-7.4612,-7.4415,-7.3908,-7.2963,-7.3027,-7.2658,-7.2138,-7.1436,-7.0306,-6.876,-6.766,-6.7066,-6.7239,-6.6969,-6.6875,-6.672,-6.5506,-6.4073,-6.2682,-6.2335,-6.2196,-6.2031,-6.1895,-6.1784,-6.1728,-6.1449,-6.1252,-6.1279,-6.1223,-6.1223,-6.1223,-6.1223,-6.1223,-6.1252,-6.1426,-6.1426,-6.1513,-6.2588,-6.2734,-6.1866,-6.2184,-6.2156,-6.1172,-5.9942,-5.8955,-5.756,-5.6183,-5.5962,-5.5614,-5.4248,-5.3888,-5.3566,-5.3526,-5.3526,-5.363,-5.3566,-5.3461,-5.3461,-5.3461,-5.3371,-5.3136,-5.3136,-5.2965,-5.2637,-5.2571,-5.2596,-5.2571,-5.3005,-5.3071,-5.2505,-5.191,-5.1552,-5.1486,-5.1486,-5.1486,-5.1486,-5.1486,-5.1486,-5.1486,-5.1486,-5.1486,-5.1419,-5.1285,-5.1084,-5.0453,-4.9705,-4.95,-4.9363,-4.9363,-4.9271,-4.9271,-4.9271,-4.9271,-4.9202,-4.9202,-4.9202,-4.9202,-4.9202,-4.9202,-4.9202,-4.9133,-4.8835,-4.7637,-4.6174,-4.4735,-4.3112,-4.1314,-3.9483,-7.8934,-7.8967,-7.8697,-7.8554,-7.8554,-7.8473,-7.7838,-7.694,-7.6858,-7.6447,-7.6015,-7.5914,-7.5558,-7.4854,-7.4412,-7.3507,-7.2215,-7.025,-7.0261,-7.1429,-7.0921,-7.048,-7.024,-6.8979,-6.7143,-6.5075,-6.3871,-6.303,-6.2222,-6.2086,-6.2086,-6.206,-6.1728,-6.1617,-6.1561,-6.1364,-6.1223,-6.1223,-6.1223,-6.1223,-6.1223,-6.1223,-6.1223,-6.1281,-6.1687,-6.1658,-6.1368,-6.1658,-6.1687,-6.1226,-6.0799,-6.0286,-5.9826,-5.9217,-5.8333,-5.7015,-5.6094,-5.5499,-5.4695,-5.4017,-5.3759,-5.4376,-5.3953,-5.3526,-5.3461,-5.3461,-5.3436,-5.3331,-5.3331,-5.3266,-5.3136,-5.3071,-5.3071,-5.3045,-5.3306,-5.3306,-5.3071,-5.215,-5.1619,-5.1752,-5.1752,-5.171,-5.1552,-5.1486,-5.1486,-5.1486,-5.1486,-5.1486,-5.1486,-5.1486,-5.1242,-5.0771,-5.0138,-4.9774,-4.9637,-4.95,-4.9477,-4.9408,-4.9339,-4.9271,-4.9202,-4.9202,-4.9202,-4.9202,-4.8992,-4.8968,-4.8735,-4.8783,-4.8302,-4.6677,-4.512,-4.355,-4.194,-4.0284,-3.9024,-7.9248,-7.9202,-7.8967,-7.8839,-7.8839,-7.8759,-7.8616,-7.8458,-7.8491,-7.8362,-7.8216,-7.8119,-7.7644,-7.6877,-7.6365,-7.5727,-7.4886,-7.3503,-7.3417,-7.4471,-7.3646,-7.3022,-7.2792,-7.1732,-7.0128,-6.8228,-6.638,-6.4765,-6.3645,-6.3343,-6.3053,-6.2844,-6.2574,-6.2306,-6.195,-6.1699,-6.1532,-6.1532,-6.1532,-6.1476,-6.142,-6.1449,-6.1364,-6.1252,-6.1223,-6.1223,-6.1223,-6.1223,-6.1223,-6.1252,-6.1223,-6.1223,-6.111,-6.0855,-5.9769,-5.8159,-5.7592,-5.6893,-5.5997,-5.5212,-5.5212,-5.5588,-5.4796,-5.412,-5.4081,-5.3759,-5.3461,-5.3461,-5.3461,-5.3461,-5.3461,-5.3461,-5.3461,-5.3461,-5.3461,-5.3461,-5.3331,-5.2587,-5.2084,-5.2084,-5.1927,-5.1861,-5.1686,-5.1486,-5.1486,-5.1486,-5.1486,-5.1486,-5.1486,-5.1486,-5.1376,-5.0998,-5.0612,-5.0182,-5.0002,-4.9934,-4.9774,-4.9637,-4.9408,-4.9271,-4.9202,-4.9202,-4.9202,-4.9109,-4.8805,-4.8571,-4.8291,-4.7902,-4.7108,-4.5798,-4.4466,-4.2688,-4.0761,-3.9374,-3.8189,-7.9492,-7.948,-7.9248,-7.9108,-7.9108,-7.892,-7.8745,-7.8745,-7.8745,-7.8697,-7.8568,-7.8458,-7.8265,-7.8022,-7.6978,-7.6313,-7.6281,-7.6223,-7.6223,-7.6177,-7.5122,-7.4598,-7.4535,-7.3375,-7.2626,-7.2057,-6.9681,-6.7671,-6.5987,-6.5677,-6.5031,-6.4203,-6.3734,-6.3107,-6.2196,-6.2141,-6.2141,-6.2141,-6.2086,-6.2005,-6.1839,-6.1728,-6.1561,-6.1223,-6.1223,-6.1223,-6.1223,-6.1223,-6.1223,-6.1223,-6.1223,-6.1223,-6.1054,-6.0257,-5.9364,-5.9042,-5.8099,-5.7499,-5.7318,-5.7197,-5.6927,-5.7109,-5.6121,-5.54,-5.5212,-5.444,-5.3824,-5.3759,-5.363,-5.3526,-5.3526,-5.3461,-5.3461,-5.3461,-5.3461,-5.3461,-5.3396,-5.3201,-5.2875,-5.2505,-5.215,-5.1952,-5.1794,-5.1686,-5.151,-5.1486,-5.1486,-5.1486,-5.1486,-5.1486,-5.1376,-5.1065,-5.0839,-5.0612,-5.0477,-5.0298,-5.007,-4.9774,-4.9545,-4.9339,-4.9271,-4.9202,-4.9202,-4.9155,-4.8852,-4.8524,-4.8291,-4.785,-4.6809,-4.4743,-4.3919,-4.2452,-4.0249,-3.8147,-3.7155,-7.9492,-7.9526,-7.94,-7.9387,-7.9387,-7.9261,-7.9155,-7.9014,-7.9014,-7.8887,-7.8745,-7.8649,-7.8602,-7.8473,-7.8135,-7.7907,-7.7874,-7.7972,-7.8005,-7.7858,-7.7363,-7.7079,-7.6982,-7.6491,-7.5708,-7.4602,-7.3086,-7.0704,-6.8009,-6.7577,-6.6475,-6.4542,-6.4151,-6.3501,-6.2574,-6.2276,-6.2226,-6.2141,-6.2005,-6.1895,-6.1813,-6.1532,-6.1364,-6.1252,-6.1223,-6.1223,-6.1223,-6.1223,-6.1223,-6.1223,-6.1223,-6.1223,-6.1223,-6.0828,-6.0229,-5.9364,-5.8868,-5.8633,-5.8574,-5.7833,-5.774,-5.8456,-5.7499,-5.671,-5.671,-5.6341,-5.565,-5.4986,-5.4758,-5.4312,-5.3759,-5.3526,-5.3461,-5.3461,-5.3461,-5.3461,-5.3461,-5.3461,-5.3266,-5.3071,-5.2612,-5.2217,-5.1952,-5.1686,-5.1552,-5.1486,-5.1486,-5.1486,-5.1486,-5.1486,-5.1443,-5.1401,-5.1242,-5.1108,-5.0796,-5.066,-5.0501,-5.007,-4.9774,-4.9477,-4.9339,-4.9202,-4.9202,-4.9155,-4.8945,-4.8618,-4.8291,-4.794,-4.6087,-4.3407,-4.2835,-4.2529,-3.9701,-3.7309,-3.6703,-7.7916,-7.7837,-7.7916,-7.7916,-7.7949,-7.8486,-7.8584,-7.8479,-7.9014,-7.9155,-7.9028,-7.8887,-7.8839,-7.8853,-7.8368,-7.8401,-7.8853,-7.8873,-7.8792,-7.8697,-7.8491,-7.8346,-7.8298,-7.8038,-7.7413,-7.6527,-7.537,-7.3222,-7.0574,-7.0332,-6.9251,-6.7503,-6.6619,-6.5475,-6.4189,-6.343,-6.2815,-6.252,-6.2331,-6.2141,-6.195,-6.1699,-6.1558,-6.1587,-6.1587,-6.1587,-6.1587,-6.1587,-6.1532,-6.142,-6.1532,-6.1476,-6.1279,-6.1364,-6.0997,-6.0143,-5.9999,-5.9999,-5.9884,-5.9189,-5.9159,-5.9826,-5.8779,-5.8039,-5.7892,-5.7197,-5.628,-5.5463,-5.5049,-5.5049,-5.4643,-5.4833,-5.4859,-5.477,-5.4478,-5.435,-5.4605,-5.3992,-5.3461,-5.3396,-5.3071,-5.2637,-5.2217,-5.1819,-5.1619,-5.1486,-5.1486,-5.1486,-5.1486,-5.1486,-5.1486,-5.1486,-5.1486,-5.1401,-5.1022,-5.093,-5.0728,-5.0298,-4.9934,-4.9613,-4.9339,-4.9202,-4.9202,-4.9155,-4.8618,-4.8337,-4.8571,-4.8127,-4.6715,-4.4424,-4.4025,-4.2991,-3.9396,-3.9285,-3.7904,-7.5065,-7.5132,-7.5065,-7.5223,-7.5156,-7.653,-7.7066,-7.7167,-7.8541,-7.9224,-7.8998,-7.8881,-7.8841,-7.8687,-7.7501,-7.7735,-7.8754,-7.8674,-7.8548,-7.8327,-7.8108,-7.813,-7.8148,-7.7873,-7.7644,-7.7069,-7.5888,-7.4691,-7.351,-7.3477,-7.3101,-7.1815,-7.0479,-6.888,-6.67,-6.5248,-6.4108,-6.319,-6.2922,-6.2682,-6.2306,-6.2306,-6.2276,-6.2196,-6.2196,-6.2141,-6.2196,-6.2226,-6.206,-6.1839,-6.1976,-6.1865,-6.1364,-6.1532,-6.1561,-6.1252,-6.1195,-6.1166,-6.1166,-6.1054,-6.1054,-6.0997,-6.0028,-5.9392,-5.9247,-5.7587,-5.6307,-5.5677,-5.4885,-5.4959,-5.6648,-5.6866,-5.6988,-5.6988,-5.6059,-5.5997,-5.7015,-5.4896,-5.363,-5.3461,-5.3396,-5.3071,-5.2571,-5.2175,-5.1819,-5.1619,-5.1486,-5.1486,-5.1486,-5.1486,-5.1486,-5.1486,-5.1486,-5.1352,-5.1065,-5.093,-5.0569,-5.0206,-5.0002,-4.9613,-4.9339,-4.9202,-4.9202,-4.9062,-4.8618,-4.8478,-4.8641,-4.806,-4.6967,-4.6073,-4.5651,-4.4156,-4.1282,-4.1151,-3.9526,-7.5418,-7.5418,-7.5118,-7.5021,-7.5055,-7.5457,-7.5625,-7.5692,-7.6027,-7.6228,-7.6228,-7.6184,-7.6173,-7.6073,-7.5826,-7.5792,-7.6106,-7.6173,-7.6095,-7.6006,-7.5815,-7.5588,-7.5372,-7.5108,-7.4955,-7.4767,-7.4471,-7.411,-7.3781,-7.3669,-7.2593,-7.1008,-7.1251,-7.0279,-6.7966,-6.669,-6.5493,-6.419,-6.316,-6.2598,-6.2628,-6.3213,-6.316,-6.2306,-6.2226,-6.2226,-6.2226,-6.2226,-6.2086,-6.1839,-6.1895,-6.1728,-6.1223,-6.1308,-6.1364,-6.1223,-6.1223,-6.1223,-6.1223,-6.1223,-6.1223,-6.1166,-6.0912,-6.0685,-6.0572,-6.0085,-5.9217,-5.8246,-5.7015,-5.6464,-5.7318,-5.7379,-5.7379,-5.7318,-5.6183,-5.5935,-5.7015,-5.5086,-5.3501,-5.3461,-5.3566,-5.3306,-5.294,-5.239,-5.1927,-5.1728,-5.1619,-5.1486,-5.1486,-5.1486,-5.1486,-5.1486,-5.1486,-5.1419,-5.1376,-5.1132,-5.093,-5.0501,-5.007,-4.9842,-5.0002,-4.9408,-4.9179,-4.9477,-4.9084,-4.8898,-4.8968,-4.8968,-4.827,-4.725,-4.5737,-4.3919,-4.2756,-4.0972,-3.9401,-7.4667,-7.405,-7.388,-7.3673,-7.3599,-7.3967,-7.4116,-7.4217,-7.4797,-7.5021,-7.4887,-7.3681,-7.3589,-7.4193,-7.4159,-7.4452,-7.4988,-7.5021,-7.5021,-7.5021,-7.4792,-7.4582,-7.4404,-7.4158,-7.3919,-7.3768,-7.3755,-7.3742,-7.3682,-7.3669,-7.2944,-7.1677,-7.1663,-7.0928,-6.9013,-6.7689,-6.6451,-6.514,-6.4378,-6.4026,-6.4129,-6.4665,-6.4563,-6.3869,-6.3795,-6.3637,-6.3213,-6.316,-6.2761,-6.2031,-6.2086,-6.1836,-6.1252,-6.1393,-6.1364,-6.1223,-6.1223,-6.1223,-6.1223,-6.1223,-6.1223,-6.1223,-6.1223,-6.1223,-6.1223,-6.0742,-6.04,-5.9999,-5.9364,-5.8955,-5.8955,-5.8955,-5.8983,-5.8779,-5.774,-5.7015,-5.7379,-5.5997,-5.4542,-5.3669,-5.435,-5.4833,-5.3992,-5.3346,-5.2628,-5.1819,-5.1619,-5.1486,-5.1486,-5.1486,-5.1486,-5.1486,-5.1486,-5.1419,-5.1334,-5.12,-5.0974,-5.0728,-5.0433,-5.0206,-5.0298,-4.9865,-4.9613,-4.9705,-4.9498,-4.9338,-4.9202,-4.9155,-4.9085,-4.8459,-4.6677,-4.5798,-4.4053,-4.2879,-4.1072,-7.3409,-7.2247,-7.2068,-7.1705,-7.1619,-7.2437,-7.2809,-7.2977,-7.4102,-7.4672,-7.4388,-7.1894,-7.1559,-7.2625,-7.2726,-7.3397,-7.4418,-7.4586,-7.4519,-7.4485,-7.4358,-7.427,-7.4093,-7.3949,-7.376,-7.3402,-7.3369,-7.32,-7.3071,-7.3169,-7.3288,-7.3321,-7.2334,-7.1234,-7.0086,-6.8611,-6.7325,-6.6258,-6.6323,-6.6274,-6.6226,-6.6226,-6.6209,-6.6112,-6.5965,-6.549,-6.4481,-6.4399,-6.3682,-6.244,-6.244,-6.2167,-6.142,-6.1561,-6.1587,-6.1252,-6.1223,-6.1223,-6.1223,-6.1223,-6.1223,-6.1223,-6.1223,-6.1223,-6.1166,-6.0257,-6.0057,-6.0941,-6.1166,-6.1054,-6.1223,-6.111,-6.0997,-6.0799,-5.9769,-5.8896,-5.798,-5.7439,-5.6315,-5.4017,-5.5374,-5.643,-5.4796,-5.4222,-5.345,-5.1819,-5.1552,-5.1486,-5.1486,-5.1486,-5.1486,-5.1486,-5.1486,-5.1376,-5.12,-5.1334,-5.1175,-5.0704,-5.0728,-5.0796,-5.0569,-5.0433,-5.0206,-4.9934,-4.9774,-4.95,-4.9271,-4.9202,-4.9179,-4.8877,-4.89,-4.8925,-4.8833,-4.6815,-4.3894,-7.4487,-7.4037,-7.2601,-7.1898,-7.1817,-7.2041,-7.2177,-7.2172,-7.2154,-7.233,-7.2546,-7.1934,-7.1675,-7.1696,-7.173,-7.1662,-7.1577,-7.1569,-7.1569,-7.1535,-7.1527,-7.1435,-7.1309,-7.1301,-7.1131,-7.0851,-7.0851,-7.0788,-7.0527,-7.0483,-7.1,-7.2018,-7.2795,-7.2538,-7.1175,-7.0047,-6.8742,-6.7463,-6.8076,-6.8122,-6.7306,-6.7259,-6.6929,-6.6112,-6.5309,-6.4756,-6.4532,-6.3734,-6.3053,-6.252,-6.2386,-6.2141,-6.1757,-6.1505,-6.1308,-6.1252,-6.1223,-6.1223,-6.1223,-6.1223,-6.1223,-6.1223,-6.1223,-6.1223,-6.1252,-6.1223,-6.1393,-6.1587,-6.1276,-6.1164,-6.1106,-6.1164,-6.1223,-6.1166,-6.0085,-5.9453,-5.9856,-5.7587,-5.59,-5.628,-5.5149,-5.4324,-5.3695,-5.3436,-5.3085,-5.2192,-5.1619,-5.1486,-5.1486,-5.1486,-5.1486,-5.1486,-5.1486,-5.1486,-5.1443,-5.1419,-5.1419,-5.1376,-5.1065,-5.0998,-5.0974,-5.0409,-5.0002,-5.007,-4.9774,-4.9339,-4.9202,-4.9202,-4.9202,-4.9133,-4.9065,-4.9065,-4.8927,-4.6872,-4.4008,-7.6465,-7.5626,-7.3916,-7.2937,-7.254,-7.254,-7.2316,-7.1902,-7.1894,-7.1974,-7.2163,-7.2012,-7.1783,-7.1623,-7.1623,-7.1472,-7.1201,-7.1002,-7.0915,-7.0915,-7.0645,-7.0556,-7.0466,-7.0473,-7.0341,-7.0174,-7.0174,-7.0048,-6.9794,-6.9794,-7.0106,-7.0812,-7.1428,-7.1372,-7.0526,-6.9934,-6.9238,-6.838,-6.8904,-6.862,-6.745,-6.7405,-6.6769,-6.5494,-6.4958,-6.4366,-6.3716,-6.3066,-6.23,-6.1492,-6.1047,-6.0633,-6.0182,-5.9889,-5.9701,-5.9563,-5.9563,-5.9534,-5.9563,-5.9563,-5.9563,-5.9701,-6.036,-6.0477,-5.9621,-5.9755,-5.9864,-5.9864,-5.9672,-5.9563,-5.9563,-5.9563,-5.9563,-5.9534,-5.8928,-5.8791,-5.915,-5.7499,-5.6617,-5.7133,-5.6587,-5.6055,-5.5793,-5.5722,-5.5185,-5.3295,-5.2799,-5.2258,-5.1644,-5.2496,-5.3125,-5.2537,-5.234,-5.2167,-5.1619,-5.1486,-5.1443,-5.1267,-5.1089,-5.1022,-5.0839,-5.0545,-5.007,-5.007,-4.9797,-4.9408,-4.9202,-4.9202,-4.9202,-4.9133,-4.8766,-4.8189,-4.7888,-4.632,-4.383,-7.7602,-7.6256,-7.4523,-7.344,-7.2906,-7.2941,-7.2621,-7.2129,-7.2019,-7.2027,-7.2025,-7.1756,-7.1708,-7.1749,-7.1795,-7.1821,-7.1787,-7.1427,-7.1303,-7.1342,-7.0881,-7.0685,-7.0767,-7.0685,-7.063,-7.0499,-7.0424,-7.0258,-7.009,-6.9982,-7.0015,-6.9964,-6.9751,-6.9537,-6.9331,-6.9244,-6.9244,-6.9244,-6.9244,-6.8619,-6.7402,-6.7369,-6.6628,-6.5181,-6.4906,-6.4202,-6.2866,-6.2418,-6.1546,-5.9988,-5.9372,-5.8688,-5.7834,-5.7617,-5.7331,-5.692,-5.681,-5.6875,-5.6997,-5.6997,-5.7276,-5.7871,-5.9101,-5.9071,-5.7328,-5.7422,-5.7603,-5.7603,-5.7667,-5.7579,-5.7579,-5.7667,-5.7672,-5.7614,-5.7556,-5.7521,-5.7411,-5.7181,-5.7009,-5.6731,-5.7726,-5.7811,-5.701,-5.6934,-5.5617,-5.3956,-5.265,-5.2788,-5.2048,-5.3261,-5.377,-5.3006,-5.2811,-5.2353,-5.1252,-5.1108,-5.0957,-5.0882,-5.0651,-5.0391,-5.0142,-4.994,-4.9642,-4.9392,-4.9068,-4.8957,-4.8709,-4.8781,-4.8594,-4.848,-4.7661,-4.6859,-4.6745,-4.5072,-4.3012,-7.4056,-7.3533,-7.0711,-7.0159,-7.1204,-7.1239,-7.1864,-7.2762,-7.071,0.0,0.0,-7.0268,-7.0679,-7.0962,-7.1318,-7.1427,-7.1388,-7.0921,-7.0955,-7.1309,-7.1229,-7.1354,-7.1667,-7.1388,-7.1189,-7.1149,-7.0753,-7.0432,-7.03,-7.0333,-7.0216,-6.9973,-6.9931,-6.9888,-6.9846,-6.959,-6.9537,-6.9537,-6.9537,-6.9286,-6.8882,-6.8806,-6.8083,-6.667,-6.5802,-6.4607,-6.2999,-6.1977,-6.0644,-5.905,-5.8376,-5.7384,-5.614,-5.5491,-5.471,-5.3628,-5.3291,-5.36,-5.4439,-5.4497,-5.5351,-5.7457,-5.786,-5.7191,-5.5135,-5.6729,-5.7887,-5.7858,-5.7655,-5.755,-5.7579,-5.755,-5.7579,-5.7579,-5.7579,-5.7201,-5.6538,-5.6156,-5.5577,-5.4422,-5.3938,-5.3051,-5.2792,-5.2095,-5.0435,-4.9766,-5.0637,-5.08,-5.1471,-5.0829,-5.0078,-5.0015,-5.0446,-5.0052,-4.9644,-4.9512,-4.9633,-5.0166,-4.962,-4.9165,-4.9075,-4.881,-4.8232,-4.7487,-4.7009,-4.6949,-4.6837,-4.693,-4.679,-4.6813,-4.6529,-4.6267,-4.5694,-4.2993,-3.9866,-7.3334,-7.3156,-7.0882,-7.0173,0.0,-7.0636,-7.0684,-7.0649,-6.939,-6.8791,-6.8828,-6.9161,-6.9405,-6.9608,-6.9779,-7.028,-7.0999,-7.0552,-7.1037,-7.2163,-7.1623,-7.1511,-7.183,-7.1241,-7.0955,-7.0955,-7.0685,-7.0556,-7.0473,-7.0473,-7.0391,-7.0308,-7.0183,-6.9808,-6.9034,-6.9557,-6.9794,-6.9794,-6.9794,-6.9269,-6.8363,-6.833,-6.7511,-6.5953,-6.5356,0.0,0.0,0.0,0.0,0.0,0.0,0.0,0.0,0.0,0.0,-5.1406,-4.8949,-4.7684,-4.816,-4.8175,-4.8952,-5.0915,-5.2292,-5.2222,-5.0451,-5.2468,-5.4079,-5.4722,-5.471,-5.4872,-5.5484,-5.5571,-5.5571,-5.56,-5.5571,-5.5425,-5.4997,-5.4743,-5.4681,-5.4737,-5.4243,-5.3923,-5.4226,-5.3744,-5.3001,-5.2008,-5.1628,-5.1421,-5.117,-5.058,-5.0764,-5.1838,-5.1371,-5.0128,-4.8875,-4.8347,-4.8434,-4.8353,-4.8074,-4.77,-4.7546,-4.7327,-4.7056,-4.6586,-4.638,-4.6275,-4.6275,-4.6275,-4.6275,-4.621,-4.5646,-4.4471,-4.1582,-3.8914,-3.6452,-7.2306,-7.209,-7.0583,-6.9867,-6.975,-6.9795,-6.9124,-6.7951,-6.7916,-6.7919,-6.7858,-6.8072,-6.8241,-6.8405,-6.8456,-6.9157,-7.0303,-6.9922,-7.0647,-7.207,-7.112,-7.0782,-7.098,-7.0322,-7.0061,-7.0249,-7.0201,-7.0295,-7.053,-7.053,-7.053,-7.0563,-7.0466,-6.9782,-6.8646,0.0,0.0,0.0,-6.9882,-6.9282,-6.7946,-6.7574,-6.6574,-6.4853,-6.4526,0.0,-6.1912,-6.1604,-6.036,-5.8009,-5.7304,0.0,0.0,0.0,0.0,0.0,0.0,0.0,0.0,0.0,0.0,0.0,-4.5496,-4.6535,-4.6052,-4.8134,-4.9894,-5.096,-5.1466,-5.2049,-5.2864,-5.2893,-5.3009,-5.3242,-5.3271,-5.3388,-5.3621,-5.365,-5.4115,-5.5542,-5.5171,-5.5169,-5.5721,-5.5845,-5.4879,-5.3204,-5.2669,-5.1642,-5.0596,-5.1058,-5.2159,-5.337,-5.1311,-4.9521,-4.7631,-4.7225,-4.6957,-4.6694,-4.6455,-4.6226,-4.6035,-4.5994,-4.5947,-4.5596,-4.569,-4.5643,-4.5643,-4.5526,-4.5198,-4.5299,-4.3901,-4.1489,-3.7239,-3.5372,-3.4337,-6.725,-6.711,-6.5571,-6.5649,-6.6831,-6.6953,-6.6686,-6.6233,-6.6233,-6.6019,-6.5766,-6.6658,-6.7516,-6.8262,-6.8499,-6.8728,-6.8877,-6.8472,-6.837,-6.8508,-6.8334,-6.8367,-6.8506,-6.808,-6.8324,-6.9163,-6.8884,-6.9289,-7.053,-7.053,-7.053,-7.053,-7.0522,-7.0422,-7.0187,-6.9142,-6.8606,-6.8606,-6.9475,-6.978,-6.9283,-6.7859,-6.6425,-6.4961,-6.368,-6.2254,-6.0603,-6.0348,-5.9462,-5.7692,-5.7012,-5.5797,-5.3923,-5.105,-4.7505,0.0,-3.9239,0.0,0.0,0.0,0.0,0.0,0.0,0.0,0.0,-4.699,-4.8484,-4.8659,-5.054,-5.1303,-5.0343,-5.0256,-5.0721,-5.1797,-5.1961,-5.2427,-5.3475,-5.3621,-5.3737,-5.3941,-5.2864,-5.1967,-5.1956,-4.988,-4.8475,-4.8549,-4.8888,-4.9387,-5.0042,-5.0097,-4.9446,-4.7554,-4.6229,-4.5939,-4.5696,-4.5354,-4.541,-4.6052,-4.5542,-4.4964,-4.4878,-4.4855,-4.4621,-4.3826,-4.3639,-4.3508,-4.3522,-4.2785,-4.2165,-4.1869,-4.0116,-3.7719,-3.5026,-3.4759,-3.4973,-6.6391,-6.632,-6.5637,-6.5221,-6.4987,-6.5279,-6.5298,-6.5162,-6.5442,-6.5477,-6.5331,-6.548,-6.5791,-6.6183,-6.6081,-6.6601,-6.7631,-6.7469,-6.7922,-6.8885,-6.8689,-6.8721,-6.8948,-6.8329,-6.8023,-6.8098,-6.7869,-6.7938,-6.8189,-6.815,-6.815,-6.8183,-6.8183,-6.8064,-6.786,-6.7249,-6.7206,-6.7757,-6.8984,-6.9323,-6.861,-6.7029,-6.5807,-6.4936,-6.4279,-6.3253,-6.1729,-6.1617,-6.0583,-5.8675,-5.8229,-5.6844,-5.4208,-5.0374,-4.6019,0.0,0.0,0.0,0.0,0.0,0.0,0.0,0.0,0.0,0.0,0.0,-4.5423,-4.6135,-4.9535,-5.0314,-4.6983,-4.854,-4.9413,-4.8569,-4.8453,-4.8947,-5.0285,-5.0901,-5.126,-5.126,-5.1192,-5.0876,-5.0137,-4.903,-4.8485,-4.8965,-4.7526,-4.6839,-4.7713,-4.7893,-4.7737,-4.7439,-4.5657,-4.4522,-4.5419,-4.4727,-4.4235,-4.4426,-4.4192,-4.3765,-4.3558,-4.3558,-4.3357,-4.2734,-4.2096,-4.1585,-4.0859,-3.9949,-3.8959,-3.8024,-3.6091,-3.4155,-3.3077,-3.3239,-3.3382,-6.6161,-6.5907,-6.471,-6.3936,-6.3452,-6.3735,-6.4297,-6.4988,-6.5415,-6.537,-6.5023,-6.491,-6.4249,-6.3254,-6.2568,-6.3241,-6.4911,-6.5333,-6.6589,-6.8445,-6.8204,-6.8104,-6.823,-6.7542,-6.7094,-6.6887,-6.6885,-6.6805,-6.666,-6.636,-6.6194,-6.6053,-6.4557,-6.3669,-6.3548,-6.3761,-6.4834,-6.6672,-6.7987,-6.8237,-6.7329,-6.582,-6.4852,-6.4524,-6.4195,-6.3398,-6.2312,-6.2279,-6.148,-5.9707,-5.8552,-5.6711,-5.3756,-4.8635,0.0,0.0,0.0,0.0,0.0,0.0,0.0,0.0,0.0,-3.1916,-3.2513,0.0,-4.0831,0.0,-4.7152,-4.8629,-4.5382,-4.6809,0.0,0.0,-4.4364,-4.4276,-4.5894,-4.6957,-4.7836,-4.8385,-4.9301,-4.9636,-4.9054,-4.8609,-4.8546,-4.9201,-4.6706,-4.5055,-4.568,-4.5786,-4.6102,-4.6503,-4.5089,-4.4068,-4.4235,-4.3636,-4.3013,-4.2834,-4.2774,-4.2632,-4.2272,-4.2087,-4.1875,-4.1758,-4.0743,-3.9668,-3.8969,-3.7549,-3.6111,-3.4361,-3.242,-3.0944,-3.1012,-3.1106,-3.1165,-6.5115,-6.4312,-5.9648,-5.9392,-6.1949,-6.1881,-6.3559,-6.6295,-6.6343,-6.5609,-6.4301,-6.5317,-6.3537,-5.9642,-5.8161,0.0,-5.9424,-6.0826,-6.2754,-6.496,-6.4783,-6.4419,-6.3851,-6.3854,-6.4317,-6.5312,-6.5654,-6.6443,-6.7576,-6.6476,-6.5853,-6.5584,-5.965,-5.6884,-5.729,-5.8307,-6.0849,-6.5035,-6.6053,-6.6334,-6.6029,-6.4397,-6.3506,-6.3305,-6.1885,-6.105,-6.0832,-6.0794,-6.0722,-6.0454,-5.653,-5.32,-5.0857,0.0,0.0,0.0,0.0,0.0,0.0,0.0,0.0,0.0,0.0,0.0,0.0,0.0,0.0,-3.7405,-4.2214,0.0,-4.7377,-4.4754,0.0,0.0,0.0,-3.8297,-4.0741,-4.1842,-4.3333,-4.5685,0.0,0.0,-4.8321,-4.6908,-4.5702,-4.5558,-4.5234,-4.5017,-4.5,-4.4848,-4.4399,-4.3111,-4.2974,-4.2601,-4.1327,-4.1438,-4.1781,-4.1723,-4.1746,-4.1548,-4.1127,-4.0504,-4.025,-4.0614,-3.9013,-3.7732,-3.8413,-3.6012,-3.3405,-3.0735,-2.9678,-2.8902,-2.8294,-2.8961,-2.9871,-6.1447,-5.8072,-5.512,-5.4481,-5.5478,-5.6646,-5.8981,-6.2002,-6.3202,-6.2857,-6.131,-6.0594,-5.7699,-5.3231,-5.1653,0.0,0.0,0.0,-5.8747,-6.2249,-6.3619,-6.4402,-6.4763,-6.4968,-6.5052,-6.5112,-6.5237,-6.5365,-6.5615,-6.461,-6.1343,-5.5694,0.0,-4.9929,-5.2087,-5.4374,-5.7661,-6.1905,-6.5117,-6.5861,-6.407,-6.4124,-6.3416,-6.183,-6.1083,-6.0673,-6.0629,-6.0514,-5.923,-5.6747,-5.4012,-4.979,0.0,0.0,0.0,0.0,0.0,0.0,0.0,0.0,0.0,0.0,0.0,-2.5859,-2.5574,0.0,0.0,0.0,-3.3257,-3.4675,-3.7607,-3.9197,0.0,0.0,0.0,0.0,0.0,0.0,0.0,-4.0582,-4.3463,-4.5248,-4.5081,-4.3817,-4.2937,-4.2878,-4.1958,-4.153,-4.1988,0.0,-4.0672,-4.2196,-4.2107,-4.1667,-4.1102,-4.0788,-4.0567,-4.042,-4.0272,-4.0043,-3.948,-3.9185,-3.9128,-3.9068,-3.7959,-3.6872,-3.6442,-3.3153,-3.0273,-3.0131,-2.9523,-2.9021,-2.904,-2.9264,-2.9571,-5.5221,0.0,0.0,0.0,0.0,-5.0364,-5.2779,-5.5837,-5.7311,-5.6739,-5.4671,-5.3635,0.0,0.0,0.0,0.0,0.0,0.0,-5.4742,-5.8238,-6.2606,-6.441,-6.4153,-6.4385,-6.4221,-6.37,-6.2851,-6.2231,-6.1705,-5.9401,-5.4337,-4.6736,0.0,0.0,0.0,0.0,-5.4479,-5.8795,-6.3598,-6.508,-6.3119,-6.3912,-6.3397,-6.1388,-6.0941,-6.0634,-6.052,-5.9192,-5.6894,-5.3458,-4.959,0.0,0.0,0.0,0.0,0.0,0.0,0.0,0.0,0.0,0.0,0.0,0.0,0.0,0.0,0.0,0.0,0.0,0.0,0.0,-3.0549,-3.4196,-3.5039,0.0,0.0,0.0,0.0,0.0,0.0,0.0,0.0,0.0,-4.0502,-4.0687,-4.093,0.0,0.0,-3.9821,-3.9596,-3.8576,-3.8487,-4.0462,-4.077,0.0,-3.9606,-3.9133,-3.8753,-3.8556,-3.8359,-3.8026,-3.7468,-3.6832,-3.6544,-3.6806,-3.5592,-3.4233,-3.2962,-2.9878,-2.7916,-2.8353,-2.7766,-2.724,-2.7782,-2.7692,-2.7537,0.0,0.0,0.0,0.0,0.0,0.0,0.0,0.0,-4.8263,-4.6628,0.0,-4.4664,0.0,0.0,0.0,0.0,-3.9241,-4.6329,0.0,0.0,-6.115,-6.3797,-6.0564,-6.051,-6.0502,-6.0229,-5.7738,-5.6343,-5.5777,-4.9934,0.0,0.0,0.0,0.0,0.0,0.0,-5.1064,-5.5748,-6.1149,-6.3848,-6.3752,-6.3665,-6.3249,-6.2517,-6.1391,-6.0645,-6.0092,-5.6344,-5.3425,-5.1685,-4.2482,0.0,0.0,0.0,0.0,0.0,0.0,0.0,0.0,0.0,0.0,0.0,0.0,0.0,0.0,0.0,0.0,0.0,0.0,0.0,0.0,-3.0716,0.0,0.0,0.0,0.0,0.0,0.0,0.0,0.0,0.0,0.0,-3.4434,-3.7756,-4.0149,-3.9476,0.0,0.0,0.0,0.0,-3.9127,-3.6815,-3.8506,-3.8793,-3.5124,-3.5317,-3.5884,-3.5861,0.0,0.0,-3.5135,-3.2926,-3.1688,-3.3127,-3.1354,-2.9076,-2.8197,-2.6734,-2.5395,-2.4391,-2.3291,-2.2552,-2.2588,-2.2846,-2.3029,0.0,0.0,0.0,0.0,0.0,0.0,0.0,0.0,0.0,-4.0456,-3.8403,-3.7768,0.0,0.0,0.0,0.0,0.0,0.0,0.0,0.0,-5.1838,-5.4111,-5.4571,-5.4862,-5.5028,0.0,-5.2971,-4.9374,0.0,0.0,0.0,0.0,0.0,0.0,0.0,0.0,-5.0009,-5.4751,-6.1505,-6.482,-6.4387,-6.3937,-6.3243,-6.2381,-6.1497,-5.9614,-5.6388,-5.2048,-4.7319,0.0,0.0,0.0,0.0,0.0,0.0,0.0,0.0,0.0,0.0,0.0,0.0,0.0,0.0,0.0,0.0,0.0,0.0,0.0,0.0,0.0,0.0,0.0,-2.901,0.0,0.0,0.0,0.0,0.0,0.0,0.0,0.0,0.0,-3.059,-3.3285,-3.598,-3.7634,-3.8312,-3.8615,-3.8643,0.0,0.0,0.0,0.0,0.0,0.0,0.0,-3.3425,-3.2035,-3.1483,-3.0972,-3.0267,-2.934,-2.8965,-3.0025,0.0,0.0,-2.45,-2.3253,-2.2268,-2.1321,-2.0625,-2.011,-1.9993,-1.9806,-1.9899,0.0,0.0,0.0,0.0,0.0,0.0,0.0,0.0,0.0,-3.28,-3.1224,0.0,0.0,0.0,0.0,0.0,0.0,0.0,0.0,0.0,0.0,0.0,-4.7846,-4.8587,0.0,0.0,0.0,0.0,0.0,0.0,0.0,0.0,0.0,0.0,0.0,0.0,-4.9377,-5.3672,-6.1627,-6.5548,-6.5052,-6.4591,-6.3932,-6.3016,-6.2208,-5.9634,-5.4853,0.0,0.0,0.0,0.0,0.0,0.0,0.0,0.0,0.0,0.0,0.0,0.0,0.0,0.0,0.0,0.0,0.0,0.0,0.0,0.0,0.0,0.0,0.0,0.0,0.0,-2.6132,0.0,0.0,0.0,0.0,0.0,0.0,0.0,0.0,0.0,0.0,0.0,-3.2051,-3.438,-3.5689,-3.6709,-3.7575,-3.8052,-3.8421,0.0,0.0,0.0,0.0,0.0,0.0,0.0,0.0,0.0,0.0,0.0,0.0,0.0,0.0,-2.3134,-2.0485,-1.9379,-1.8488,-1.7499,0.0,0.0,0.0,0.0,0.0,0.0,0.0,0.0,0.0,0.0,0.0,0.0,0.0,0.0,0.0,-2.1938,0.0,0.0,-1.9453,0.0,0.0,0.0,0.0,0.0,0.0,0.0,0.0,0.0,0.0,0.0,0.0,0.0,0.0,0.0,0.0,0.0,0.0,0.0,0.0,0.0,0.0,-4.8983,-5.2142,-6.1209,-6.5845,-6.5715,-6.5557,-6.5115,-6.4446,-6.3429,-6.0565,-5.5695,0.0,0.0,0.0,0.0,0.0,0.0,0.0,0.0,0.0,0.0,0.0,0.0,0.0,0.0,0.0,0.0,0.0,0.0,0.0,0.0,0.0,0.0,0.0,0.0,0.0,0.0,-2.2285,-2.3542,-2.3145,0.0,0.0,0.0,0.0,0.0,0.0,0.0,0.0,0.0,-2.9774,-3.3401,-3.5657,-3.5002,-3.6677,-3.7189,-3.5411,-3.6844,-3.6533,-3.1984,-2.9393,-2.7749,0.0,0.0,0.0,0.0,0.0,0.0,0.0,0.0,0.0,0.0,0.0,0.0,0.0,0.0,0.0,0.0,0.0,0.0,0.0,0.0,0.0,0.0,0.0,0.0,0.0,0.0,0.0,0.0,0.0,0.0,0.0,0.0,0.0,0.0,0.0,0.0,0.0,0.0,0.0,0.0,0.0,0.0,0.0,0.0,0.0,0.0,0.0,0.0,0.0,0.0,0.0,0.0,0.0,0.0,-4.9106,-5.2112,-6.1184,-6.5845,-6.5715,-6.5252,-6.4533,-6.3554,-6.115,-5.7378,0.0,0.0,0.0,0.0,0.0,0.0,0.0,0.0,0.0,0.0,0.0,0.0,0.0,0.0,0.0,0.0,0.0,0.0,0.0,0.0,0.0,0.0,0.0,0.0,0.0,0.0,0.0,0.0,-2.6095,-2.4652,-2.1344,0.0,0.0,0.0,0.0,0.0,0.0,0.0,0.0,0.0,0.0,-3.0447,-3.1567,-3.1431,-3.153,-3.2447,-3.4121,-3.3813,-2.9631,-2.6671,-2.4285,-2.2703,0.0,0.0,0.0,0.0,0.0,0.0,0.0,0.0,0.0,0.0,0.0,0.0,0.0,0.0,0.0,0.0,0.0,0.0,0.0,0.0,0.0,0.0,0.0,0.0,0.0,0.0,0.0,0.0,0.0,0.0,0.0,0.0,0.0,0.0,0.0,0.0,0.0,0.0,0.0,0.0,0.0,0.0,0.0,0.0,0.0,0.0,0.0,0.0,0.0,0.0,0.0,0.0,0.0,-4.9238,-5.232,-6.13,-6.5911,-6.5757,-6.5361,-6.4792,-6.4169,-6.0711,-5.6241,0.0,0.0,0.0,0.0,0.0,0.0,0.0,0.0,0.0,0.0,0.0,0.0,0.0,0.0,0.0,0.0,0.0,0.0,0.0,0.0,0.0,0.0,0.0,0.0,0.0,0.0,0.0,0.0,-2.4478,-2.4321,-2.3768,0.0,0.0,0.0,0.0,0.0,0.0,0.0,0.0,0.0,0.0,-2.7031,-2.8482,-2.6997,0.0,0.0,-3.068,-3.0273,-2.7973,-2.5514,-2.3198,-2.1425,-2.0054,0.0,0.0,0.0,0.0,0.0,0.0,0.0,0.0,0.0,0.0,0.0,0.0,0.0,0.0,0.0,0.0,0.0,0.0,0.0,0.0,0.0,0.0,0.0,0.0,0.0,0.0,0.0,0.0,0.0,0.0,0.0,0.0,0.0,0.0,0.0,0.0,0.0,0.0,0.0,0.0,0.0,0.0,0.0,0.0,0.0,0.0,0.0,0.0,0.0,0.0,0.0,0.0,-4.9498,-5.27,-6.1445,-6.6037,-6.5911,-6.5793,-6.568,-6.5592,-6.1512,-5.658,0.0,0.0,0.0,0.0,0.0,0.0,0.0,0.0,0.0,0.0,0.0,0.0,0.0,0.0,0.0,0.0,0.0,0.0,0.0,0.0,0.0,0.0,0.0,0.0,0.0,0.0,0.0,0.0,0.0,0.0,0.0,0.0,0.0,0.0,0.0,0.0,0.0,0.0,0.0,0.0,0.0,-2.4935,-2.5623,-2.3601,-2.3335,0.0,-2.6696,-2.6089,-2.6494,-2.503,-2.3505,-2.2172,0.0,0.0,0.0,0.0,0.0,0.0,0.0,0.0,0.0,0.0,0.0,0.0,0.0,0.0,0.0,0.0,0.0,0.0,0.0,0.0,0.0,0.0,0.0,0.0,0.0,0.0,0.0,0.0,0.0,0.0,0.0,0.0,0.0,0.0,0.0,0.0,0.0,0.0,0.0,0.0,0.0,0.0,0.0,0.0,0.0,0.0,0.0,0.0,0.0,0.0,0.0,0.0,0.0,0.0,-5.2713,-6.1599,-6.6185,-6.6037,-6.5911,-6.5601,-6.491,-5.9707,0.0,0.0,0.0,0.0,0.0,0.0,0.0,0.0,0.0,0.0,0.0,0.0,0.0,0.0,0.0,0.0,0.0,0.0,0.0,0.0,0.0,0.0,0.0,0.0,0.0,0.0,0.0,-1.7477,0.0,0.0,0.0,0.0,0.0,0.0,0.0,0.0,0.0,0.0,0.0,0.0,0.0,0.0,-2.1349,-2.2392,-2.2465,-2.2717,0.0,0.0,-2.1269,-2.1952,-2.096,-1.9584,0.0,0.0,0.0,0.0,0.0,0.0,0.0,0.0,0.0,0.0,0.0,0.0,0.0,0.0,0.0,0.0,0.0,0.0,0.0,0.0,0.0,0.0,0.0,0.0,0.0,0.0,0.0,0.0,0.0,0.0,0.0,0.0,0.0,0.0,0.0,0.0,0.0,0.0,0.0,0.0,0.0,0.0,0.0,0.0,0.0,0.0,0.0,0.0,0.0,0.0,0.0,0.0,0.0,0.0,-4.8356,-5.2841,-6.0396,-6.4962,-6.6114,-6.6062,-6.5747,-6.5236,-5.929,-5.4281,0.0,0.0,0.0,0.0,0.0,0.0,0.0,0.0,0.0,0.0,0.0,0.0,0.0,0.0,0.0,0.0,0.0,0.0,0.0,0.0,0.0,0.0,0.0,0.0,0.0,0.0,0.0,0.0,0.0,0.0,0.0,0.0,0.0,0.0,0.0,0.0,0.0,0.0,0.0,0.0,0.0,0.0,-2.1114,-2.133,0.0,0.0,0.0,-1.9503,-2.0005,0.0,0.0,0.0,0.0,0.0,0.0,0.0,0.0,0.0,0.0,0.0,0.0,0.0,0.0,0.0,0.0,0.0,0.0,0.0,0.0,0.0,0.0,0.0,0.0,0.0,0.0,0.0,0.0,0.0,0.0,0.0,0.0,0.0,0.0,0.0,0.0,0.0,0.0,0.0,0.0,0.0,0.0,0.0,0.0,0.0,0.0,0.0,0.0,0.0,0.0,0.0,0.0,0.0,0.0,0.0,0.0,0.0,-5.2829,-5.882,-6.3319,-6.6127,-6.6125,-6.6037,-6.5804,-5.9781,-5.4871,0.0,0.0,0.0,0.0,0.0,0.0,0.0,0.0,0.0,0.0,0.0,0.0,0.0,0.0,0.0,0.0,0.0,0.0,0.0,0.0,0.0,0.0,0.0,0.0,0.0,0.0,0.0,0.0,0.0,0.0,0.0,0.0,0.0,0.0,0.0,0.0,0.0,0.0,0.0,0.0,0.0,-1.9417,-2.0862,-2.0348,-1.9387,0.0,0.0,-1.9407,-1.948,-1.9824,0.0,0.0,0.0,0.0,0.0,0.0,0.0,0.0,0.0,0.0,0.0,0.0,0.0,0.0,0.0,0.0,0.0,0.0,0.0,0.0,0.0,0.0,0.0,0.0,0.0,0.0,0.0,0.0,0.0,0.0,0.0,0.0,0.0,0.0,0.0,0.0,0.0,0.0,0.0,0.0,0.0,0.0,0.0,0.0,0.0,0.0,0.0,0.0,0.0,0.0,0.0,0.0,0.0,0.0,0.0,0.0,-5.2954,-5.8933,-6.343,-6.627,-6.621,-6.6087,-6.5965,-6.0947,-5.6019,0.0,0.0,0.0,0.0,0.0,0.0,0.0,0.0,0.0,0.0,0.0,0.0,0.0,0.0,0.0,0.0,0.0,0.0,0.0,0.0,0.0,0.0,0.0,0.0,0.0,0.0,0.0,0.0,0.0,0.0,0.0,0.0,0.0,0.0,0.0,0.0,0.0,0.0,0.0,0.0,0.0,-1.9207,-2.0293,-1.9989,0.0,0.0,0.0,0.0,-1.8887,-1.8229,0.0,0.0,0.0,0.0,0.0,0.0,0.0,0.0,0.0,0.0,0.0,0.0,0.0,0.0,0.0,0.0,0.0,0.0,0.0,0.0,0.0,0.0,0.0,0.0,0.0,0.0,0.0,0.0,0.0,0.0,0.0,0.0,0.0,0.0,0.0,0.0,0.0,0.0,0.0,0.0,0.0,0.0,0.0,0.0,0.0,0.0,0.0,0.0,0.0,0.0,0.0,0.0,0.0,0.0,0.0,0.0,-5.2808,-5.7534,-6.198,-6.6186,-6.6259,-6.5777,-6.484,-6.0852,-5.6064,0.0,0.0,0.0,0.0,0.0,0.0,0.0,0.0,0.0,0.0,0.0,0.0,0.0,0.0,0.0,0.0,0.0,0.0,0.0,0.0,0.0,0.0,0.0,0.0,0.0,0.0,0.0,0.0,0.0,0.0,0.0,0.0,0.0,0.0,0.0,0.0,0.0,0.0,0.0,0.0,-1.699,-1.7894,-1.9122,0.0,0.0,0.0,0.0,0.0,0.0,-1.6758,-1.5802,0.0,0.0,0.0,0.0,0.0,0.0,0.0,0.0,0.0,0.0,0.0,0.0,0.0,0.0,0.0,0.0,0.0,0.0,0.0,0.0,0.0,0.0,0.0,0.0,0.0,0.0,0.0,0.0,0.0,0.0,0.0,0.0,0.0,0.0,0.0,0.0,0.0,0.0,0.0,0.0,0.0,0.0,0.0,0.0,0.0,0.0,0.0,0.0,0.0,0.0,0.0,0.0,0.0,0.0,0.0,-5.1796,-5.538,-5.9902,-6.5394,-6.6031,-6.5382,-6.3559,-6.0435,-5.5468,-4.8707,0.0,0.0,0.0,0.0,0.0,0.0,0.0,0.0,0.0,0.0,0.0,0.0,0.0,0.0,0.0,0.0,0.0,0.0,0.0,0.0,0.0,0.0,0.0,0.0,0.0,0.0,0.0,0.0,0.0,0.0,0.0,0.0,0.0,0.0,0.0,0.0,0.0,0.0,0.0,-1.6055,-1.6521,0.0,0.0,0.0,0.0,0.0,0.0,0.0,0.0,-1.4343,0.0,0.0,0.0,0.0,0.0,0.0,0.0,0.0,0.0,0.0,0.0,0.0,0.0,0.0,0.0,0.0,0.0,0.0,0.0,0.0,0.0,0.0,0.0,0.0,0.0,0.0,0.0,0.0,0.0,0.0,0.0,0.0,0.0,0.0,0.0,0.0,0.0,0.0,0.0,0.0,0.0,0.0,0.0,0.0,0.0,0.0,0.0,0.0,0.0,0.0,0.0,0.0,0.0,0.0,0.0,0.0,-5.2662,-5.7817,-6.2349,-6.4879,-6.5344,-6.3595,-6.0435,-5.4527,-4.5736,0.0,0.0,0.0,0.0,0.0,0.0,0.0,0.0,0.0,0.0,0.0,0.0,0.0,0.0,0.0,0.0,0.0,0.0,0.0,0.0,0.0,0.0,0.0,0.0,0.0,0.0,0.0,0.0,0.0,0.0,0.0,0.0,0.0,0.0,0.0,0.0,0.0,0.0,-1.4149,-1.5552,0.0,0.0,0.0,0.0,0.0,0.0,0.0,0.0,-1.4509,0.0,0.0,0.0,0.0,0.0,0.0,0.0,0.0,0.0,0.0,0.0,0.0,0.0,0.0,0.0,0.0,0.0,0.0,0.0,0.0,0.0,0.0,0.0,0.0,0.0,0.0,0.0,0.0,0.0,0.0,0.0,0.0,0.0,0.0,0.0,0.0,0.0,0.0,0.0,0.0,0.0,0.0,0.0,0.0,0.0,0.0,0.0,0.0,0.0,0.0,0.0,0.0,0.0,0.0,0.0,0.0,0.0,0.0,-5.6056,-6.035,-6.2531,-6.2797,-6.0959,-5.7046,-5.1261,0.0,0.0,0.0,0.0,0.0,0.0,0.0,0.0,0.0,0.0,0.0,0.0,0.0,0.0,0.0,0.0,0.0,0.0,0.0,0.0,0.0,0.0,0.0,0.0,0.0,0.0,0.0,0.0,0.0,0.0,0.0,0.0,0.0,0.0,0.0,0.0,0.0,0.0,0.0,0.0,0.0,0.0,0.0,0.0,0.0,0.0,0.0,0.0,0.0,0.0,0.0,0.0,0.0,0.0,0.0,0.0,0.0,0.0,0.0,0.0,0.0,0.0,0.0,0.0,0.0,0.0,0.0,0.0,0.0,0.0,0.0,0.0,0.0,0.0,0.0,0.0,0.0,0.0,0.0,0.0,0.0,0.0,0.0,0.0,0.0,0.0,0.0,0.0,0.0,0.0,0.0,0.0,0.0,0.0,0.0,0.0,0.0,0.0,0.0,0.0,0.0,0.0,0.0,0.0,0.0,0.0,0.0,0.0,-5.3644,-5.7693,-6.0114,-6.0385,-5.8259,-5.2559,-4.6891,0.0,0.0,0.0,0.0,0.0,0.0,0.0,0.0,0.0,0.0,0.0,0.0,0.0,0.0,0.0,0.0,0.0,0.0,0.0,0.0,0.0,0.0,0.0,0.0,0.0,0.0,0.0,0.0,0.0,0.0,0.0,0.0,0.0,0.0,0.0,0.0,0.0,0.0,0.0,0.0,0.0,0.0,0.0,0.0,0.0,0.0,0.0,0.0,-1.5382,0.0,0.0,0.0,0.0,0.0,0.0,0.0,0.0,0.0,0.0,0.0,0.0,0.0,0.0,0.0,0.0,0.0,0.0,0.0,0.0,0.0,0.0,0.0,0.0,0.0,0.0,0.0,0.0,0.0,0.0,0.0,0.0,0.0,0.0,0.0,0.0,0.0,0.0,0.0,0.0,0.0,0.0,0.0,0.0,0.0,0.0,0.0,0.0,0.0,0.0,0.0,0.0,0.0,0.0,0.0,0.0,0.0,0.0,0.0,-4.9821,-5.2856,-5.8347,-5.9779,-5.6524,-4.7856,-4.1465,0.0,0.0,0.0,0.0,0.0,0.0,0.0,0.0,0.0,0.0,0.0,0.0,0.0,0.0,0.0,0.0,0.0,0.0,0.0,0.0,0.0,0.0,0.0,0.0,0.0,0.0,0.0,0.0,0.0,0.0,0.0,0.0,0.0,0.0,0.0,0.0,0.0,0.0,0.0,0.0,0.0,0.0,0.0,0.0,0.0,0.0,0.0,0.0,0.0,0.0,0.0,0.0,0.0,0.0,0.0,0.0,0.0,0.0,0.0,0.0,0.0,0.0,0.0,0.0,0.0,0.0,0.0,0.0,0.0,0.0,0.0,0.0,0.0,0.0,0.0,0.0,0.0,0.0,0.0,0.0,0.0,0.0,0.0,0.0,0.0,0.0,0.0,0.0,0.0,0.0,0.0,0.0,0.0,0.0,0.0,0.0,0.0,0.0,0.0,0.0,0.0,0.0,0.0,0.0,0.0,0.0,0.0,0.0,-4.6949,-5.0694,-5.4081,-5.4255,-5.0971,-4.4256,-3.9168,0.0,0.0,0.0,0.0,0.0,0.0,0.0,0.0,0.0,0.0,0.0,0.0,0.0,0.0,0.0,0.0,0.0,0.0,0.0,0.0,0.0,0.0,0.0,0.0,0.0,0.0,0.0,0.0,0.0,0.0,0.0,0.0,0.0,0.0,0.0,0.0,0.0,0.0,0.0,0.0,0.0,0.0,0.0,0.0,0.0,0.0,0.0,0.0,0.0,0.0,0.0,0.0,0.0,0.0,0.0,0.0,0.0,0.0,0.0,0.0,0.0,0.0,0.0,0.0,0.0,0.0,0.0,0.0,0.0,0.0,0.0,0.0,0.0,0.0,0.0,0.0,0.0,0.0,0.0,0.0,0.0,0.0,0.0,0.0,0.0,0.0,0.0,0.0,0.0,0.0,0.0,0.0,0.0,0.0,0.0,0.0,0.0,0.0,0.0,0.0,0.0,0.0,0.0,0.0,0.0,0.0,0.0,0.0,0.0,-4.7738,-4.8569,-4.7653,-4.504,-4.0741,-3.6859,0.0,0.0,0.0,0.0,0.0,0.0,0.0,0.0,0.0,0.0,0.0,0.0,0.0,0.0,0.0,0.0,0.0,0.0,0.0,0.0,0.0,0.0,0.0,0.0,0.0,0.0,0.0,0.0,0.0,0.0,0.0,0.0,0.0,0.0,0.0,0.0,0.0,0.0,0.0,0.0,0.0,0.0,0.0,0.0,0.0,0.0,0.0,0.0,0.0,0.0,0.0,0.0,0.0,0.0,0.0,0.0,0.0,0.0,0.0,0.0,0.0,0.0,0.0,0.0,0.0,0.0,0.0,0.0,0.0,0.0,0.0,0.0,0.0,0.0,0.0,0.0,0.0,0.0,0.0,0.0,0.0,0.0,0.0,0.0,0.0,0.0,0.0,0.0,0.0,0.0,0.0,0.0,0.0,0.0,0.0,0.0,0.0,0.0,0.0,0.0,0.0,0.0,0.0,0.0,0.0,0.0,0.0,0.0,0.0,-4.3118,-4.1768,-4.0825,-4.0246,-3.7019,-3.3593,0.0,0.0,0.0,0.0,0.0,0.0,0.0,0.0,0.0,0.0,0.0,0.0,0.0,0.0,0.0,0.0,0.0,0.0,0.0,0.0,0.0,0.0,0.0,0.0,0.0,0.0,0.0,0.0,0.0,0.0,0.0,0.0,0.0,0.0,0.0,0.0,0.0,0.0,0.0,0.0,0.0,0.0,0.0,0.0,0.0,0.0,0.0,0.0,0.0,0.0,0.0,0.0,0.0,0.0,0.0,0.0,0.0,0.0,0.0,0.0,0.0,0.0,0.0,0.0,0.0,0.0,0.0,0.0,0.0,0.0,0.0,0.0,0.0,0.0,0.0,0.0,0.0,0.0,0.0,0.0,0.0,0.0,0.0,0.0,0.0,0.0,0.0,0.0,0.0,0.0,0.0,0.0,0.0,0.0,0.0,0.0,0.0,0.0,0.0,0.0,0.0,0.0,0.0,0.0,0.0,0.0,0.0,0.0,0.0,-3.6788,-3.6252,-3.6193,-3.6832,-3.3636,-3.1224,-2.9646,0.0,0.0,0.0,0.0,0.0,0.0,0.0,0.0,0.0,0.0,0.0,0.0,0.0,0.0,0.0,0.0,0.0,0.0,0.0,0.0,0.0,0.0,0.0,0.0,0.0,0.0,0.0,0.0,0.0,0.0,0.0,0.0,0.0,0.0,0.0,0.0,0.0,0.0,0.0,0.0,0.0,0.0,0.0,0.0,0.0,0.0,0.0,0.0,0.0,0.0,0.0,0.0,0.0,0.0,0.0,0.0,0.0,0.0,0.0,0.0,0.0,0.0,0.0,0.0,0.0,0.0,0.0,0.0,0.0,0.0,0.0,0.0,0.0,0.0,0.0,0.0,0.0,0.0,0.0,0.0,0.0,0.0,0.0,0.0,0.0,0.0,0.0,0.0,0.0,0.0,0.0,0.0,0.0,0.0,0.0,0.0,0.0,0.0,0.0,0.0,0.0,0.0,0.0,0.0,0.0,0.0,0.0,0.0,-3.2704,-3.2603,-3.288,-3.3501,-3.1341,-2.9719,0.0,0.0,0.0,0.0,0.0,0.0,0.0,0.0,0.0,0.0,0.0,0.0,0.0,0.0,0.0,0.0,0.0,0.0,0.0,0.0,0.0,0.0,0.0,0.0,0.0,0.0,0.0,0.0,0.0,0.0,0.0,0.0,0.0,0.0,0.0,0.0,0.0,0.0,0.0,0.0,0.0,0.0,0.0,0.0,0.0,0.0,0.0,0.0,0.0,0.0,0.0,0.0,0.0,0.0,0.0,0.0,0.0,0.0,0.0,0.0,0.0,0.0,0.0,0.0,0.0,0.0,0.0,0.0,0.0,0.0,0.0,0.0,0.0,0.0,0.0,0.0,0.0,0.0,0.0,0.0,0.0,0.0,0.0,0.0,0.0,0.0,0.0,0.0,0.0,0.0,0.0,0.0,0.0,0.0,0.0,0.0,0.0,0.0,0.0,0.0,0.0,0.0,0.0,0.0,0.0,0.0,0.0,0.0,-2.8429,-3.1088,-3.1026,-3.0846,-3.0586,-3.025,-2.9195,0.0,0.0,0.0,0.0,0.0,0.0,0.0,0.0,0.0,0.0,0.0,0.0,0.0,0.0,0.0,0.0,0.0,0.0,0.0,0.0,0.0,0.0,0.0,0.0,0.0,0.0,0.0,0.0,0.0,0.0,0.0,0.0,0.0,0.0,0.0,0.0,0.0,0.0,0.0,0.0,0.0,0.0,0.0,0.0,0.0,0.0,0.0,0.0,0.0,0.0,0.0,0.0,0.0,0.0,0.0,0.0,0.0,0.0,0.0,0.0,0.0,0.0,0.0,0.0,0.0,0.0,0.0,0.0,0.0,0.0,0.0,0.0,0.0,0.0,0.0,0.0,0.0,0.0,0.0,0.0,0.0,0.0,0.0,0.0,0.0,0.0,0.0,0.0,0.0,0.0,0.0,0.0,0.0,0.0,0.0,0.0,0.0,0.0,0.0,0.0,0.0,0.0,0.0,0.0,0.0,0.0,0.0,0.0,0.0,-2.6575,0.0,-2.8999,-2.8565,-2.8395,-2.7866,0.0,0.0,0.0,0.0,0.0,0.0,0.0,0.0,0.0,0.0,0.0,0.0,0.0,0.0,0.0,0.0,0.0,0.0,0.0,0.0,0.0,0.0,0.0,0.0,0.0,0.0,0.0,0.0,0.0,0.0,0.0,0.0,0.0,0.0,0.0,0.0,0.0,0.0,0.0,0.0,0.0,0.0,0.0,0.0,0.0,0.0,0.0,0.0,0.0,0.0,0.0,0.0,0.0,0.0,0.0,0.0,0.0,0.0,0.0,0.0,0.0,0.0,0.0,0.0,0.0,0.0,0.0,0.0,0.0,0.0,0.0,0.0,0.0,0.0,0.0,0.0,0.0,0.0,0.0,0.0,0.0,0.0,0.0,0.0,0.0,0.0,0.0,0.0,0.0,0.0,0.0,0.0,0.0,0.0,0.0,0.0,0.0,0.0,0.0,0.0,0.0,0.0,0.0,0.0,0.0,0.0,0.0,0.0,0.0,-2.438,-2.7047,-2.824,-2.7679,-2.7483,-2.7224,0.0,0.0,0.0,0.0,0.0,0.0,0.0,0.0,0.0,0.0,0.0,0.0,0.0,0.0,0.0,0.0,0.0,0.0,0.0,0.0,0.0,0.0,0.0,0.0,0.0,0.0,0.0,0.0,0.0,0.0,0.0,0.0,0.0,0.0,0.0,0.0,0.0,0.0,0.0,0.0,0.0,0.0,0.0,0.0,0.0,0.0,0.0,0.0,0.0,0.0,0.0,0.0,0.0,0.0,0.0,0.0,0.0,0.0,0.0,0.0,0.0,0.0,0.0,0.0,0.0,0.0,0.0,0.0,0.0,0.0,0.0,0.0,0.0,0.0,0.0,0.0,0.0,0.0,0.0,0.0,0.0,0.0,0.0,0.0,0.0,0.0,0.0,0.0,0.0,0.0,0.0,0.0,0.0,0.0,0.0,0.0,0.0,0.0,0.0,0.0,0.0,0.0,0.0,0.0,0.0,0.0,0.0,0.0,0.0,-2.4333,-2.7183,-2.842,-2.7847,-2.7535,-2.7272,0.0,0.0,0.0,0.0,0.0,0.0,0.0,0.0,0.0,0.0,0.0,0.0,0.0,0.0,0.0,0.0,0.0,0.0,0.0,0.0,0.0,0.0,0.0,0.0,0.0,0.0,0.0,0.0,0.0,0.0,0.0,0.0,0.0,0.0,0.0,0.0,0.0,0.0,0.0,0.0,0.0,0.0,0.0,0.0,0.0,0.0,0.0,0.0,0.0,0.0,0.0,0.0,0.0,0.0,0.0,0.0,0.0,0.0,0.0,0.0,0.0,0.0,0.0,0.0,0.0,0.0,0.0,0.0,0.0,0.0,0.0,0.0,0.0,0.0,0.0,0.0,0.0,0.0,0.0,0.0,0.0,0.0,0.0,0.0,0.0,0.0,0.0,0.0,0.0,0.0,0.0,0.0,0.0,0.0,0.0,0.0,0.0,0.0,0.0,0.0,0.0,0.0,0.0,0.0,0.0,0.0,0.0,0.0,0.0,0.0,-2.7637,-2.8503,-2.8204,-2.7697,-2.7259,-2.6871,0.0,0.0,0.0,0.0,0.0,0.0,0.0,0.0,0.0,0.0,0.0,0.0,0.0,0.0,0.0,0.0,0.0,0.0,0.0,0.0,0.0,0.0,0.0,0.0,0.0,0.0,0.0,0.0,0.0,0.0,0.0,0.0,0.0,0.0,0.0,0.0,0.0,0.0,0.0,0.0,0.0,0.0,0.0,0.0,0.0,0.0,0.0,0.0,0.0,0.0,0.0,0.0,0.0,0.0,0.0,0.0,0.0,0.0,0.0,0.0,0.0,0.0,0.0,0.0,0.0,0.0,0.0,0.0,0.0,0.0,0.0,0.0,0.0,0.0,0.0,0.0,0.0,0.0,0.0,0.0,0.0,0.0,0.0,0.0,0.0,0.0,0.0,0.0,0.0,0.0,0.0,0.0,0.0,0.0,0.0,0.0,0.0,0.0,0.0,0.0,0.0,0.0,0.0,0.0,0.0,0.0,0.0,0.0,0.0,0.0,-2.8503,-2.8312,-2.7822,-2.7373,0.0,0.0,0.0,0.0,0.0,0.0,0.0,0.0,0.0,0.0,0.0,0.0,0.0,0.0,0.0,0.0,0.0,0.0,0.0,0.0,0.0,0.0,0.0,0.0,0.0,0.0,0.0,0.0,0.0,0.0,0.0,0.0,0.0,0.0,0.0,0.0,0.0,0.0,0.0,0.0,0.0,0.0,0.0,0.0,0.0,0.0,0.0,0.0,0.0,0.0,0.0,0.0,0.0,0.0,0.0,0.0,0.0,0.0,0.0,0.0,0.0,0.0,0.0,0.0,0.0,0.0,0.0,0.0,0.0,0.0,0.0,0.0,0.0,0.0,0.0,0.0,0.0,0.0,0.0,0.0,0.0,0.0,0.0,0.0,0.0,0.0,0.0,0.0,0.0,0.0,0.0,0.0,0.0,0.0,0.0,0.0,0.0,0.0,0.0,0.0,0.0,0.0,0.0,0.0,0.0,0.0,0.0,0.0,0.0,0.0,0.0,-2.8447,-2.8198,-2.7965,0.0,-2.7097,0.0,0.0,0.0,0.0,0.0,0.0,0.0,0.0,0.0,0.0,0.0,0.0,0.0,0.0,0.0,0.0,0.0,0.0,0.0,0.0,0.0,0.0,0.0,0.0,0.0,0.0,0.0,0.0,0.0,0.0,0.0,0.0,0.0,0.0,0.0,0.0,0.0,0.0,0.0,0.0,0.0,0.0,0.0,0.0,0.0,0.0,0.0,0.0,0.0,0.0,0.0,0.0,0.0,0.0,0.0,0.0,0.0,0.0,0.0,0.0,0.0,0.0,0.0,0.0,0.0,0.0,0.0,0.0,0.0,0.0,0.0,0.0,0.0,0.0,0.0,0.0,0.0,0.0,0.0,0.0,0.0,0.0,0.0,0.0,0.0,0.0,0.0,0.0,0.0,0.0,0.0,0.0,0.0,0.0,0.0,0.0,0.0,0.0,0.0,0.0,0.0,0.0,0.0,0.0,0.0,0.0,0.0,0.0,0.0,0.0,0.0,0.0,-2.8081,-2.7737,-2.734,0.0,0.0,0.0,0.0,0.0,0.0,0.0,0.0,0.0,0.0,0.0,0.0,0.0,0.0,0.0,0.0,0.0,0.0,0.0,0.0,0.0,0.0,0.0,0.0,0.0,0.0,0.0,0.0,0.0,0.0,0.0,0.0,0.0,0.0,0.0,0.0,0.0,0.0,0.0,0.0,0.0,0.0,0.0,0.0,0.0,0.0,0.0,0.0,0.0,0.0,0.0,0.0,0.0,0.0,0.0,0.0,0.0,0.0,0.0,0.0,0.0,0.0,0.0,0.0,0.0,0.0,0.0,0.0,0.0,0.0,0.0,0.0,0.0,0.0,0.0,0.0,0.0,0.0,0.0,0.0,0.0,0.0,0.0,0.0,0.0,0.0,0.0,0.0,0.0,0.0,0.0,0.0,0.0,0.0,0.0,0.0,0.0,0.0,0.0,0.0,0.0,0.0,0.0,0.0,0.0,0.0,0.0,0.0,0.0,0.0,-2.8595,-2.8427,-2.807,-2.776,-2.7387,0.0,0.0,0.0,0.0,0.0,0.0,0.0,0.0,0.0,0.0,0.0,0.0,0.0,0.0,0.0,0.0,0.0,0.0,0.0,0.0,0.0,0.0,0.0,0.0,0.0,0.0,0.0,0.0,0.0,0.0,0.0,0.0,0.0,0.0,0.0,0.0,0.0,0.0,0.0,0.0,0.0,0.0,0.0,0.0,0.0,0.0,0.0,0.0,0.0,0.0,0.0,0.0,0.0,0.0,0.0,0.0,0.0,0.0,0.0,0.0,0.0,0.0,0.0,0.0,0.0,0.0,0.0,0.0,0.0,0.0,0.0,0.0,0.0,0.0,0.0,0.0,0.0,0.0,0.0,0.0,0.0,0.0,0.0,0.0,0.0,0.0,0.0,0.0,0.0,0.0,0.0,0.0,0.0,0.0,0.0,0.0,0.0,0.0,0.0,0.0,0.0,0.0,0.0,0.0,0.0,0.0,0.0,0.0,0.0,0.0,0.0,0.0,0.0,0.0,-2.7408,0.0,0.0,0.0,0.0,0.0,0.0,0.0,0.0,0.0,0.0,0.0,0.0,0.0,0.0,0.0,0.0,0.0,0.0,0.0,0.0,0.0,0.0,0.0,0.0,0.0,0.0,0.0,0.0,0.0,0.0,0.0,0.0,0.0,0.0,0.0,0.0,0.0,0.0,0.0,0.0,0.0,0.0,0.0,0.0,0.0,0.0,0.0,0.0,0.0,0.0,0.0,0.0,0.0,0.0,0.0,0.0,0.0,0.0,0.0,0.0,0.0,0.0,0.0,0.0,0.0,0.0,0.0,0.0,0.0,0.0,0.0,0.0,0.0,0.0,0.0,0.0,0.0,0.0,0.0,0.0,0.0,0.0,0.0,0.0,0.0,0.0,0.0,0.0,0.0,0.0,0.0,0.0,0.0,0.0,0.0,0.0,0.0,0.0,0.0,0.0,0.0,0.0,0.0,0.0,0.0,0.0,0.0,0.0,0.0,0.0,0.0,0.0,0.0,0.0,0.0,0.0,0.0,0.0,0.0,0.0,0.0,0.0,0.0,0.0,0.0,0.0,0.0,0.0,0.0,0.0,0.0,0.0,0.0,0.0,0.0,0.0,0.0,0.0,0.0,0.0,0.0,0.0,0.0,0.0,0.0,0.0,0.0,0.0,0.0,0.0,0.0,0.0,0.0,0.0,0.0,0.0,0.0,0.0,0.0,0.0,0.0,0.0,0.0,0.0,0.0,0.0,0.0,0.0,0.0,0.0,0.0,0.0,0.0,0.0,0.0,0.0,0.0,0.0,0.0,0.0,0.0,0.0,0.0,0.0,0.0,0.0,0.0,0.0,0.0,0.0,0.0,0.0,0.0,0.0,0.0,0.0,0.0,0.0,0.0,0.0,0.0,0.0,0.0,0.0,0.0,0.0,0.0,0.0,0.0,0.0,0.0,0.0,0.0,0.0,0.0,0.0,0.0,0.0,0.0,0.0,0.0,0.0,0.0,0.0,0.0,0.0,0.0,0.0,0.0,0.0,0.0,0.0,0.0,0.0,0.0,0.0,0.0,0.0,0.0,0.0,0.0,0.0,0.0,0.0,0.0,0.0,0.0,0.0,0.0,0.0,0.0,0.0,0.0,0.0,0.0,0.0,0.0,0.0,0.0,0.0,0.0,0.0,0.0,0.0,0.0,0.0,0.0,0.0,0.0,0.0,0.0,0.0,0.0,0.0,0.0,0.0,0.0,0.0,0.0,0.0,0.0,0.0,0.0,0.0,0.0,0.0,0.0,0.0,0.0,0.0,0.0,0.0,0.0,0.0,0.0,0.0,0.0,0.0,0.0,0.0,0.0,0.0,0.0,0.0,0.0,0.0,0.0,0.0,0.0,0.0,0.0,0.0,0.0,0.0,0.0,0.0,0.0,0.0,0.0,0.0,0.0,0.0,0.0,0.0,0.0,0.0,0.0,0.0,0.0,0.0,0.0,0.0,0.0,0.0,0.0,0.0,0.0,0.0,0.0,0.0,0.0,0.0,0.0,0.0,0.0,0.0,0.0,0.0,0.0,0.0,0.0,0.0,0.0,0.0,0.0,0.0,0.0,0.0,0.0,0.0,0.0,0.0,0.0,0.0,0.0,0.0,0.0,0.0,0.0,0.0,0.0,0.0,0.0,0.0,0.0,0.0,0.0,0.0,0.0,0.0,0.0,0.0,0.0,0.0,0.0,0.0,0.0,0.0,0.0,0.0,0.0,0.0,0.0,0.0,0.0,0.0,0.0,0.0,0.0,0.0,0.0,0.0,0.0,0.0,0.0,0.0,0.0,0.0,0.0,0.0,0.0,0.0,0.0,0.0,0.0,0.0,0.0,0.0,0.0,0.0,0.0,0.0,0.0,0.0,0.0,0.0,0.0,0.0,0.0,0.0,0.0,0.0,0.0,0.0,0.0,0.0,0.0,0.0,0.0,0.0,0.0,0.0,0.0,0.0,0.0,0.0,0.0,0.0,0.0,0.0,0.0,0.0,0.0,0.0,0.0,0.0,0.0,0.0,0.0,0.0,0.0,0.0,0.0,0.0,0.0,0.0,0.0,0.0,0.0,0.0,0.0,0.0,0.0,0.0,0.0,0.0,0.0,0.0,0.0,0.0,0.0,0.0,0.0,0.0,0.0,0.0,0.0,0.0,0.0,0.0,0.0,0.0,0.0,0.0,0.0,0.0,0.0,0.0,0.0,0.0,0.0,0.0,0.0,0.0,0.0,0.0,0.0,0.0,0.0,0.0,0.0,0.0,0.0,0.0,0.0,0.0,0.0,0.0,0.0,0.0,0.0,0.0,0.0,0.0,0.0,0.0,0.0,0.0,0.0,0.0,0.0,0.0,0.0,0.0,0.0,0.0,0.0,0.0,0.0,0.0,0.0,0.0,0.0,0.0,0.0,0.0,0.0,0.0,0.0,0.0,0.0,0.0,0.0,0.0,0.0,0.0,0.0,0.0,0.0,0.0,0.0,0.0,0.0,0.0,0.0,0.0,0.0,0.0,0.0,0.0,0.0,0.0,0.0,0.0,0.0,0.0,0.0,0.0,0.0,0.0,0.0,0.0,0.0,0.0,0.0,0.0,0.0,0.0,0.0,0.0,0.0,0.0,0.0,0.0,0.0,0.0,0.0,0.0,0.0,0.0,0.0,0.0,0.0,0.0,0.0,0.0,0.0,0.0,0.0,0.0,0.0,0.0,0.0,0.0,0.0,0.0,0.0,0.0,0.0,0.0,0.0,0.0,0.0,0.0,0.0,0.0,0.0,0.0,0.0,0.0,0.0,0.0,0.0,0.0,0.0,0.0,0.0,0.0,0.0,0.0,0.0,0.0,0.0,0.0,0.0,0.0,0.0,0.0,0.0,0.0,0.0,0.0,0.0,0.0,0.0,0.0,0.0,0.0,0.0,0.0,0.0,0.0,0.0,0.0,0.0,0.0,0.0,0.0,0.0,0.0,0.0,0.0,0.0,0.0,0.0,0.0,0.0,0.0,0.0,0.0,0.0,0.0,0.0,0.0,0.0,0.0,0.0,0.0,0.0,0.0,0.0,0.0,0.0,0.0,0.0,0.0,0.0,0.0,0.0,0.0,0.0,0.0,0.0,0.0,0.0,0.0,0.0,0.0,0.0,0.0,0.0,0.0,0.0,0.0,0.0,0.0,0.0,0.0,0.0,0.0,0.0,0.0,0.0,0.0,0.0,0.0,0.0,0.0,0.0,0.0,0.0,0.0,0.0,0.0,0.0,0.0,0.0,0.0,0.0,0.0,0.0,0.0,0.0,0.0,0.0,0.0,0.0,0.0,0.0,0.0,0.0,0.0,0.0,0.0,0.0,0.0,0.0,0.0,0.0,0.0,0.0,0.0,0.0,0.0,0.0,0.0,0.0,0.0,0.0,0.0,0.0,0.0,0.0,0.0,0.0,0.0,0.0,0.0,0.0,0.0,0.0,0.0,0.0,0.0,0.0,0.0,0.0,0.0,0.0,0.0,0.0,0.0,0.0,0.0,0.0,0.0,0.0,0.0,0.0,0.0,0.0,0.0,0.0,0.0,0.0,0.0,0.0,0.0,0.0,0.0,0.0,0.0,0.0,0.0,0.0,0.0,0.0,0.0,0.0,0.0,0.0,0.0,0.0,0.0,0.0,0.0,0.0,0.0,0.0,0.0,0.0,0.0,0.0,0.0,0.0,0.0,0.0,0.0,0.0,0.0,0.0,0.0,0.0,0.0,0.0,0.0,0.0,0.0,0.0,0.0,0.0,0.0,0.0,0.0,0.0,0.0,0.0,0.0,0.0,0.0,0.0,0.0,0.0,0.0,0.0,0.0,0.0,0.0,0.0,0.0,0.0,0.0,0.0,0.0,0.0,0.0,0.0,0.0,0.0,0.0,0.0,0.0,0.0,0.0,0.0,0.0,0.0,0.0,0.0,0.0,0.0,0.0,0.0,0.0,0.0,0.0,0.0,0.0,0.0,0.0,0.0,0.0,0.0,0.0,0.0,0.0,0.0,0.0,0.0,0.0,0.0,0.0,0.0,0.0,0.0,0.0,0.0,0.0,0.0,0.0,0.0,0.0,0.0,0.0,0.0,0.0,0.0,0.0,0.0,0.0,0.0,0.0,0.0,0.0,0.0,0.0,0.0,0.0,0.0,0.0,0.0,0.0,0.0,0.0,0.0,0.0,0.0,0.0,0.0,0.0,0.0,0.0,0.0,0.0,0.0,0.0,0.0,0.0,0.0,0.0,0.0,0.0,0.0,0.0,0.0,0.0,0.0,0.0,0.0,0.0,0.0,0.0,0.0,0.0,0.0,0.0,0.0,0.0,0.0,0.0,0.0,0.0,0.0,0.0,0.0,0.0,0.0,0.0]}],[{"header":{"parameterUnit":"kt","parameterCategory":2,"dx":1,"dy":1,"la1":29.587661999999998,"la2":31.0,"lo1":-88.76705300000003,"lo2":-86.6583820000003,"nx":115,"ny":88,"refTime":"2022-09-23T06:00:00:Z","depth":0,"parameterNumber":2,"parameterNumberName":"V-component_of_WINDS"},"data":[6.6769,6.7269,6.8219,6.8933,6.9438,7.1343,7.1628,7.101,7.2742,7.3324,7.2847,7.3559,7.3775,7.3688,7.2702,7.2617,7.3072,7.276,7.3129,7.3663,7.3269,7.3719,7.4108,7.4383,7.4928,7.5864,7.6877,7.7644,7.7973,7.7973,7.7973,7.7973,7.7973,7.7973,7.7973,7.7973,7.8039,7.8137,7.8236,7.8269,7.8269,7.8203,7.7973,7.7973,7.7973,7.7973,7.7973,7.7973,7.7973,7.7973,7.8137,7.8236,7.8301,7.8399,7.8463,7.8446,7.8476,7.8804,7.8966,7.9247,7.9523,7.9681,7.9909,8.019,8.0331,8.0225,8.0312,8.0579,8.0331,7.9529,7.9228,7.8225,7.8036,7.8404,7.8349,7.7345,7.6161,7.415,7.244,7.2759,7.3439,7.3212,7.2489,7.281,7.4162,7.4349,7.5393,7.5432,7.5471,7.5166,7.4716,7.4952,7.5148,7.3254,7.2228,7.3349,7.3031,7.2742,7.3112,7.4591,7.5451,7.5471,7.597,7.6954,7.7559,7.8233,7.9328,8.0556,8.1133,8.1935,8.3769,8.3697,8.1451,7.9882,7.9088,6.9061,6.9486,6.9695,6.9784,6.9966,7.0511,7.0514,7.0515,7.1145,7.1855,7.2368,7.1737,7.1414,7.1355,7.1175,7.1265,7.1385,7.1533,7.1385,7.1652,7.1652,7.2327,7.276,7.2989,7.375,7.4711,7.5706,7.6622,7.7463,7.7512,7.7463,7.7891,7.7973,7.7891,7.7973,7.7891,7.794,7.794,7.7973,7.7973,7.7891,7.7973,7.7924,7.7924,7.7973,7.7973,7.7973,7.7973,7.7973,7.7973,7.7973,7.7973,7.8022,7.8022,7.8071,7.8071,7.8135,7.8265,7.8313,7.8395,7.8554,7.8697,7.8745,7.902,7.9261,7.9275,7.9181,7.9233,7.9153,7.8839,7.8839,7.8587,7.8714,7.8908,7.8521,7.7966,7.6497,7.4887,7.3815,7.2977,7.3589,7.4092,7.3531,7.2893,7.3027,7.275,7.2908,7.2916,7.3283,7.4084,7.4314,7.4226,7.4484,7.4213,7.3406,7.31,7.2258,7.2128,7.2341,7.3323,7.4244,7.4991,7.5528,7.5796,7.6104,7.6819,7.7884,7.8956,7.9784,8.0498,8.1032,8.0484,7.8525,7.7361,7.6501,6.9271,6.9488,6.9587,6.9773,6.9988,7.0111,7.0143,7.0205,7.051,7.0814,7.1055,7.0722,7.0418,7.0418,7.0601,7.0693,7.0753,7.0813,7.0873,7.0934,7.1205,7.1385,7.1504,7.1771,7.2587,7.3243,7.4084,7.4905,7.5642,7.6041,7.6125,7.5884,7.5989,7.6197,7.6928,7.7011,7.7213,7.7842,7.794,7.7545,7.6877,7.7062,7.7213,7.7875,7.7973,7.7973,7.7973,7.7973,7.7973,7.7973,7.7973,7.7973,7.7973,7.7973,7.7973,7.7973,7.7973,7.8022,7.8071,7.8168,7.8265,7.841,7.8506,7.8649,7.8825,7.873,7.8602,7.8745,7.8649,7.8649,7.8616,7.8649,7.8745,7.864,7.8287,7.8221,7.7348,7.6006,7.5055,7.4552,7.5189,7.5491,7.4519,7.3925,7.3656,7.3455,7.2818,7.3019,7.3784,7.4558,7.4146,7.396,7.455,7.4482,7.4196,7.3388,7.2242,7.1858,7.1856,7.2565,7.3253,7.4247,7.4937,7.4852,7.5029,7.5597,7.6306,7.7308,7.8209,7.8157,7.7789,7.7306,7.6115,7.4913,7.3603,6.8724,6.8986,6.9271,6.9492,6.977,6.9803,6.9835,6.9835,7.0082,7.0052,6.9926,6.9988,7.0018,7.005,7.0234,7.0266,7.0327,7.0601,7.0813,7.0783,7.0934,7.1115,7.1055,7.1235,7.1474,7.2093,7.2733,7.3413,7.4132,7.4516,7.4516,7.4516,7.4679,7.5057,7.5759,7.5812,7.6073,7.659,7.6641,7.6281,7.5832,7.5917,7.6313,7.7112,7.7545,7.7495,7.7973,7.7973,7.7973,7.7973,7.7973,7.7973,7.7973,7.7973,7.7973,7.7973,7.7973,7.7973,7.8022,7.8022,7.8071,7.8216,7.8265,7.8443,7.8491,7.8313,7.8313,7.8458,7.8473,7.8473,7.8473,7.8473,7.8488,7.817,7.7886,7.817,7.8355,7.7268,7.6207,7.6586,7.7334,7.6798,7.5725,7.5089,7.4864,7.4461,7.3992,7.3891,7.4787,7.587,7.5669,7.587,7.6038,7.5434,7.5075,7.4346,7.2977,7.2388,7.1763,7.1822,7.2142,7.3046,7.3892,7.3831,7.3965,7.4427,7.507,7.5937,7.5787,7.524,7.4861,7.4194,7.3154,7.2498,7.0937,6.7943,6.8898,6.9015,6.8932,6.9112,6.9338,6.9433,6.9433,6.9496,6.9496,6.9525,6.9773,6.9956,6.9832,6.9926,6.9959,7.0082,7.0266,7.0449,7.0449,7.0662,7.0813,7.0873,7.0934,7.1085,7.1444,7.1948,7.2501,7.3072,7.3438,7.3886,7.4438,7.4187,7.4242,7.4493,7.4602,7.4548,7.4819,7.4679,7.4788,7.4516,7.4711,7.5143,7.6177,7.6571,7.691,7.7644,7.7973,7.7973,7.7973,7.7973,7.7973,7.7973,7.7973,7.7973,7.7973,7.7973,7.7973,7.7973,7.7973,7.7989,7.8022,7.8022,7.8168,7.8216,7.8168,7.8119,7.8135,7.8183,7.8232,7.8232,7.8232,7.8313,7.813,7.7965,7.8082,7.8163,7.7687,7.7073,7.7569,7.8218,7.8172,7.71,7.6195,7.5903,7.6295,7.6094,7.5769,7.6641,7.7983,7.8251,7.852,7.7882,7.6977,7.6507,7.5602,7.4025,7.2616,7.1685,7.1527,7.171,7.2216,7.2833,7.315,7.3393,7.3665,7.3831,7.4495,7.4667,7.3921,7.3094,7.1683,7.0587,7.0099,6.9267,6.6194,6.6717,6.7473,6.7793,6.8001,6.8762,6.9146,6.9146,6.9116,6.9146,6.9146,6.9363,6.9426,6.9426,6.9554,6.9649,6.9649,6.9959,7.0143,7.0143,7.0234,7.0479,7.054,7.0601,7.0722,7.0964,7.1444,7.1771,7.1681,7.218,7.2413,7.2471,7.2297,7.2671,7.3155,7.33,7.3015,7.2671,7.2529,7.2817,7.316,7.3413,7.4688,7.5812,7.6177,7.6877,7.7793,7.794,7.7973,7.7973,7.7973,7.7973,7.7973,7.7973,7.7973,7.7973,7.7973,7.7973,7.7973,7.7973,7.7973,7.7973,7.7973,7.7989,7.8022,7.8022,7.8022,7.7973,7.7973,7.7973,7.7973,7.7973,7.8022,7.8119,7.8071,7.8071,7.7919,7.7781,7.8074,7.8471,7.8709,7.8876,7.8474,7.7603,7.7167,7.7569,7.7558,7.7334,7.8072,7.9056,7.9325,7.9492,7.8855,7.8318,7.7916,7.7133,7.5568,7.4059,7.2641,7.1607,7.1263,7.1642,7.2023,7.243,7.2794,7.2758,7.2687,7.3288,7.384,7.3768,7.315,7.1859,7.0639,6.973,6.9426,6.4738,6.5234,6.6545,6.7069,6.7273,6.8462,6.8986,6.8986,6.8986,6.8986,6.8986,6.8986,6.9078,6.8986,6.9208,6.9305,6.943,6.9587,6.9773,6.9926,6.9988,7.0111,7.0234,7.0266,7.0449,7.0662,7.0844,7.0964,7.1024,7.1055,7.1115,7.1143,7.1806,7.1895,7.2099,7.2063,7.1622,7.1325,7.1265,7.1652,7.2065,7.221,7.3331,7.436,7.4851,7.5864,7.6826,7.7313,7.7694,7.7793,7.7973,7.7973,7.7973,7.7973,7.7973,7.7973,7.7973,7.7973,7.7973,7.7973,7.7973,7.7973,7.7973,7.7973,7.7973,7.7973,7.7973,7.7973,7.7973,7.7973,7.7973,7.7973,7.7973,7.8022,7.8022,7.8022,7.8005,7.7935,7.8303,7.8614,7.8754,7.8888,7.8854,7.8133,7.7924,7.8538,7.8818,7.8697,7.9044,7.9245,7.9492,7.9492,7.9123,7.8989,7.8687,7.8038,7.6664,7.5333,7.3656,7.2339,7.1636,7.1223,7.1309,7.1589,7.2054,7.2016,7.1932,7.2262,7.2973,7.3023,7.2924,7.187,7.0988,7.0552,7.0199,6.3719,6.5234,6.6545,6.695,6.7241,6.837,6.9015,6.9015,6.9015,6.8986,6.8986,6.8986,6.8986,6.8986,6.8986,6.9049,6.9112,6.9305,6.9488,6.9672,7.0032,7.0277,7.031,7.0461,7.0913,7.0743,7.0774,7.1403,7.1083,7.1409,7.1349,7.138,7.2065,7.1921,7.1472,7.1234,7.0962,7.0843,7.0752,7.0904,7.1085,7.1145,7.1976,7.2786,7.3413,7.4328,7.5495,7.6333,7.6845,7.7363,7.7842,7.7924,7.7973,7.7973,7.7973,7.7973,7.7973,7.7973,7.7973,7.7973,7.7973,7.7973,7.7973,7.7973,7.7973,7.7973,7.7973,7.7973,7.7973,7.7973,7.7973,7.7973,7.7973,7.7973,7.7973,7.794,7.7989,7.8135,7.8458,7.8649,7.8806,7.8853,7.8787,7.8787,7.8448,7.8874,7.8934,7.8947,7.9107,7.9354,7.9492,7.9492,7.9492,7.9492,7.9056,7.8386,7.7178,7.5994,7.4394,7.3354,7.1861,7.111,7.1575,7.1844,7.167,7.1837,7.2303,7.2451,7.245,7.2142,7.21,7.1504,7.1823,7.1401,7.0982,6.2155,6.3719,6.4992,6.613,6.7153,6.8182,6.8605,6.8669,6.8888,6.8986,6.8923,6.8923,6.8923,6.8923,6.8986,6.8986,6.8986,6.9141,6.9321,7.0464,7.0557,7.1129,7.1755,7.2231,7.1982,7.2528,7.2592,7.2473,7.2579,7.2694,7.2694,7.2516,7.2427,7.2105,7.1775,7.1268,7.1032,7.0414,7.0386,7.0357,7.0386,7.0479,7.0934,7.171,7.2208,7.2756,7.4187,7.5133,7.5768,7.6249,7.6877,7.7528,7.7628,7.7727,7.7776,7.7924,7.7973,7.7973,7.7891,7.7891,7.7793,7.7842,7.7973,7.7973,7.7973,7.7891,7.7924,7.7924,7.7973,7.7973,7.7973,7.7973,7.7973,7.7973,7.7973,7.7973,7.794,7.7989,7.8183,7.8506,7.8697,7.8697,7.8711,7.8697,7.8664,7.8839,7.8934,7.9075,7.9168,7.9341,7.9492,7.9526,7.948,7.948,7.9145,7.8642,7.777,7.6597,7.5836,7.5065,7.3531,7.1726,7.216,7.2452,7.212,7.202,7.26,7.2734,7.2464,7.21,7.1758,7.1963,7.2477,7.2161,7.1602,6.0329,6.1836,6.366,6.4945,6.5798,6.6481,6.6689,6.6782,6.6979,6.7175,6.7398,6.8072,6.8229,6.8449,6.8576,6.8986,6.9131,6.9247,6.9887,7.0999,7.1436,7.2266,7.2624,7.2777,7.3055,7.3435,7.3566,7.339,7.369,7.3497,7.3726,7.3926,7.332,7.2448,7.2172,7.1707,7.1221,7.0192,7.0018,7.0018,7.0018,7.0079,7.0327,7.1085,7.1115,7.1739,7.2897,7.3488,7.4124,7.4756,7.5164,7.6021,7.6571,7.6641,7.7011,7.7578,7.7825,7.7825,7.7776,7.7198,7.723,7.7545,7.7677,7.7628,7.7644,7.7644,7.7776,7.7776,7.7776,7.7875,7.7973,7.7973,7.7973,7.7973,7.7973,7.7973,7.794,7.794,7.7989,7.8313,7.8362,7.8362,7.8362,7.8313,7.8377,7.8521,7.8602,7.8778,7.8934,7.9168,7.9308,7.9341,7.9207,7.9274,7.9308,7.8994,7.8258,7.6452,7.5625,7.5357,7.4495,7.2935,7.2817,7.2774,7.2473,7.2206,7.2161,7.2119,7.216,7.2136,7.1787,7.1848,7.2129,7.2016,7.1864,5.8459,5.983,6.2529,6.352,6.336,6.3356,6.359,6.3865,6.3865,6.407,6.4642,6.585,6.6501,6.6792,6.7592,6.8008,6.8302,6.9524,7.0384,7.0797,7.1406,7.2505,7.2796,7.2979,7.3228,7.3223,7.356,7.3714,7.3802,7.4111,7.4478,7.4596,7.3935,7.3275,7.2667,7.1813,7.0875,7.0071,6.9894,6.9894,6.9832,6.9832,6.9803,7.0082,7.0111,7.048,7.1383,7.1913,7.2522,7.3207,7.3688,7.4407,7.5079,7.5239,7.5727,7.6706,7.7094,7.7328,7.7263,7.5945,7.5991,7.6704,7.6806,7.7067,7.7162,7.7228,7.7328,7.7528,7.7578,7.7727,7.7825,7.7973,7.7973,7.7973,7.7973,7.7973,7.7973,7.794,7.794,7.8119,7.8071,7.7973,7.7973,7.8022,7.8135,7.8265,7.8346,7.8491,7.8649,7.8839,7.8934,7.8881,7.8581,7.8528,7.8374,7.8708,7.8066,7.6173,7.4887,7.4485,7.3723,7.3095,7.2977,7.2994,7.2654,7.2169,7.1856,7.1534,7.1584,7.1594,7.1477,7.1555,7.1628,7.1705,7.1787,5.9249,6.0645,6.1517,6.1541,6.1223,6.2381,6.2967,6.3036,6.3148,6.3425,6.359,6.3975,6.4316,6.4547,6.5182,6.5545,6.6178,6.7328,6.8414,6.9627,7.099,7.2505,7.3203,7.3494,7.3465,7.5075,7.4881,7.4132,7.4179,7.5251,7.4705,7.4033,7.3966,7.3499,7.265,7.1647,7.0487,6.9622,6.933,6.933,6.93,6.93,6.9334,6.9334,6.9363,6.9679,7.002,7.0693,7.1264,7.1708,7.2321,7.3067,7.3488,7.3824,7.4077,7.4679,7.5218,7.5431,7.4793,7.4104,7.4357,7.4964,7.5331,7.6083,7.6852,7.7177,7.6964,7.7147,7.7396,7.7578,7.766,7.7875,7.7924,7.7973,7.7973,7.7973,7.7973,7.7973,7.7973,7.7973,7.7973,7.7973,7.7973,7.8022,7.8038,7.8119,7.8201,7.8313,7.844,7.8388,7.8517,7.8318,7.7919,7.7615,7.7342,7.7069,7.6639,7.4914,7.4341,7.3848,7.3489,7.3153,7.2927,7.2876,7.2624,7.2167,7.1818,7.1466,7.1257,7.1109,7.1235,7.1393,7.1472,7.1589,7.1671,5.8564,5.9673,5.8869,5.8545,5.8674,5.9728,6.0227,6.035,6.1003,6.1327,6.147,6.2223,6.2574,6.2854,6.3175,6.3701,6.3961,6.5596,6.7089,6.8542,7.0057,7.1942,7.297,7.3348,7.3368,7.4395,7.4308,7.3901,7.3978,7.4929,7.3872,7.27,7.3066,7.2825,7.2301,7.1196,7.0271,6.9427,6.9015,6.9015,6.8986,6.8986,6.8986,6.8986,6.8986,6.8986,6.9112,6.9803,6.9988,7.0327,7.0814,7.1502,7.203,7.2147,7.261,7.3351,7.399,7.4101,7.3525,7.2299,7.1521,7.22,7.2923,7.3942,7.5669,7.5363,7.5608,7.6455,7.6639,7.6839,7.72,7.7677,7.776,7.7891,7.7973,7.7973,7.7973,7.7973,7.7973,7.7973,7.7973,7.7891,7.7891,7.7891,7.7891,7.7973,7.8071,7.8183,7.7952,7.7884,7.7917,7.7752,7.7091,7.6675,7.6731,7.5954,7.5115,7.4492,7.3896,7.3504,7.3153,7.2885,7.265,7.2658,7.2465,7.1902,7.1514,7.1292,7.1124,7.0874,7.0921,7.1122,7.1314,7.1433,7.155,5.6739,5.7544,5.5566,5.5298,5.6177,5.6031,5.6202,5.659,5.7426,5.8017,5.8532,5.9903,6.0671,6.121,6.1967,6.2618,6.295,6.4802,6.5803,6.7266,6.9245,7.0268,7.0943,7.1338,7.1693,7.2173,7.2212,7.2125,7.2519,7.2795,7.1327,6.9637,7.1142,7.1377,7.1051,7.0556,6.9858,6.9277,6.8986,6.8986,6.8986,6.8986,6.8986,6.8986,6.8986,6.8986,6.8986,6.9112,6.9238,6.9238,6.9521,6.9897,7.0513,7.0395,7.0634,7.1247,7.1873,7.1653,7.1115,6.9532,6.8155,6.7886,6.8934,7.1201,7.3133,7.2479,7.3451,7.5282,7.4535,7.5115,7.6473,7.728,7.7034,7.72,7.7545,7.7644,7.7842,7.7793,7.7595,7.7842,7.7842,7.7743,7.7694,7.7446,7.7396,7.7891,7.8071,7.8071,7.7774,7.7328,7.7313,7.6687,7.5981,7.5581,7.5703,7.4829,7.3406,7.2659,7.2506,7.2465,7.2482,7.2482,7.2214,7.2113,7.1811,7.1476,7.1074,7.0954,7.0827,7.0604,7.057,7.0767,7.0962,7.1162,7.132,5.5201,5.5397,5.486,5.4762,5.5006,5.5031,5.5031,5.5055,5.5397,5.5566,5.5905,5.6931,5.8039,5.8758,5.942,5.9779,5.9836,6.1592,6.2529,6.3333,6.4731,6.6287,6.7222,6.7152,6.7568,6.8967,6.9322,6.9169,6.8915,6.8507,6.8042,6.7504,6.8925,6.9443,6.9451,6.9567,6.9538,6.8986,6.8986,6.8986,6.8986,6.8986,6.8986,6.8986,6.8986,6.8986,6.8986,6.8986,6.8986,6.8986,6.8986,6.9054,6.9166,6.8765,6.8659,6.8605,6.8832,6.8529,6.7673,6.7009,6.5947,6.5977,6.699,6.8417,6.9981,7.0828,7.1613,7.2439,7.192,7.3138,7.4537,7.42,7.505,7.6137,7.6845,7.7363,7.7545,7.6877,7.6539,7.6978,7.7363,7.7363,7.6978,7.6859,7.7112,7.7694,7.7973,7.7973,7.7446,7.6788,7.6163,7.4979,7.4123,7.3215,7.2969,7.2289,7.1481,7.0765,7.0959,7.1092,7.1267,7.1334,7.1502,7.1301,7.0932,7.0764,7.0831,7.0664,7.053,7.053,7.053,7.0604,7.0685,7.0881,7.1082,5.3341,5.433,5.3454,5.3378,5.3908,5.3932,5.3932,5.403,5.4421,5.464,5.4762,5.5252,5.586,5.6397,5.669,5.6837,5.7104,5.8062,5.8845,5.9822,6.0816,6.2066,6.3107,6.3487,6.3772,6.5215,6.5834,6.5681,6.3935,6.3379,6.4057,6.4845,6.6267,6.7268,6.7893,6.8634,6.8859,6.8923,6.8986,6.8986,6.8986,6.8986,6.8986,6.8986,6.8986,6.8986,6.8986,6.8986,6.8986,6.8986,6.8986,6.8782,6.8084,6.7502,6.6749,6.6371,6.6151,6.5827,6.5239,6.5151,6.4763,6.4716,6.5256,6.5927,6.6279,6.7152,6.8107,6.9703,6.9405,7.0045,7.1466,7.1878,7.3153,7.4094,7.4666,7.5439,7.6197,7.5674,7.5674,7.6281,7.6724,7.6177,7.5727,7.5505,7.5494,7.6307,7.6881,7.6904,7.6547,7.5778,7.4614,7.3449,7.2368,7.1155,7.0589,7.0472,7.0,6.9841,7.0039,7.0375,7.0399,7.0489,7.0764,7.0697,7.0556,7.0556,7.0563,7.053,7.053,7.053,7.053,7.057,7.0604,7.0767,7.0881,5.1555,5.3395,5.1635,5.1598,5.2648,5.279,5.2766,5.2887,5.3737,5.425,5.3981,5.4347,5.4445,5.464,5.4665,5.4738,5.4904,5.5524,5.6303,5.7115,5.7702,5.8614,5.9648,6.0687,6.0894,6.1064,6.214,6.0389,5.8998,5.9567,6.0525,6.1984,6.3478,6.492,6.5827,6.7263,6.8548,6.8605,6.8825,6.8952,6.8923,6.9015,6.9015,6.8986,6.8986,6.8986,6.8986,6.8986,6.8986,6.8986,6.8986,6.8433,6.7564,6.7215,6.6371,6.5525,6.5029,6.5058,6.5089,6.48,6.4275,6.3834,6.3872,6.3754,6.3754,6.4182,6.5418,6.7878,6.7036,6.7288,6.9011,6.9673,7.0495,7.1381,7.2457,7.3583,7.4547,7.3971,7.4661,7.5122,7.3062,7.3043,7.3814,7.3786,7.3928,7.4963,7.572,7.5697,7.5301,7.4165,7.2996,7.209,7.1072,6.9778,6.9093,6.9499,6.9269,6.9112,6.9471,6.9898,6.9949,7.0075,7.0241,7.0365,7.044,7.0399,7.044,7.0481,7.0522,7.0563,7.053,7.053,7.053,7.0604,7.0678,5.0307,5.1031,5.0669,5.0621,5.0925,5.1269,5.1428,5.1404,5.201,5.22,5.2268,5.2956,5.3371,5.3566,5.4103,5.4567,5.464,5.4589,5.4773,5.519,5.5539,5.5778,5.6339,5.6711,5.7108,5.7359,5.8191,5.7797,5.6018,5.6174,5.7343,5.8775,6.01,6.1405,6.309,6.5161,6.6077,6.6782,6.7621,6.8478,6.8576,6.8796,6.8986,6.8986,6.8986,6.8952,6.8888,6.8859,6.8923,6.8923,6.8893,6.884,6.8462,6.759,6.6334,6.499,6.4641,6.485,6.4853,6.4565,6.4216,6.3663,6.2612,6.2082,6.1839,6.2292,6.2753,6.3846,6.3988,6.4752,6.638,6.6151,6.6888,6.8613,7.0005,7.0931,7.1782,7.2289,7.2717,7.1744,6.9457,6.9405,7.0682,7.0954,7.1416,7.2362,7.3005,7.3066,7.3096,7.2059,7.0859,7.0204,6.9562,6.8252,6.8042,6.8468,6.8267,6.8089,6.8495,6.8849,6.9145,6.9567,6.9737,6.9864,6.994,6.9864,7.0266,7.0383,7.0432,7.0481,7.0489,7.053,7.053,7.0604,7.0604,4.9705,5.007,5.007,5.0138,5.0365,5.0569,5.066,5.066,5.0839,5.1041,5.1345,5.1777,5.2137,5.2419,5.2932,5.3147,5.3098,5.3147,5.3078,5.3172,5.331,5.3423,5.3554,5.4195,5.4274,5.4383,5.446,5.421,5.3467,5.3609,5.451,5.5872,5.7373,5.8697,6.0245,6.2431,6.3618,6.412,6.5107,6.5906,6.5906,6.6942,6.7843,6.8165,6.8385,6.8478,6.8449,6.8449,6.8478,6.8542,6.864,6.8258,6.779,6.7323,6.7087,6.6688,6.6544,6.6639,6.6772,6.6485,6.5467,6.4943,6.3925,6.2937,6.2239,6.1629,6.1655,6.2176,6.2237,6.2783,6.4109,6.3889,6.435,6.5994,6.7045,6.8078,6.9002,6.8945,6.9123,6.9,6.7321,6.6925,6.7917,6.8473,6.8917,6.9489,7.0093,7.0415,7.0609,6.9355,6.7839,6.7579,6.7575,6.6784,6.696,6.7056,6.6866,6.696,6.721,6.7521,6.7888,6.8628,6.897,6.8926,6.9091,6.897,6.9308,6.9728,7.0141,7.0432,7.0399,7.0406,7.0448,7.053,7.053,4.9316,4.9637,4.9613,4.9842,5.0138,5.023,5.023,5.0274,5.0365,5.0501,5.0796,5.0887,5.107,5.1315,5.1401,5.1425,5.1669,5.1877,5.1754,5.1754,5.1779,5.1846,5.2017,5.2673,5.2874,5.2561,5.2305,5.2023,5.184,5.1777,5.2667,5.3499,5.5018,5.6079,5.7569,5.9589,6.0979,6.1485,6.266,6.3526,6.3921,6.4873,6.6,6.7296,6.7333,6.7556,6.775,6.7908,6.7843,6.7908,6.8165,6.744,6.6561,6.6641,6.7054,6.7215,6.7106,6.6938,6.7486,6.7727,6.7179,6.6453,6.4971,6.3983,6.2936,6.2094,6.1746,6.1628,6.1366,6.1308,6.1281,6.2616,6.311,6.3227,6.4188,6.5503,6.6194,6.5906,6.5267,6.5498,6.5151,6.4683,6.5256,6.5799,6.6387,6.7099,6.7458,6.7636,6.794,6.6912,6.5637,6.5582,6.5633,6.567,6.5768,6.5638,6.5539,6.5576,6.5822,6.6114,6.6596,6.7428,6.7645,6.7148,6.7101,6.7645,6.8315,6.8838,6.9145,6.9232,6.9704,7.02,7.0283,7.0324,7.0365,4.9271,4.9271,4.9271,4.9271,4.9408,4.9684,4.9776,4.9889,5.0206,5.0281,5.0433,5.0433,5.0597,5.0636,5.0863,5.0998,5.1132,5.1242,5.151,5.1486,5.1486,5.1486,5.1535,5.1706,5.1877,5.1754,5.1583,5.151,5.1486,5.1601,5.1791,5.2054,5.3147,5.3914,5.438,5.6311,5.8097,5.8905,6.0262,6.1382,6.2236,6.3057,6.4166,6.5395,6.585,6.6585,6.7296,6.7714,6.7843,6.7843,6.7879,6.6964,6.562,6.4967,6.4909,6.6337,6.5434,6.5678,6.637,6.5276,6.4121,6.3514,6.343,6.2879,6.2239,6.2095,6.1892,6.1515,6.1166,6.1166,6.1339,6.2269,6.2414,6.2094,6.2704,6.346,6.3574,6.2699,6.2324,6.2208,6.2586,6.2789,6.3076,6.3598,6.4089,6.4579,6.4693,6.4921,6.5189,6.487,6.4409,6.4179,6.4186,6.4233,6.4233,6.4151,6.4026,6.4151,6.4429,6.4654,6.5008,6.5656,6.5951,6.549,6.5607,6.6211,6.6881,6.7567,6.7842,6.7797,6.8295,6.9156,6.9671,7.0041,7.0324,4.7056,4.7451,4.7402,4.7402,4.7473,4.7639,4.8233,4.8991,4.9273,4.9857,5.067,5.0832,5.0638,5.0389,5.0525,5.066,5.0704,5.0974,5.1309,5.151,5.1486,5.1486,5.1486,5.1486,5.1486,5.151,5.1486,5.1486,5.1486,5.1486,5.1486,5.1583,5.195,5.2316,5.2593,5.405,5.5215,5.5992,5.7046,5.7927,5.868,5.9871,6.1284,6.1891,6.3962,6.5305,6.6067,6.6782,6.7231,6.6789,6.5376,6.4108,6.3955,6.3719,6.3944,6.4619,6.4011,6.4428,6.4792,6.4138,6.339,6.3622,6.2962,6.2386,6.2098,6.1578,6.1463,6.1171,6.1054,6.1139,6.1281,6.1949,6.1891,6.1455,6.1804,6.2094,6.2093,6.1629,6.1223,6.1223,6.1223,6.1364,6.1478,6.2088,6.2606,6.2924,6.3037,6.3122,6.3333,6.3642,6.3104,6.3143,6.3053,6.3006,6.2976,6.2976,6.2976,6.3267,6.3607,6.3786,6.3943,6.4151,6.4409,6.4511,6.4634,6.5159,6.5526,6.6308,6.6834,6.6881,6.7256,6.8115,6.8817,6.9415,6.9831,4.5571,4.6153,4.6174,4.6099,4.6132,4.6099,4.7015,4.8386,4.8386,4.9444,5.0863,5.1145,5.0837,5.0426,5.0566,5.042,5.0321,5.0636,5.0906,5.1218,5.1309,5.1376,5.1376,5.1376,5.1443,5.1486,5.1486,5.1486,5.1486,5.1486,5.1486,5.1486,5.1608,5.151,5.1657,5.2575,5.283,5.3221,5.3999,5.4703,5.5474,5.6924,5.7746,5.82,6.1205,6.3117,6.384,6.4686,6.5331,6.4828,6.2864,6.1737,6.2473,6.2409,6.2565,6.2979,6.3039,6.2986,6.3403,6.3206,6.3149,6.2834,6.2349,6.2091,6.1892,6.1232,6.1061,6.0771,6.0884,6.12,6.166,6.1687,6.1629,6.1368,6.131,6.1339,6.1224,6.1166,6.1223,6.1223,6.1223,6.1223,6.1223,6.1424,6.1395,6.1252,6.1422,6.1478,6.1845,6.2266,6.2454,6.2787,6.279,6.3006,6.2976,6.2976,6.2976,6.319,6.3213,6.332,6.3267,6.3426,6.3637,6.3712,6.3817,6.3943,6.4275,6.4958,6.5328,6.5822,6.6211,6.7116,6.7979,6.8761,6.9318,4.6812,4.6896,4.6896,4.6896,4.6743,4.6875,4.7179,4.8098,4.8098,4.9118,5.0386,5.0721,5.0625,5.0722,5.0793,5.0719,4.9984,5.042,5.0553,5.0689,5.0796,5.0906,5.093,5.0906,5.12,5.1443,5.1486,5.1486,5.1486,5.1486,5.1486,5.1486,5.1486,5.1486,5.1583,5.1657,5.2219,5.2854,5.3172,5.3542,5.4317,5.485,5.533,5.5715,5.8189,5.9822,6.0716,6.0834,6.0627,6.1761,6.0354,6.0008,6.0858,6.029,6.0522,6.1379,6.0864,6.0782,6.1618,6.1165,6.0539,6.0766,6.16,6.1776,6.103,6.1259,6.129,6.0772,6.0828,6.1318,6.2241,6.2763,6.2182,6.1342,6.1195,6.1139,6.0997,6.111,6.1223,6.1223,6.1223,6.1223,6.1223,6.1223,6.1223,6.1223,6.1223,6.142,6.1728,6.1865,6.2057,6.2465,6.279,6.2976,6.2976,6.2976,6.2976,6.2976,6.2976,6.2976,6.2976,6.2976,6.2976,6.303,6.332,6.3479,6.3449,6.3396,6.3554,6.4151,6.5259,6.6194,6.7148,6.8102,6.9265,4.4255,4.4788,4.5029,4.5109,4.5109,4.5109,4.5826,4.6888,4.7079,4.8003,4.9224,4.9526,4.9764,5.0202,5.0399,5.0656,5.1121,5.0979,5.0927,5.0878,5.0676,5.0529,5.0389,5.0501,5.0796,5.1132,5.1175,5.1242,5.1419,5.1486,5.1486,5.1486,5.1486,5.1486,5.1486,5.151,5.1779,5.2072,5.2194,5.2273,5.2879,5.3371,5.3615,5.4118,5.528,5.7025,5.8474,5.8913,5.8166,5.6878,5.6364,5.6528,5.7597,5.732,5.7834,5.9179,5.8753,5.8999,6.0011,6.002,5.968,5.9793,6.0106,6.0251,6.0196,6.031,6.0653,6.0314,6.0257,6.0687,6.1406,6.1607,6.1319,6.0915,6.0629,6.06,6.0855,6.1083,6.1223,6.1223,6.1223,6.1223,6.1223,6.1223,6.1223,6.1223,6.1223,6.142,6.1643,6.1643,6.178,6.2356,6.2761,6.2922,6.2976,6.2976,6.2976,6.2976,6.2976,6.2976,6.2976,6.2976,6.2976,6.2976,6.2976,6.303,6.3137,6.3137,6.316,6.3554,6.4306,6.539,6.6675,6.7783,6.9058,4.2638,4.3243,4.368,4.3911,4.3911,4.3995,4.4899,4.6111,4.6253,4.7254,4.8371,4.8571,4.8986,4.9487,4.9975,5.0669,5.1274,5.1493,5.1617,5.1475,5.1047,5.0717,5.0531,5.0595,5.0744,5.0728,5.0796,5.093,5.1175,5.1242,5.1334,5.1376,5.1443,5.1486,5.1486,5.1486,5.1486,5.1486,5.151,5.1559,5.1706,5.2365,5.2659,5.2781,5.3734,5.4705,5.5464,5.6778,5.5982,5.3237,5.323,5.4017,5.5525,5.6059,5.6764,5.7724,5.797,5.8567,5.9358,5.9505,5.9505,5.9505,5.9648,5.9505,5.9505,5.9505,5.9622,5.9796,5.9854,6.0056,6.0372,6.0544,6.0515,6.0429,6.0171,6.0142,6.06,6.0997,6.1223,6.1223,6.1223,6.1223,6.1223,6.1223,6.1223,6.1223,6.1223,6.1335,6.1476,6.1447,6.1614,6.2247,6.2707,6.2868,6.2976,6.2976,6.2976,6.2976,6.2976,6.2976,6.2976,6.2976,6.2976,6.2976,6.2976,6.2976,6.2976,6.2976,6.3343,6.3577,6.4481,6.5508,6.6675,6.7447,6.8686,4.3494,4.3549,4.4062,4.4177,4.4262,4.4517,4.5173,4.5947,4.6049,4.6858,4.8179,4.8221,4.8434,4.9002,5.002,5.0497,5.0302,5.1333,5.2045,5.1945,5.1736,5.1547,5.1312,5.0835,5.0511,5.0307,5.0253,5.0365,5.0569,5.0796,5.093,5.0998,5.1334,5.151,5.1419,5.1486,5.1486,5.1486,5.1486,5.1486,5.151,5.1657,5.1657,5.173,5.2634,5.2874,5.2606,5.3345,5.3086,5.2016,5.2799,5.3786,5.5222,5.6675,5.6947,5.7339,5.8685,5.9067,5.936,5.9447,5.9447,5.9302,5.936,5.9505,5.9505,5.9505,5.9535,5.9796,5.9796,5.9998,6.0286,6.0343,6.0372,6.0343,5.9912,5.9854,6.0401,6.0913,6.1166,6.1223,6.1223,6.1223,6.1223,6.1223,6.1223,6.1223,6.1223,6.1223,6.1279,6.1391,6.1558,6.2027,6.2628,6.279,6.2898,6.2898,6.2922,6.2922,6.2922,6.2922,6.2976,6.2976,6.2976,6.2976,6.2976,6.2976,6.2976,6.303,6.3213,6.3505,6.4436,6.5857,6.6705,6.7254,6.8214,4.3193,4.3211,4.3622,4.388,4.388,4.3947,4.4376,4.487,4.4935,4.5481,4.6127,4.6293,4.6871,4.7917,4.8671,4.9348,5.0097,5.1157,5.14,5.095,5.0354,4.9926,4.9871,4.9089,4.8782,4.9149,4.8789,4.9133,5.0274,5.0501,5.0501,5.0593,5.0998,5.1132,5.12,5.1376,5.1486,5.1486,5.1486,5.1486,5.1486,5.1486,5.1486,5.1535,5.1877,5.1852,5.1608,5.1852,5.1877,5.1717,5.1927,5.2406,5.293,5.3554,5.4516,5.5784,5.671,5.7346,5.8269,5.8949,5.9185,5.8567,5.9008,5.9447,5.9505,5.9505,5.9477,5.9622,5.9622,5.968,5.9796,5.9854,5.9854,5.9825,5.9593,5.9593,5.9854,6.0657,6.111,6.0997,6.0997,6.1083,6.1166,6.1223,6.1223,6.1223,6.1223,6.1223,6.1223,6.1223,6.1476,6.1865,6.2331,6.2574,6.2682,6.279,6.2761,6.2815,6.2868,6.2922,6.2976,6.2976,6.2976,6.2976,6.2707,6.2677,6.2378,6.258,6.2665,6.3225,6.3696,6.4871,6.5833,6.6549,6.7252,4.2693,4.2779,4.3211,4.3365,4.3365,4.3432,4.369,4.4051,4.407,4.4222,4.4478,4.4649,4.5394,4.6536,4.7371,4.8243,4.9332,4.9695,4.9754,4.9408,4.9209,4.9254,4.8983,4.8043,4.7973,4.8442,4.7567,4.7596,4.8397,4.8605,4.9041,4.9432,4.9774,5.023,5.0728,5.0974,5.1175,5.1175,5.1175,5.1242,5.1309,5.1334,5.1376,5.151,5.1486,5.1486,5.1486,5.1486,5.1486,5.151,5.1486,5.1486,5.1619,5.1861,5.2995,5.4591,5.5133,5.5909,5.6859,5.7675,5.7675,5.7312,5.8122,5.8804,5.8891,5.9185,5.9505,5.9505,5.9505,5.9505,5.9505,5.9505,5.9505,5.9505,5.9505,5.9505,5.9622,6.0229,6.0714,6.0714,6.0799,6.0855,6.1054,6.1223,6.1223,6.1223,6.1223,6.1223,6.1223,6.1223,6.1364,6.1728,6.1946,6.2247,6.244,6.2495,6.2574,6.2682,6.2815,6.2922,6.2976,6.2976,6.2976,6.2856,6.2467,6.2168,6.1809,6.1727,6.181,6.2176,6.2484,6.3437,6.4602,6.5368,6.598,4.2156,4.226,4.2693,4.2952,4.2952,4.3297,4.3537,4.3537,4.3537,4.3622,4.3776,4.4051,4.4393,4.4819,4.6368,4.7455,4.7435,4.7168,4.7168,4.7601,4.8902,4.9492,4.945,4.8451,4.807,4.8034,4.667,4.5645,4.5352,4.5668,4.6386,4.7399,4.8027,4.8973,5.0365,5.0433,5.0433,5.0433,5.0501,5.066,5.0863,5.0998,5.12,5.1486,5.1486,5.1486,5.1486,5.1486,5.1486,5.1486,5.1486,5.1486,5.1686,5.2496,5.3334,5.3747,5.4654,5.5285,5.5473,5.5597,5.582,5.5633,5.6737,5.7494,5.7675,5.8507,5.9126,5.9185,5.9302,5.9447,5.9447,5.9505,5.9505,5.9505,5.9505,5.9505,5.9563,5.9738,6.0027,6.0401,6.0657,6.0828,6.0912,6.1054,6.1252,6.1223,6.1223,6.1223,6.1223,6.1223,6.1364,6.1672,6.181,6.1946,6.2057,6.2251,6.2386,6.2574,6.2707,6.2868,6.2922,6.2976,6.2976,6.2916,6.2527,6.2108,6.1809,6.1383,6.1418,6.1442,6.1148,6.1623,6.2724,6.3802,6.4517,4.2156,4.2173,4.2329,4.2433,4.2433,4.2589,4.2866,4.3125,4.3125,4.3279,4.3537,4.3708,4.3794,4.3947,4.4545,4.4866,4.4847,4.4677,4.4696,4.4951,4.5798,4.62,4.6141,4.6074,4.5828,4.5381,4.5669,4.5806,4.555,4.5581,4.6115,4.7,4.7469,4.8397,4.9774,5.0206,5.0389,5.0433,5.066,5.0796,5.0955,5.1175,5.1376,5.151,5.1486,5.1486,5.1486,5.1486,5.1486,5.1486,5.1486,5.1486,5.1486,5.1952,5.2472,5.3334,5.3825,5.4081,5.4145,5.4881,5.5033,5.4273,5.5285,5.6094,5.6094,5.6464,5.7252,5.7943,5.821,5.8626,5.9185,5.9447,5.9505,5.9505,5.9505,5.9505,5.9505,5.9505,5.968,5.9854,6.0257,6.06,6.0828,6.1054,6.1166,6.1223,6.1223,6.1223,6.1223,6.1223,6.1308,6.1393,6.1476,6.1587,6.1895,6.2005,6.2086,6.2386,6.2574,6.2761,6.2868,6.2976,6.2976,6.2916,6.2647,6.2228,6.1809,6.136,6.1298,6.142,6.1033,6.0738,6.1722,6.2401,6.2936,4.132,4.1387,4.132,4.132,4.1337,4.1622,4.2004,4.2279,4.2567,4.2866,4.302,4.3279,4.3365,4.326,4.2883,4.2901,4.326,4.3383,4.3451,4.3622,4.407,4.4326,4.4412,4.4715,4.4582,4.4294,4.4841,4.5091,4.4744,4.4699,4.5187,4.5961,4.6108,4.7135,4.881,4.9113,4.9408,4.9842,5.0138,5.0433,5.0728,5.0974,5.1084,5.1108,5.1108,5.1108,5.1108,5.1108,5.1175,5.1309,5.1175,5.1242,5.1419,5.1376,5.1752,5.2628,5.2734,5.2734,5.2865,5.3528,5.3618,5.293,5.3979,5.4717,5.4818,5.5597,5.6526,5.7433,5.7883,5.7883,5.8214,5.8035,5.8062,5.8095,5.842,5.8539,5.8301,5.8921,5.9505,5.9563,5.9854,6.0286,6.06,6.0941,6.111,6.1223,6.1223,6.1223,6.1223,6.1223,6.1223,6.1223,6.1223,6.1393,6.1757,6.1784,6.195,6.2251,6.2495,6.2653,6.2868,6.2976,6.2976,6.2916,6.2228,6.1869,6.2168,6.16,6.0197,6.0311,6.018,6.0271,6.1691,6.1222,6.1552,3.9808,3.9843,3.9808,3.9997,3.9961,4.0692,4.0977,4.103,4.1761,4.2013,4.2115,4.2495,4.2807,4.2613,4.1534,4.1659,4.2649,4.2717,4.287,4.3194,4.3743,4.4091,4.4214,4.4621,4.4715,4.4496,4.4035,4.345,4.2762,4.2743,4.3383,4.4766,4.4254,4.5267,4.7577,4.7514,4.7654,4.8927,4.9271,4.9637,5.023,5.023,5.0206,5.0365,5.0365,5.0433,5.0365,5.0389,5.0593,5.0863,5.0636,5.0771,5.1376,5.1175,5.12,5.151,5.1577,5.1552,5.1552,5.1686,5.1686,5.1752,5.2759,5.336,5.3464,5.5248,5.6553,5.7279,5.809,5.7915,5.6156,5.5882,5.5758,5.5758,5.6798,5.6859,5.5784,5.7975,5.9302,5.9505,5.9563,5.9854,6.0343,6.0686,6.0941,6.111,6.1223,6.1223,6.1223,6.1223,6.1223,6.1223,6.1223,6.1335,6.1672,6.1784,6.2031,6.2276,6.244,6.2653,6.2868,6.2976,6.2976,6.2796,6.2228,6.2049,6.2258,6.1652,6.0386,5.9638,5.9627,6.0084,6.1637,6.0581,6.1157,3.9051,3.9051,3.9626,3.989,3.9907,4.0121,4.021,4.0246,4.0424,4.0531,4.0531,4.0614,4.0715,4.0662,4.0317,4.03,4.068,4.0715,4.0781,4.0946,4.1379,4.1791,4.2102,4.2494,4.284,4.3167,4.2996,4.2787,4.2597,4.264,4.2974,4.3834,4.4307,4.5205,4.6494,4.746,4.7693,4.7607,4.8904,4.9682,4.9705,4.8835,4.8904,5.023,5.0389,5.0389,5.0389,5.0389,5.0501,5.0863,5.0796,5.0998,5.1486,5.1443,5.1376,5.1486,5.1486,5.1486,5.1486,5.1486,5.1486,5.1552,5.1794,5.206,5.2192,5.2693,5.3554,5.4553,5.5784,5.6341,5.5473,5.541,5.541,5.5473,5.6675,5.692,5.5784,5.7795,5.9419,5.9505,5.936,5.9593,5.9969,6.04,6.0799,6.0968,6.111,6.1223,6.1223,6.1223,6.1223,6.1223,6.1223,6.1279,6.1364,6.1617,6.1784,6.2086,6.2386,6.252,6.244,6.2815,6.2946,6.2761,6.2683,6.2587,6.2677,6.2677,6.1922,6.0887,6.042,6.0727,6.1921,6.2344,6.2902,3.7431,3.7223,3.7643,3.8046,3.8518,3.9122,3.9408,3.9462,3.9665,3.989,3.9818,3.9177,3.9025,3.9345,3.9328,3.9587,3.9872,3.989,3.989,3.989,4.0398,4.0706,4.1031,4.1318,4.1821,4.2162,4.2261,4.2361,4.254,4.264,4.2753,4.3175,4.3272,4.3892,4.4925,4.555,4.5884,4.6036,4.7096,4.7701,4.7562,4.6767,4.6907,4.7911,4.8073,4.8281,4.8835,4.8904,4.9477,5.0569,5.0501,5.0747,5.151,5.1401,5.1376,5.1486,5.1486,5.1486,5.1486,5.1486,5.1486,5.1486,5.1486,5.1486,5.1486,5.1993,5.239,5.2734,5.3334,5.3786,5.3786,5.3786,5.3812,5.3979,5.5033,5.5784,5.541,5.6859,5.8361,5.9215,5.8539,5.8035,5.8921,5.9507,6.0143,6.0941,6.111,6.1223,6.1223,6.1223,6.1223,6.1223,6.1223,6.1279,6.1449,6.1561,6.1699,6.195,6.2141,6.2276,6.2251,6.2549,6.2653,6.2628,6.2647,6.2725,6.2976,6.2916,6.2826,6.2304,6.1662,6.1751,6.2915,6.3125,6.4315,3.5606,3.5042,3.515,3.5458,3.6393,3.7708,3.8307,3.8395,3.9193,3.9495,3.9138,3.7926,3.7749,3.8412,3.8466,3.8821,3.9569,3.9658,3.9622,3.9604,4.0163,4.0325,4.0334,4.0675,4.1096,4.1423,4.1405,4.1626,4.2081,4.2138,4.2313,4.2332,4.1762,4.2065,4.316,4.2873,4.3201,4.4481,4.4315,4.4388,4.446,4.446,4.4553,4.4698,4.4914,4.5538,4.6956,4.7003,4.8097,5.0002,5.0002,5.0342,5.1309,5.12,5.1108,5.151,5.1486,5.1486,5.1486,5.1486,5.1486,5.1486,5.1486,5.1486,5.1552,5.2496,5.2668,5.1819,5.1552,5.1686,5.1486,5.1619,5.1752,5.1927,5.2995,5.385,5.4781,5.5347,5.6438,5.8949,5.7466,5.643,5.8122,5.8657,5.9362,6.0941,6.1166,6.1223,6.1223,6.1223,6.1223,6.1223,6.1223,6.1364,6.1561,6.1449,6.1532,6.1921,6.195,6.1895,6.2031,6.2141,6.2276,6.2495,6.2574,6.279,6.2922,6.2976,6.2946,6.27,6.273,6.2903,6.2927,6.3123,6.4317,3.4932,3.4819,3.4921,3.5067,3.5319,3.5722,3.579,3.5885,3.6764,3.6755,3.6071,3.5767,3.6029,3.6827,3.6844,3.7305,3.7958,3.8054,3.8054,3.8036,3.8132,3.8384,3.8617,3.8713,3.9024,3.9374,3.9374,3.9643,4.0106,4.0182,4.058,4.1475,4.2028,4.2091,4.1716,4.2715,4.3164,4.2772,4.1717,4.1643,4.2879,4.2952,4.3464,4.4698,4.573,4.651,4.6885,4.8027,4.9041,4.9842,5.007,5.0433,5.1022,5.1267,5.1443,5.151,5.1486,5.1486,5.1486,5.1486,5.1486,5.1486,5.1486,5.1486,5.151,5.1486,5.1401,5.1108,5.1303,5.1437,5.1388,5.1437,5.1486,5.1552,5.2693,5.3064,5.2839,5.5248,5.7008,5.6526,5.7735,5.8511,5.9243,5.9477,5.9739,6.0572,6.111,6.1223,6.1223,6.1223,6.1223,6.1223,6.1223,6.1223,6.1308,6.1279,6.1279,6.1364,6.1672,6.1728,6.1699,6.2112,6.244,6.2386,6.2574,6.2868,6.2976,6.2976,6.2976,6.303,6.3083,6.3083,6.319,6.4072,6.5707,3.2556,3.2296,3.214,3.2665,3.3537,3.3537,3.4107,3.4972,3.5162,3.491,3.4517,3.4831,3.5302,3.571,3.571,3.5927,3.6377,3.6765,3.7014,3.7014,3.7365,3.7614,3.7863,3.7768,3.8093,3.8399,3.8399,3.8629,3.9087,3.9087,3.9462,4.0064,4.0824,4.0999,4.0718,4.1503,4.1705,4.129,4.0486,4.0219,4.0628,4.0702,4.1016,4.1624,4.2386,4.3212,4.4098,4.5088,4.6205,4.7398,4.791,4.8554,4.9171,4.9588,4.9873,4.9979,4.9979,4.9955,4.9979,4.9979,4.9979,4.9873,5.009,5.0187,5.0028,4.9808,4.9678,4.9678,4.9849,4.9979,4.9979,4.9979,4.9979,4.9955,5.0552,5.0769,5.0408,5.2114,5.3845,5.5173,5.5245,5.5568,5.69,5.7076,5.7647,5.945,5.9942,6.0515,6.1139,6.0257,5.9653,6.0171,6.0343,6.0543,6.111,6.1223,6.1308,6.1505,6.1702,6.1757,6.181,6.2002,6.2386,6.2386,6.2604,6.2815,6.2976,6.2976,6.2976,6.303,6.3267,6.3659,6.3839,6.4939,6.5597,3.0373,2.975,2.9074,3.0045,3.1795,3.181,3.2904,3.45,3.3488,3.311,3.3204,3.4226,3.4588,3.4415,3.5017,3.5224,3.5207,3.61,3.6429,3.6351,3.6997,3.7288,3.7134,3.7288,3.7555,3.7881,3.7939,3.8246,3.8552,3.8592,3.8611,3.8782,3.9163,3.9543,3.9827,3.9978,3.9978,3.9978,3.9978,3.9617,3.8915,3.8896,3.8662,3.8203,3.8519,3.9247,4.0728,4.1412,4.2497,4.4287,4.5046,4.5749,4.6521,4.697,4.726,4.734,4.7353,4.7512,4.7721,4.7721,4.7742,4.7917,4.8395,4.8371,4.7679,4.7863,4.8121,4.8121,4.8281,4.8208,4.8208,4.8281,4.8393,4.8344,4.8295,4.8159,4.8173,4.8622,5.0327,5.3836,5.1977,5.1711,5.3983,5.4503,5.5739,5.7609,5.8345,5.8885,5.9742,5.8765,5.8041,5.874,5.917,5.9828,6.0675,6.1044,6.1269,6.1725,6.1718,6.1539,6.1644,6.1808,6.1853,6.1956,6.1825,6.1962,6.2205,6.2437,6.2198,6.2191,6.2678,6.3327,6.3317,6.4519,6.5138,3.2008,3.1782,3.0655,3.0688,3.1516,3.1532,3.209,3.2777,3.0562,0.0,0.0,3.2208,3.2677,3.1966,3.4784,3.61,3.6178,3.6919,3.6937,3.6334,3.6489,3.6161,3.5537,3.6178,3.6567,3.6644,3.7323,3.7845,3.817,3.8188,3.8323,3.8687,3.8763,3.884,3.8916,3.9372,3.9543,3.9543,3.9543,3.96,3.9769,3.9825,3.9407,3.8589,3.9831,4.0469,4.0522,4.2001,4.2859,4.2804,4.3592,4.3834,4.3273,4.4041,4.4106,4.333,4.3444,4.4086,4.5276,4.5325,4.6138,4.7999,4.8228,4.725,4.4847,4.6557,4.7719,4.7694,4.8058,4.8184,4.8208,4.8184,4.8208,4.8208,4.8208,4.7891,4.7441,4.8708,4.9823,5.0749,5.2087,5.3633,5.4311,5.5137,5.6507,5.7249,5.6734,5.6792,5.7669,5.7579,5.7228,5.7535,5.8417,5.965,6.0089,6.0197,6.0883,6.1674,6.1139,6.0579,6.0603,6.0816,6.0501,5.9833,5.963,5.9822,5.9813,5.9933,5.9754,5.9784,5.9957,6.016,6.0501,6.2264,6.3954,2.815,2.8082,2.712,2.7377,0.0,2.827,2.9459,3.1363,3.0172,2.9644,2.9749,3.1064,3.1356,3.0901,3.2631,3.3616,3.396,3.4793,3.4839,3.4517,3.571,3.5849,3.5034,3.6299,3.6937,3.6937,3.7288,3.7614,3.7768,3.7768,3.7921,3.8075,3.8305,3.8199,3.7873,3.8655,3.9087,3.9087,3.9087,3.9091,3.9072,3.9054,3.8879,3.8463,3.9173,0.0,0.0,0.0,0.0,0.0,0.0,0.0,0.0,0.0,0.0,3.9713,3.8848,3.8786,3.9524,3.9624,4.0353,4.1971,4.3106,4.2953,4.122,4.3251,4.4877,4.5411,4.5603,4.5941,4.6453,4.6526,4.6526,4.6551,4.6526,4.6404,4.6148,4.6858,4.7743,4.8427,4.9487,5.0615,5.1346,5.2014,5.2771,5.3856,5.4167,5.4782,5.5842,5.5199,5.42,5.3914,5.5451,5.7286,5.8506,5.9042,5.9412,6.0112,5.9899,5.9566,5.964,5.9766,5.969,5.9093,5.8965,5.9096,5.9096,5.9096,5.9096,5.9147,5.9487,5.9283,5.684,5.8653,6.0967,2.4985,2.4911,2.439,2.4827,2.5818,2.4802,2.6189,2.9194,2.9179,2.9268,2.9505,2.9775,2.9672,2.9389,3.0032,3.0701,3.1301,3.2142,3.2475,3.2371,3.4496,3.5098,3.4523,3.5928,3.6763,3.7058,3.7229,3.7376,3.7501,3.7501,3.7501,3.7519,3.7863,3.7691,3.7078,0.0,0.0,0.0,3.8537,3.8602,3.8344,3.8232,3.8147,3.8011,3.7819,0.0,3.7017,3.7382,3.7809,3.8305,3.9017,0.0,0.0,0.0,0.0,0.0,0.0,0.0,0.0,0.0,0.0,0.0,3.6842,3.7852,3.7962,4.0032,4.1774,4.2571,4.309,4.3577,4.426,4.4284,4.4382,4.4577,4.4601,4.4698,4.4893,4.4918,4.5308,4.6502,4.6706,4.7119,4.8224,4.8545,4.9521,5.1043,5.1757,5.2781,5.3785,5.2184,5.0922,5.0868,5.2787,5.4879,5.727,5.7801,5.8117,5.8571,5.8664,5.8506,5.8657,5.8737,5.8678,5.8229,5.8349,5.8289,5.8289,5.814,5.7721,5.798,5.8524,5.8032,5.4564,5.6197,5.8293,2.8806,2.8746,2.8002,2.8205,2.8627,2.3956,2.2881,2.4271,2.4271,2.4848,2.5823,2.7271,2.6766,2.5353,2.8286,2.9884,3.0396,3.1114,3.161,3.1764,3.2137,3.2244,3.2127,3.3021,3.4158,3.5526,3.6146,3.6842,3.7501,3.7501,3.7501,3.7501,3.7596,3.7542,3.7417,3.6957,3.6671,3.6671,3.8017,3.8879,3.9298,3.8883,3.8254,3.76,3.6858,3.6214,3.5876,3.6082,3.6082,3.5701,3.6496,3.7107,3.7234,3.5912,3.4278,0.0,2.9434,0.0,0.0,0.0,0.0,0.0,0.0,0.0,0.0,3.8735,4.0145,4.029,4.2127,4.3048,4.2243,4.217,4.256,4.3463,4.3504,4.3894,4.4772,4.4893,4.4991,4.5161,4.636,4.7307,4.7713,4.9771,5.1193,5.1384,5.0957,5.0367,4.9716,4.9553,4.9989,5.1896,5.318,5.4627,5.6304,5.7018,5.7603,5.8547,5.803,5.7422,5.7441,5.7411,5.7112,5.6095,5.5856,5.5813,5.5706,5.4885,5.4213,5.4442,5.4337,5.4372,5.5112,5.7422,5.9373,2.5153,2.5126,2.4786,2.6268,2.8679,2.5714,2.4821,2.5177,2.4549,2.4562,2.516,2.6539,2.6581,2.5904,2.7965,2.8873,2.8882,2.9162,2.9357,2.9329,2.9689,2.9614,2.9178,3.0601,3.2173,3.3675,3.4302,3.5084,3.6161,3.6236,3.6236,3.6254,3.6254,3.5338,3.3557,3.3164,3.3508,3.4524,3.5624,3.686,3.8325,3.773,3.7422,3.7491,3.7111,3.6611,3.5909,3.6024,3.6133,3.6132,3.6562,3.6476,3.5794,3.4218,3.1776,0.0,0.0,0.0,0.0,0.0,0.0,0.0,0.0,0.0,0.0,0.0,3.7113,3.7862,4.1198,4.2219,3.9337,4.073,4.1462,4.0754,4.0657,4.1072,4.2194,4.2996,4.3394,4.3394,4.4697,4.591,4.6549,4.7659,4.8697,4.961,4.9,4.8503,4.8765,4.7893,4.8155,5.0761,5.2871,5.4371,5.4369,5.5233,5.6112,5.6735,5.6436,5.6143,5.6256,5.6256,5.6123,5.5692,5.4985,5.4563,5.4967,5.3988,5.3255,5.3555,5.3507,5.4002,5.5598,5.8009,5.9761,2.2539,2.2694,2.1495,2.3034,2.6283,2.5589,2.5408,2.5518,2.462,2.4197,2.415,2.5405,2.5633,2.5156,2.5837,2.6195,2.6226,2.6396,2.6735,2.7307,2.7903,2.7949,2.774,2.928,3.0842,3.2262,3.2352,3.3035,3.4332,3.4086,3.391,3.4019,3.3606,3.2092,2.9464,2.9817,3.0924,3.2789,3.3897,3.5333,3.7034,3.6391,3.6412,3.7066,3.6877,3.6511,3.5885,3.5867,3.6034,3.641,3.5969,3.5265,3.4329,3.2038,0.0,0.0,0.0,0.0,0.0,0.0,0.0,0.0,0.0,2.4824,2.5231,0.0,3.277,0.0,3.8956,4.0624,3.7996,3.919,0.0,0.0,3.7143,3.707,3.8509,3.984,4.0856,4.1325,4.2763,4.4108,4.5147,4.5627,4.6575,4.8244,4.805,4.7895,4.8454,4.7829,4.8158,4.9868,5.2559,5.4056,5.2835,5.3527,5.4562,5.4702,5.4749,5.4812,5.509,5.4849,5.482,5.529,5.4438,5.4101,5.4886,5.375,5.3036,5.342,5.3956,5.4554,5.5518,5.7589,5.9235,2.5404,2.5984,2.1269,1.98,2.0653,2.0855,2.1344,2.2021,2.1877,2.1555,2.1281,2.289,2.2344,2.0246,1.9885,0.0,2.1555,2.2365,2.4246,2.6907,2.7332,2.8178,2.9351,2.9437,3.042,3.1855,3.0877,3.0983,3.2052,3.0822,3.0359,3.0669,2.9174,2.7744,2.6715,2.8202,3.009,3.216,3.4019,3.5363,3.5851,3.5512,3.5474,3.5908,3.5102,3.4805,3.5033,3.5099,3.5146,3.5079,3.3216,3.2203,3.2166,0.0,0.0,0.0,0.0,0.0,0.0,0.0,0.0,0.0,0.0,0.0,0.0,0.0,0.0,2.982,3.426,0.0,3.9754,3.7387,0.0,0.0,0.0,3.1851,3.3959,3.5422,3.701,3.8932,0.0,0.0,4.3413,4.5101,4.712,4.9501,4.9798,4.9019,4.711,5.0248,5.21,4.9703,5.2597,5.4161,5.2071,5.2564,5.3357,5.3402,5.3432,5.3539,5.3719,5.2905,5.2573,5.3775,5.3451,5.3389,5.486,5.3515,5.2184,5.244,5.3957,5.4935,5.4353,5.6231,5.8154,2.1534,2.1712,1.9384,1.9026,1.985,1.9505,1.995,2.0971,2.0612,2.0196,1.9921,2.0864,2.0291,1.8459,1.7912,0.0,0.0,0.0,2.1965,2.4599,2.3786,2.44,2.6084,2.5673,2.6283,2.7722,2.7524,2.7999,2.9042,2.97,2.7714,2.3283,0.0,2.1322,2.1575,2.2801,2.4773,2.7481,2.9504,3.1238,3.2645,3.3203,3.3897,3.4893,3.4824,3.4853,3.5004,3.5203,3.4542,3.2845,3.1657,2.9622,0.0,0.0,0.0,0.0,0.0,0.0,0.0,0.0,0.0,0.0,0.0,1.9178,1.8411,0.0,0.0,0.0,2.5634,2.7274,3.0658,3.2312,0.0,0.0,0.0,0.0,0.0,0.0,0.0,3.4968,3.8537,4.1826,4.4204,4.5772,4.696,4.7935,4.7634,4.7252,4.7355,0.0,5.0114,5.1074,5.1883,5.2383,5.249,5.2206,5.2041,5.2203,5.2365,5.254,5.287,5.2475,5.228,5.2798,5.2246,5.1812,5.29,5.2927,5.3101,5.4921,5.5379,5.5601,5.5934,5.6972,5.7881,1.7147,0.0,0.0,0.0,0.0,1.7342,1.7788,1.8818,1.8345,1.789,1.75,1.8337,0.0,0.0,0.0,0.0,0.0,0.0,1.9654,2.1702,2.1786,2.2493,2.3986,2.3355,2.3692,2.4852,2.452,2.4749,2.5638,2.6292,2.3275,1.701,0.0,0.0,0.0,0.0,2.1118,2.3829,2.6425,2.8467,3.0022,3.0913,3.2041,3.3418,3.4304,3.4919,3.5117,3.4606,3.3346,3.1176,2.9065,0.0,0.0,0.0,0.0,0.0,0.0,0.0,0.0,0.0,0.0,0.0,0.0,0.0,0.0,0.0,0.0,0.0,0.0,0.0,2.3922,2.7691,2.882,0.0,0.0,0.0,0.0,0.0,0.0,0.0,0.0,0.0,4.2587,4.4695,4.6365,0.0,0.0,4.7667,4.8248,4.8389,4.904,5.0867,5.0912,0.0,5.1152,5.0655,5.0276,5.0475,5.0673,5.0923,5.1335,5.0812,5.0646,5.1719,5.0949,5.0042,4.98,5.0345,5.1415,5.2905,5.2915,5.289,5.4233,5.479,5.508,0.0,0.0,0.0,0.0,0.0,0.0,0.0,0.0,1.4583,1.4089,0.0,1.4999,0.0,0.0,0.0,0.0,1.2278,1.5165,0.0,0.0,2.203,2.3853,2.4009,2.3835,2.4061,2.4334,2.2164,2.1347,2.1551,1.9293,0.0,0.0,0.0,0.0,0.0,0.0,2.0566,2.2453,2.6272,2.8344,2.8467,2.8846,2.9746,3.1255,3.3333,3.4749,3.5397,3.2859,3.1156,3.0445,2.4899,0.0,0.0,0.0,0.0,0.0,0.0,0.0,0.0,0.0,0.0,0.0,0.0,0.0,0.0,0.0,0.0,0.0,0.0,0.0,0.0,2.4323,0.0,0.0,0.0,0.0,0.0,0.0,0.0,0.0,0.0,0.0,3.7088,4.1203,4.5281,4.8101,0.0,0.0,0.0,0.0,5.0419,4.8414,4.9844,5.0102,4.693,4.7403,4.8164,4.8133,0.0,0.0,4.8806,4.7023,4.6539,4.9461,4.9574,4.8391,4.5235,4.5499,4.5696,4.4689,4.5101,4.5856,4.7357,4.8033,4.8829,0.0,0.0,0.0,0.0,0.0,0.0,0.0,0.0,0.0,1.1936,1.1512,1.1772,0.0,0.0,0.0,0.0,0.0,0.0,0.0,0.0,1.7723,1.9162,2.088,2.0104,1.9757,0.0,1.8628,1.7182,0.0,0.0,0.0,0.0,0.0,0.0,0.0,0.0,1.8449,2.0403,2.3687,2.5943,2.7,2.805,2.9491,3.1442,3.3217,3.3642,3.2556,3.0201,2.7458,0.0,0.0,0.0,0.0,0.0,0.0,0.0,0.0,0.0,0.0,0.0,0.0,0.0,0.0,0.0,0.0,0.0,0.0,0.0,0.0,0.0,0.0,0.0,2.287,0.0,0.0,0.0,0.0,0.0,0.0,0.0,0.0,0.0,3.3092,3.8374,4.3454,4.7101,4.8599,4.9759,5.0934,0.0,0.0,0.0,0.0,0.0,0.0,0.0,4.8294,4.5328,4.5067,4.4959,4.4245,4.3498,4.3658,4.5687,0.0,0.0,4.3194,4.3276,4.3236,4.1845,4.1938,4.2398,4.2998,4.321,4.3919,0.0,0.0,0.0,0.0,0.0,0.0,0.0,0.0,0.0,0.9019,0.8733,0.0,0.0,0.0,0.0,0.0,0.0,0.0,0.0,0.0,0.0,0.0,1.7178,1.6552,0.0,0.0,0.0,0.0,0.0,0.0,0.0,0.0,0.0,0.0,0.0,0.0,1.6942,1.8809,2.205,2.4263,2.5461,2.6507,2.7965,2.9973,3.1782,3.1791,2.9938,0.0,0.0,0.0,0.0,0.0,0.0,0.0,0.0,0.0,0.0,0.0,0.0,0.0,0.0,0.0,0.0,0.0,0.0,0.0,0.0,0.0,0.0,0.0,0.0,0.0,2.0325,0.0,0.0,0.0,0.0,0.0,0.0,0.0,0.0,0.0,0.0,0.0,4.0384,4.4203,4.6406,4.8494,5.0549,5.1896,5.252,0.0,0.0,0.0,0.0,0.0,0.0,0.0,0.0,0.0,0.0,0.0,0.0,0.0,0.0,4.0477,3.9457,3.9082,3.8545,3.7207,0.0,0.0,0.0,0.0,0.0,0.0,0.0,0.0,0.0,0.0,0.0,0.0,0.0,0.0,0.0,0.4889,0.0,0.0,0.4513,0.0,0.0,0.0,0.0,0.0,0.0,0.0,0.0,0.0,0.0,0.0,0.0,0.0,0.0,0.0,0.0,0.0,0.0,0.0,0.0,0.0,0.0,1.633,1.789,2.1525,2.356,2.3918,2.4348,2.5404,2.6859,2.8906,2.9376,2.792,0.0,0.0,0.0,0.0,0.0,0.0,0.0,0.0,0.0,0.0,0.0,0.0,0.0,0.0,0.0,0.0,0.0,0.0,0.0,0.0,0.0,0.0,0.0,0.0,0.0,0.0,1.7294,1.9667,2.0075,0.0,0.0,0.0,0.0,0.0,0.0,0.0,0.0,0.0,3.9601,4.4426,4.7859,4.8621,5.083,5.1304,4.9076,5.0944,5.0981,4.6105,4.4831,4.3768,0.0,0.0,0.0,0.0,0.0,0.0,0.0,0.0,0.0,0.0,0.0,0.0,0.0,0.0,0.0,0.0,0.0,0.0,0.0,0.0,0.0,0.0,0.0,0.0,0.0,0.0,0.0,0.0,0.0,0.0,0.0,0.0,0.0,0.0,0.0,0.0,0.0,0.0,0.0,0.0,0.0,0.0,0.0,0.0,0.0,0.0,0.0,0.0,0.0,0.0,0.0,0.0,0.0,0.0,1.5956,1.7626,2.1366,2.356,2.3918,2.5048,2.6648,2.8629,2.8677,2.8374,0.0,0.0,0.0,0.0,0.0,0.0,0.0,0.0,0.0,0.0,0.0,0.0,0.0,0.0,0.0,0.0,0.0,0.0,0.0,0.0,0.0,0.0,0.0,0.0,0.0,0.0,0.0,0.0,2.1226,2.1524,1.9473,0.0,0.0,0.0,0.0,0.0,0.0,0.0,0.0,0.0,0.0,4.2685,4.6254,4.5519,4.545,4.7767,5.1673,5.2192,4.5628,4.4389,4.2924,3.9324,0.0,0.0,0.0,0.0,0.0,0.0,0.0,0.0,0.0,0.0,0.0,0.0,0.0,0.0,0.0,0.0,0.0,0.0,0.0,0.0,0.0,0.0,0.0,0.0,0.0,0.0,0.0,0.0,0.0,0.0,0.0,0.0,0.0,0.0,0.0,0.0,0.0,0.0,0.0,0.0,0.0,0.0,0.0,0.0,0.0,0.0,0.0,0.0,0.0,0.0,0.0,0.0,0.0,1.5289,1.7,2.1032,2.3259,2.369,2.4763,2.6013,2.7321,2.7269,2.645,0.0,0.0,0.0,0.0,0.0,0.0,0.0,0.0,0.0,0.0,0.0,0.0,0.0,0.0,0.0,0.0,0.0,0.0,0.0,0.0,0.0,0.0,0.0,0.0,0.0,0.0,0.0,0.0,1.9602,2.1095,2.2164,0.0,0.0,0.0,0.0,0.0,0.0,0.0,0.0,0.0,0.0,3.9422,4.293,4.177,0.0,0.0,4.8158,4.8683,4.412,4.375,4.2615,3.8651,3.6935,0.0,0.0,0.0,0.0,0.0,0.0,0.0,0.0,0.0,0.0,0.0,0.0,0.0,0.0,0.0,0.0,0.0,0.0,0.0,0.0,0.0,0.0,0.0,0.0,0.0,0.0,0.0,0.0,0.0,0.0,0.0,0.0,0.0,0.0,0.0,0.0,0.0,0.0,0.0,0.0,0.0,0.0,0.0,0.0,0.0,0.0,0.0,0.0,0.0,0.0,0.0,0.0,1.4427,1.6175,2.0485,2.29,2.3259,2.3703,2.3905,2.4036,2.5009,2.4017,0.0,0.0,0.0,0.0,0.0,0.0,0.0,0.0,0.0,0.0,0.0,0.0,0.0,0.0,0.0,0.0,0.0,0.0,0.0,0.0,0.0,0.0,0.0,0.0,0.0,0.0,0.0,0.0,0.0,0.0,0.0,0.0,0.0,0.0,0.0,0.0,0.0,0.0,0.0,0.0,0.0,3.7584,3.9267,3.9279,3.9615,0.0,4.1603,4.1852,4.1687,4.2493,4.2186,3.919,0.0,0.0,0.0,0.0,0.0,0.0,0.0,0.0,0.0,0.0,0.0,0.0,0.0,0.0,0.0,0.0,0.0,0.0,0.0,0.0,0.0,0.0,0.0,0.0,0.0,0.0,0.0,0.0,0.0,0.0,0.0,0.0,0.0,0.0,0.0,0.0,0.0,0.0,0.0,0.0,0.0,0.0,0.0,0.0,0.0,0.0,0.0,0.0,0.0,0.0,0.0,0.0,0.0,0.0,1.5739,2.0015,2.2467,2.29,2.3259,2.412,2.5405,2.3594,0.0,0.0,0.0,0.0,0.0,0.0,0.0,0.0,0.0,0.0,0.0,0.0,0.0,0.0,0.0,0.0,0.0,0.0,0.0,0.0,0.0,0.0,0.0,0.0,0.0,0.0,0.0,1.2698,0.0,0.0,0.0,0.0,0.0,0.0,0.0,0.0,0.0,0.0,0.0,0.0,0.0,0.0,3.4248,3.7083,3.7481,3.7995,0.0,0.0,3.7214,3.8311,3.791,3.6929,0.0,0.0,0.0,0.0,0.0,0.0,0.0,0.0,0.0,0.0,0.0,0.0,0.0,0.0,0.0,0.0,0.0,0.0,0.0,0.0,0.0,0.0,0.0,0.0,0.0,0.0,0.0,0.0,0.0,0.0,0.0,0.0,0.0,0.0,0.0,0.0,0.0,0.0,0.0,0.0,0.0,0.0,0.0,0.0,0.0,0.0,0.0,0.0,0.0,0.0,0.0,0.0,0.0,0.0,1.3014,1.5027,1.9043,2.1578,2.2443,2.2828,2.3606,2.4879,2.2463,2.1313,0.0,0.0,0.0,0.0,0.0,0.0,0.0,0.0,0.0,0.0,0.0,0.0,0.0,0.0,0.0,0.0,0.0,0.0,0.0,0.0,0.0,0.0,0.0,0.0,0.0,0.0,0.0,0.0,0.0,0.0,0.0,0.0,0.0,0.0,0.0,0.0,0.0,0.0,0.0,0.0,0.0,0.0,3.6295,3.6301,0.0,0.0,0.0,3.5549,3.7134,0.0,0.0,0.0,0.0,0.0,0.0,0.0,0.0,0.0,0.0,0.0,0.0,0.0,0.0,0.0,0.0,0.0,0.0,0.0,0.0,0.0,0.0,0.0,0.0,0.0,0.0,0.0,0.0,0.0,0.0,0.0,0.0,0.0,0.0,0.0,0.0,0.0,0.0,0.0,0.0,0.0,0.0,0.0,0.0,0.0,0.0,0.0,0.0,0.0,0.0,0.0,0.0,0.0,0.0,0.0,0.0,0.0,1.4217,1.7843,2.0497,2.2046,2.2527,2.29,2.3222,2.1685,2.0515,0.0,0.0,0.0,0.0,0.0,0.0,0.0,0.0,0.0,0.0,0.0,0.0,0.0,0.0,0.0,0.0,0.0,0.0,0.0,0.0,0.0,0.0,0.0,0.0,0.0,0.0,0.0,0.0,0.0,0.0,0.0,0.0,0.0,0.0,0.0,0.0,0.0,0.0,0.0,0.0,0.0,3.3462,3.6134,3.5422,3.4179,0.0,0.0,3.5558,3.7026,3.8388,0.0,0.0,0.0,0.0,0.0,0.0,0.0,0.0,0.0,0.0,0.0,0.0,0.0,0.0,0.0,0.0,0.0,0.0,0.0,0.0,0.0,0.0,0.0,0.0,0.0,0.0,0.0,0.0,0.0,0.0,0.0,0.0,0.0,0.0,0.0,0.0,0.0,0.0,0.0,0.0,0.0,0.0,0.0,0.0,0.0,0.0,0.0,0.0,0.0,0.0,0.0,0.0,0.0,0.0,0.0,0.0,1.4189,1.7597,2.0152,2.1612,2.2395,2.2755,2.2875,2.1807,2.0805,0.0,0.0,0.0,0.0,0.0,0.0,0.0,0.0,0.0,0.0,0.0,0.0,0.0,0.0,0.0,0.0,0.0,0.0,0.0,0.0,0.0,0.0,0.0,0.0,0.0,0.0,0.0,0.0,0.0,0.0,0.0,0.0,0.0,0.0,0.0,0.0,0.0,0.0,0.0,0.0,0.0,3.31,3.4797,3.4885,0.0,0.0,0.0,0.0,3.5708,3.511,0.0,0.0,0.0,0.0,0.0,0.0,0.0,0.0,0.0,0.0,0.0,0.0,0.0,0.0,0.0,0.0,0.0,0.0,0.0,0.0,0.0,0.0,0.0,0.0,0.0,0.0,0.0,0.0,0.0,0.0,0.0,0.0,0.0,0.0,0.0,0.0,0.0,0.0,0.0,0.0,0.0,0.0,0.0,0.0,0.0,0.0,0.0,0.0,0.0,0.0,0.0,0.0,0.0,0.0,0.0,0.0,1.415,1.6838,1.9319,2.1745,2.225,2.2488,2.2643,2.1848,2.0683,0.0,0.0,0.0,0.0,0.0,0.0,0.0,0.0,0.0,0.0,0.0,0.0,0.0,0.0,0.0,0.0,0.0,0.0,0.0,0.0,0.0,0.0,0.0,0.0,0.0,0.0,0.0,0.0,0.0,0.0,0.0,0.0,0.0,0.0,0.0,0.0,0.0,0.0,0.0,0.0,2.9427,3.1228,3.3456,0.0,0.0,0.0,0.0,0.0,0.0,3.3982,3.3222,0.0,0.0,0.0,0.0,0.0,0.0,0.0,0.0,0.0,0.0,0.0,0.0,0.0,0.0,0.0,0.0,0.0,0.0,0.0,0.0,0.0,0.0,0.0,0.0,0.0,0.0,0.0,0.0,0.0,0.0,0.0,0.0,0.0,0.0,0.0,0.0,0.0,0.0,0.0,0.0,0.0,0.0,0.0,0.0,0.0,0.0,0.0,0.0,0.0,0.0,0.0,0.0,0.0,0.0,0.0,1.3818,1.5815,1.8457,2.1722,2.2094,2.2353,2.2508,2.1773,2.0326,1.8029,0.0,0.0,0.0,0.0,0.0,0.0,0.0,0.0,0.0,0.0,0.0,0.0,0.0,0.0,0.0,0.0,0.0,0.0,0.0,0.0,0.0,0.0,0.0,0.0,0.0,0.0,0.0,0.0,0.0,0.0,0.0,0.0,0.0,0.0,0.0,0.0,0.0,0.0,0.0,2.7599,2.9126,0.0,0.0,0.0,0.0,0.0,0.0,0.0,0.0,3.2596,0.0,0.0,0.0,0.0,0.0,0.0,0.0,0.0,0.0,0.0,0.0,0.0,0.0,0.0,0.0,0.0,0.0,0.0,0.0,0.0,0.0,0.0,0.0,0.0,0.0,0.0,0.0,0.0,0.0,0.0,0.0,0.0,0.0,0.0,0.0,0.0,0.0,0.0,0.0,0.0,0.0,0.0,0.0,0.0,0.0,0.0,0.0,0.0,0.0,0.0,0.0,0.0,0.0,0.0,0.0,0.0,1.5101,1.7745,2.0409,2.1945,2.258,2.252,2.1773,1.9914,1.676,0.0,0.0,0.0,0.0,0.0,0.0,0.0,0.0,0.0,0.0,0.0,0.0,0.0,0.0,0.0,0.0,0.0,0.0,0.0,0.0,0.0,0.0,0.0,0.0,0.0,0.0,0.0,0.0,0.0,0.0,0.0,0.0,0.0,0.0,0.0,0.0,0.0,0.0,2.1276,2.5379,0.0,0.0,0.0,0.0,0.0,0.0,0.0,0.0,3.0852,0.0,0.0,0.0,0.0,0.0,0.0,0.0,0.0,0.0,0.0,0.0,0.0,0.0,0.0,0.0,0.0,0.0,0.0,0.0,0.0,0.0,0.0,0.0,0.0,0.0,0.0,0.0,0.0,0.0,0.0,0.0,0.0,0.0,0.0,0.0,0.0,0.0,0.0,0.0,0.0,0.0,0.0,0.0,0.0,0.0,0.0,0.0,0.0,0.0,0.0,0.0,0.0,0.0,0.0,0.0,0.0,0.0,0.0,1.7272,2.0047,2.1303,2.193,2.1887,2.0763,1.8784,0.0,0.0,0.0,0.0,0.0,0.0,0.0,0.0,0.0,0.0,0.0,0.0,0.0,0.0,0.0,0.0,0.0,0.0,0.0,0.0,0.0,0.0,0.0,0.0,0.0,0.0,0.0,0.0,0.0,0.0,0.0,0.0,0.0,0.0,0.0,0.0,0.0,0.0,0.0,0.0,0.0,0.0,0.0,0.0,0.0,0.0,0.0,0.0,0.0,0.0,0.0,0.0,0.0,0.0,0.0,0.0,0.0,0.0,0.0,0.0,0.0,0.0,0.0,0.0,0.0,0.0,0.0,0.0,0.0,0.0,0.0,0.0,0.0,0.0,0.0,0.0,0.0,0.0,0.0,0.0,0.0,0.0,0.0,0.0,0.0,0.0,0.0,0.0,0.0,0.0,0.0,0.0,0.0,0.0,0.0,0.0,0.0,0.0,0.0,0.0,0.0,0.0,0.0,0.0,0.0,0.0,0.0,0.0,1.6721,1.9374,2.0626,2.1235,2.1205,1.9325,1.7357,0.0,0.0,0.0,0.0,0.0,0.0,0.0,0.0,0.0,0.0,0.0,0.0,0.0,0.0,0.0,0.0,0.0,0.0,0.0,0.0,0.0,0.0,0.0,0.0,0.0,0.0,0.0,0.0,0.0,0.0,0.0,0.0,0.0,0.0,0.0,0.0,0.0,0.0,0.0,0.0,0.0,0.0,0.0,0.0,0.0,0.0,0.0,0.0,2.9786,0.0,0.0,0.0,0.0,0.0,0.0,0.0,0.0,0.0,0.0,0.0,0.0,0.0,0.0,0.0,0.0,0.0,0.0,0.0,0.0,0.0,0.0,0.0,0.0,0.0,0.0,0.0,0.0,0.0,0.0,0.0,0.0,0.0,0.0,0.0,0.0,0.0,0.0,0.0,0.0,0.0,0.0,0.0,0.0,0.0,0.0,0.0,0.0,0.0,0.0,0.0,0.0,0.0,0.0,0.0,0.0,0.0,0.0,0.0,1.5589,1.7557,2.0162,2.1242,2.0643,1.7596,1.5503,0.0,0.0,0.0,0.0,0.0,0.0,0.0,0.0,0.0,0.0,0.0,0.0,0.0,0.0,0.0,0.0,0.0,0.0,0.0,0.0,0.0,0.0,0.0,0.0,0.0,0.0,0.0,0.0,0.0,0.0,0.0,0.0,0.0,0.0,0.0,0.0,0.0,0.0,0.0,0.0,0.0,0.0,0.0,0.0,0.0,0.0,0.0,0.0,0.0,0.0,0.0,0.0,0.0,0.0,0.0,0.0,0.0,0.0,0.0,0.0,0.0,0.0,0.0,0.0,0.0,0.0,0.0,0.0,0.0,0.0,0.0,0.0,0.0,0.0,0.0,0.0,0.0,0.0,0.0,0.0,0.0,0.0,0.0,0.0,0.0,0.0,0.0,0.0,0.0,0.0,0.0,0.0,0.0,0.0,0.0,0.0,0.0,0.0,0.0,0.0,0.0,0.0,0.0,0.0,0.0,0.0,0.0,0.0,1.4466,1.6839,1.8556,1.9213,1.8804,1.6602,1.5133,0.0,0.0,0.0,0.0,0.0,0.0,0.0,0.0,0.0,0.0,0.0,0.0,0.0,0.0,0.0,0.0,0.0,0.0,0.0,0.0,0.0,0.0,0.0,0.0,0.0,0.0,0.0,0.0,0.0,0.0,0.0,0.0,0.0,0.0,0.0,0.0,0.0,0.0,0.0,0.0,0.0,0.0,0.0,0.0,0.0,0.0,0.0,0.0,0.0,0.0,0.0,0.0,0.0,0.0,0.0,0.0,0.0,0.0,0.0,0.0,0.0,0.0,0.0,0.0,0.0,0.0,0.0,0.0,0.0,0.0,0.0,0.0,0.0,0.0,0.0,0.0,0.0,0.0,0.0,0.0,0.0,0.0,0.0,0.0,0.0,0.0,0.0,0.0,0.0,0.0,0.0,0.0,0.0,0.0,0.0,0.0,0.0,0.0,0.0,0.0,0.0,0.0,0.0,0.0,0.0,0.0,0.0,0.0,0.0,1.5742,1.6369,1.6699,1.6672,1.5486,1.4473,0.0,0.0,0.0,0.0,0.0,0.0,0.0,0.0,0.0,0.0,0.0,0.0,0.0,0.0,0.0,0.0,0.0,0.0,0.0,0.0,0.0,0.0,0.0,0.0,0.0,0.0,0.0,0.0,0.0,0.0,0.0,0.0,0.0,0.0,0.0,0.0,0.0,0.0,0.0,0.0,0.0,0.0,0.0,0.0,0.0,0.0,0.0,0.0,0.0,0.0,0.0,0.0,0.0,0.0,0.0,0.0,0.0,0.0,0.0,0.0,0.0,0.0,0.0,0.0,0.0,0.0,0.0,0.0,0.0,0.0,0.0,0.0,0.0,0.0,0.0,0.0,0.0,0.0,0.0,0.0,0.0,0.0,0.0,0.0,0.0,0.0,0.0,0.0,0.0,0.0,0.0,0.0,0.0,0.0,0.0,0.0,0.0,0.0,0.0,0.0,0.0,0.0,0.0,0.0,0.0,0.0,0.0,0.0,0.0,1.4114,1.3722,1.3908,1.4748,1.3841,1.3233,0.0,0.0,0.0,0.0,0.0,0.0,0.0,0.0,0.0,0.0,0.0,0.0,0.0,0.0,0.0,0.0,0.0,0.0,0.0,0.0,0.0,0.0,0.0,0.0,0.0,0.0,0.0,0.0,0.0,0.0,0.0,0.0,0.0,0.0,0.0,0.0,0.0,0.0,0.0,0.0,0.0,0.0,0.0,0.0,0.0,0.0,0.0,0.0,0.0,0.0,0.0,0.0,0.0,0.0,0.0,0.0,0.0,0.0,0.0,0.0,0.0,0.0,0.0,0.0,0.0,0.0,0.0,0.0,0.0,0.0,0.0,0.0,0.0,0.0,0.0,0.0,0.0,0.0,0.0,0.0,0.0,0.0,0.0,0.0,0.0,0.0,0.0,0.0,0.0,0.0,0.0,0.0,0.0,0.0,0.0,0.0,0.0,0.0,0.0,0.0,0.0,0.0,0.0,0.0,0.0,0.0,0.0,0.0,0.0,1.1599,1.1779,1.2551,1.3908,1.3123,1.2814,1.3315,0.0,0.0,0.0,0.0,0.0,0.0,0.0,0.0,0.0,0.0,0.0,0.0,0.0,0.0,0.0,0.0,0.0,0.0,0.0,0.0,0.0,0.0,0.0,0.0,0.0,0.0,0.0,0.0,0.0,0.0,0.0,0.0,0.0,0.0,0.0,0.0,0.0,0.0,0.0,0.0,0.0,0.0,0.0,0.0,0.0,0.0,0.0,0.0,0.0,0.0,0.0,0.0,0.0,0.0,0.0,0.0,0.0,0.0,0.0,0.0,0.0,0.0,0.0,0.0,0.0,0.0,0.0,0.0,0.0,0.0,0.0,0.0,0.0,0.0,0.0,0.0,0.0,0.0,0.0,0.0,0.0,0.0,0.0,0.0,0.0,0.0,0.0,0.0,0.0,0.0,0.0,0.0,0.0,0.0,0.0,0.0,0.0,0.0,0.0,0.0,0.0,0.0,0.0,0.0,0.0,0.0,0.0,0.0,0.9765,1.0476,1.1442,1.2734,1.2424,1.2577,0.0,0.0,0.0,0.0,0.0,0.0,0.0,0.0,0.0,0.0,0.0,0.0,0.0,0.0,0.0,0.0,0.0,0.0,0.0,0.0,0.0,0.0,0.0,0.0,0.0,0.0,0.0,0.0,0.0,0.0,0.0,0.0,0.0,0.0,0.0,0.0,0.0,0.0,0.0,0.0,0.0,0.0,0.0,0.0,0.0,0.0,0.0,0.0,0.0,0.0,0.0,0.0,0.0,0.0,0.0,0.0,0.0,0.0,0.0,0.0,0.0,0.0,0.0,0.0,0.0,0.0,0.0,0.0,0.0,0.0,0.0,0.0,0.0,0.0,0.0,0.0,0.0,0.0,0.0,0.0,0.0,0.0,0.0,0.0,0.0,0.0,0.0,0.0,0.0,0.0,0.0,0.0,0.0,0.0,0.0,0.0,0.0,0.0,0.0,0.0,0.0,0.0,0.0,0.0,0.0,0.0,0.0,0.0,0.6303,0.8658,0.9671,1.0471,1.1095,1.1878,1.2355,0.0,0.0,0.0,0.0,0.0,0.0,0.0,0.0,0.0,0.0,0.0,0.0,0.0,0.0,0.0,0.0,0.0,0.0,0.0,0.0,0.0,0.0,0.0,0.0,0.0,0.0,0.0,0.0,0.0,0.0,0.0,0.0,0.0,0.0,0.0,0.0,0.0,0.0,0.0,0.0,0.0,0.0,0.0,0.0,0.0,0.0,0.0,0.0,0.0,0.0,0.0,0.0,0.0,0.0,0.0,0.0,0.0,0.0,0.0,0.0,0.0,0.0,0.0,0.0,0.0,0.0,0.0,0.0,0.0,0.0,0.0,0.0,0.0,0.0,0.0,0.0,0.0,0.0,0.0,0.0,0.0,0.0,0.0,0.0,0.0,0.0,0.0,0.0,0.0,0.0,0.0,0.0,0.0,0.0,0.0,0.0,0.0,0.0,0.0,0.0,0.0,0.0,0.0,0.0,0.0,0.0,0.0,0.0,0.0,0.6873,0.0,1.0234,1.1288,1.1907,1.2553,0.0,0.0,0.0,0.0,0.0,0.0,0.0,0.0,0.0,0.0,0.0,0.0,0.0,0.0,0.0,0.0,0.0,0.0,0.0,0.0,0.0,0.0,0.0,0.0,0.0,0.0,0.0,0.0,0.0,0.0,0.0,0.0,0.0,0.0,0.0,0.0,0.0,0.0,0.0,0.0,0.0,0.0,0.0,0.0,0.0,0.0,0.0,0.0,0.0,0.0,0.0,0.0,0.0,0.0,0.0,0.0,0.0,0.0,0.0,0.0,0.0,0.0,0.0,0.0,0.0,0.0,0.0,0.0,0.0,0.0,0.0,0.0,0.0,0.0,0.0,0.0,0.0,0.0,0.0,0.0,0.0,0.0,0.0,0.0,0.0,0.0,0.0,0.0,0.0,0.0,0.0,0.0,0.0,0.0,0.0,0.0,0.0,0.0,0.0,0.0,0.0,0.0,0.0,0.0,0.0,0.0,0.0,0.0,0.0,0.6107,0.8012,0.9758,1.1253,1.1915,1.2586,0.0,0.0,0.0,0.0,0.0,0.0,0.0,0.0,0.0,0.0,0.0,0.0,0.0,0.0,0.0,0.0,0.0,0.0,0.0,0.0,0.0,0.0,0.0,0.0,0.0,0.0,0.0,0.0,0.0,0.0,0.0,0.0,0.0,0.0,0.0,0.0,0.0,0.0,0.0,0.0,0.0,0.0,0.0,0.0,0.0,0.0,0.0,0.0,0.0,0.0,0.0,0.0,0.0,0.0,0.0,0.0,0.0,0.0,0.0,0.0,0.0,0.0,0.0,0.0,0.0,0.0,0.0,0.0,0.0,0.0,0.0,0.0,0.0,0.0,0.0,0.0,0.0,0.0,0.0,0.0,0.0,0.0,0.0,0.0,0.0,0.0,0.0,0.0,0.0,0.0,0.0,0.0,0.0,0.0,0.0,0.0,0.0,0.0,0.0,0.0,0.0,0.0,0.0,0.0,0.0,0.0,0.0,0.0,0.0,0.6293,0.7538,0.9097,1.0934,1.1794,1.2573,0.0,0.0,0.0,0.0,0.0,0.0,0.0,0.0,0.0,0.0,0.0,0.0,0.0,0.0,0.0,0.0,0.0,0.0,0.0,0.0,0.0,0.0,0.0,0.0,0.0,0.0,0.0,0.0,0.0,0.0,0.0,0.0,0.0,0.0,0.0,0.0,0.0,0.0,0.0,0.0,0.0,0.0,0.0,0.0,0.0,0.0,0.0,0.0,0.0,0.0,0.0,0.0,0.0,0.0,0.0,0.0,0.0,0.0,0.0,0.0,0.0,0.0,0.0,0.0,0.0,0.0,0.0,0.0,0.0,0.0,0.0,0.0,0.0,0.0,0.0,0.0,0.0,0.0,0.0,0.0,0.0,0.0,0.0,0.0,0.0,0.0,0.0,0.0,0.0,0.0,0.0,0.0,0.0,0.0,0.0,0.0,0.0,0.0,0.0,0.0,0.0,0.0,0.0,0.0,0.0,0.0,0.0,0.0,0.0,0.0,0.8023,0.909,1.0091,1.1508,1.2602,1.3324,0.0,0.0,0.0,0.0,0.0,0.0,0.0,0.0,0.0,0.0,0.0,0.0,0.0,0.0,0.0,0.0,0.0,0.0,0.0,0.0,0.0,0.0,0.0,0.0,0.0,0.0,0.0,0.0,0.0,0.0,0.0,0.0,0.0,0.0,0.0,0.0,0.0,0.0,0.0,0.0,0.0,0.0,0.0,0.0,0.0,0.0,0.0,0.0,0.0,0.0,0.0,0.0,0.0,0.0,0.0,0.0,0.0,0.0,0.0,0.0,0.0,0.0,0.0,0.0,0.0,0.0,0.0,0.0,0.0,0.0,0.0,0.0,0.0,0.0,0.0,0.0,0.0,0.0,0.0,0.0,0.0,0.0,0.0,0.0,0.0,0.0,0.0,0.0,0.0,0.0,0.0,0.0,0.0,0.0,0.0,0.0,0.0,0.0,0.0,0.0,0.0,0.0,0.0,0.0,0.0,0.0,0.0,0.0,0.0,0.0,0.909,0.9783,1.11,1.2259,0.0,0.0,0.0,0.0,0.0,0.0,0.0,0.0,0.0,0.0,0.0,0.0,0.0,0.0,0.0,0.0,0.0,0.0,0.0,0.0,0.0,0.0,0.0,0.0,0.0,0.0,0.0,0.0,0.0,0.0,0.0,0.0,0.0,0.0,0.0,0.0,0.0,0.0,0.0,0.0,0.0,0.0,0.0,0.0,0.0,0.0,0.0,0.0,0.0,0.0,0.0,0.0,0.0,0.0,0.0,0.0,0.0,0.0,0.0,0.0,0.0,0.0,0.0,0.0,0.0,0.0,0.0,0.0,0.0,0.0,0.0,0.0,0.0,0.0,0.0,0.0,0.0,0.0,0.0,0.0,0.0,0.0,0.0,0.0,0.0,0.0,0.0,0.0,0.0,0.0,0.0,0.0,0.0,0.0,0.0,0.0,0.0,0.0,0.0,0.0,0.0,0.0,0.0,0.0,0.0,0.0,0.0,0.0,0.0,0.0,0.0,0.914,0.9882,1.063,0.0,1.3034,0.0,0.0,0.0,0.0,0.0,0.0,0.0,0.0,0.0,0.0,0.0,0.0,0.0,0.0,0.0,0.0,0.0,0.0,0.0,0.0,0.0,0.0,0.0,0.0,0.0,0.0,0.0,0.0,0.0,0.0,0.0,0.0,0.0,0.0,0.0,0.0,0.0,0.0,0.0,0.0,0.0,0.0,0.0,0.0,0.0,0.0,0.0,0.0,0.0,0.0,0.0,0.0,0.0,0.0,0.0,0.0,0.0,0.0,0.0,0.0,0.0,0.0,0.0,0.0,0.0,0.0,0.0,0.0,0.0,0.0,0.0,0.0,0.0,0.0,0.0,0.0,0.0,0.0,0.0,0.0,0.0,0.0,0.0,0.0,0.0,0.0,0.0,0.0,0.0,0.0,0.0,0.0,0.0,0.0,0.0,0.0,0.0,0.0,0.0,0.0,0.0,0.0,0.0,0.0,0.0,0.0,0.0,0.0,0.0,0.0,0.0,0.0,1.0429,1.1312,1.2424,0.0,0.0,0.0,0.0,0.0,0.0,0.0,0.0,0.0,0.0,0.0,0.0,0.0,0.0,0.0,0.0,0.0,0.0,0.0,0.0,0.0,0.0,0.0,0.0,0.0,0.0,0.0,0.0,0.0,0.0,0.0,0.0,0.0,0.0,0.0,0.0,0.0,0.0,0.0,0.0,0.0,0.0,0.0,0.0,0.0,0.0,0.0,0.0,0.0,0.0,0.0,0.0,0.0,0.0,0.0,0.0,0.0,0.0,0.0,0.0,0.0,0.0,0.0,0.0,0.0,0.0,0.0,0.0,0.0,0.0,0.0,0.0,0.0,0.0,0.0,0.0,0.0,0.0,0.0,0.0,0.0,0.0,0.0,0.0,0.0,0.0,0.0,0.0,0.0,0.0,0.0,0.0,0.0,0.0,0.0,0.0,0.0,0.0,0.0,0.0,0.0,0.0,0.0,0.0,0.0,0.0,0.0,0.0,0.0,0.0,0.905,0.9684,1.0565,1.1357,1.2229,0.0,0.0,0.0,0.0,0.0,0.0,0.0,0.0,0.0,0.0,0.0,0.0,0.0,0.0,0.0,0.0,0.0,0.0,0.0,0.0,0.0,0.0,0.0,0.0,0.0,0.0,0.0,0.0,0.0,0.0,0.0,0.0,0.0,0.0,0.0,0.0,0.0,0.0,0.0,0.0,0.0,0.0,0.0,0.0,0.0,0.0,0.0,0.0,0.0,0.0,0.0,0.0,0.0,0.0,0.0,0.0,0.0,0.0,0.0,0.0,0.0,0.0,0.0,0.0,0.0,0.0,0.0,0.0,0.0,0.0,0.0,0.0,0.0,0.0,0.0,0.0,0.0,0.0,0.0,0.0,0.0,0.0,0.0,0.0,0.0,0.0,0.0,0.0,0.0,0.0,0.0,0.0,0.0,0.0,0.0,0.0,0.0,0.0,0.0,0.0,0.0,0.0,0.0,0.0,0.0,0.0,0.0,0.0,0.0,0.0,0.0,0.0,0.0,0.0,1.2274,0.0,0.0,0.0,0.0,0.0,0.0,0.0,0.0,0.0,0.0,0.0,0.0,0.0,0.0,0.0,0.0,0.0,0.0,0.0,0.0,0.0,0.0,0.0,0.0,0.0,0.0,0.0,0.0,0.0,0.0,0.0,0.0,0.0,0.0,0.0,0.0,0.0,0.0,0.0,0.0,0.0,0.0,0.0,0.0,0.0,0.0,0.0,0.0,0.0,0.0,0.0,0.0,0.0,0.0,0.0,0.0,0.0,0.0,0.0,0.0,0.0,0.0,0.0,0.0,0.0,0.0,0.0,0.0,0.0,0.0,0.0,0.0,0.0,0.0,0.0,0.0,0.0,0.0,0.0,0.0,0.0,0.0,0.0,0.0,0.0,0.0,0.0,0.0,0.0,0.0,0.0,0.0,0.0,0.0,0.0,0.0,0.0,0.0,0.0,0.0,0.0,0.0,0.0,0.0,0.0,0.0,0.0,0.0,0.0,0.0,0.0,0.0,0.0,0.0,0.0,0.0,0.0,0.0,0.0,0.0,0.0,0.0,0.0,0.0,0.0,0.0,0.0,0.0,0.0,0.0,0.0,0.0,0.0,0.0,0.0,0.0,0.0,0.0,0.0,0.0,0.0,0.0,0.0,0.0,0.0,0.0,0.0,0.0,0.0,0.0,0.0,0.0,0.0,0.0,0.0,0.0,0.0,0.0,0.0,0.0,0.0,0.0,0.0,0.0,0.0,0.0,0.0,0.0,0.0,0.0,0.0,0.0,0.0,0.0,0.0,0.0,0.0,0.0,0.0,0.0,0.0,0.0,0.0,0.0,0.0,0.0,0.0,0.0,0.0,0.0,0.0,0.0,0.0,0.0,0.0,0.0,0.0,0.0,0.0,0.0,0.0,0.0,0.0,0.0,0.0,0.0,0.0,0.0,0.0,0.0,0.0,0.0,0.0,0.0,0.0,0.0,0.0,0.0,0.0,0.0,0.0,0.0,0.0,0.0,0.0,0.0,0.0,0.0,0.0,0.0,0.0,0.0,0.0,0.0,0.0,0.0,0.0,0.0,0.0,0.0,0.0,0.0,0.0,0.0,0.0,0.0,0.0,0.0,0.0,0.0,0.0,0.0,0.0,0.0,0.0,0.0,0.0,0.0,0.0,0.0,0.0,0.0,0.0,0.0,0.0,0.0,0.0,0.0,0.0,0.0,0.0,0.0,0.0,0.0,0.0,0.0,0.0,0.0,0.0,0.0,0.0,0.0,0.0,0.0,0.0,0.0,0.0,0.0,0.0,0.0,0.0,0.0,0.0,0.0,0.0,0.0,0.0,0.0,0.0,0.0,0.0,0.0,0.0,0.0,0.0,0.0,0.0,0.0,0.0,0.0,0.0,0.0,0.0,0.0,0.0,0.0,0.0,0.0,0.0,0.0,0.0,0.0,0.0,0.0,0.0,0.0,0.0,0.0,0.0,0.0,0.0,0.0,0.0,0.0,0.0,0.0,0.0,0.0,0.0,0.0,0.0,0.0,0.0,0.0,0.0,0.0,0.0,0.0,0.0,0.0,0.0,0.0,0.0,0.0,0.0,0.0,0.0,0.0,0.0,0.0,0.0,0.0,0.0,0.0,0.0,0.0,0.0,0.0,0.0,0.0,0.0,0.0,0.0,0.0,0.0,0.0,0.0,0.0,0.0,0.0,0.0,0.0,0.0,0.0,0.0,0.0,0.0,0.0,0.0,0.0,0.0,0.0,0.0,0.0,0.0,0.0,0.0,0.0,0.0,0.0,0.0,0.0,0.0,0.0,0.0,0.0,0.0,0.0,0.0,0.0,0.0,0.0,0.0,0.0,0.0,0.0,0.0,0.0,0.0,0.0,0.0,0.0,0.0,0.0,0.0,0.0,0.0,0.0,0.0,0.0,0.0,0.0,0.0,0.0,0.0,0.0,0.0,0.0,0.0,0.0,0.0,0.0,0.0,0.0,0.0,0.0,0.0,0.0,0.0,0.0,0.0,0.0,0.0,0.0,0.0,0.0,0.0,0.0,0.0,0.0,0.0,0.0,0.0,0.0,0.0,0.0,0.0,0.0,0.0,0.0,0.0,0.0,0.0,0.0,0.0,0.0,0.0,0.0,0.0,0.0,0.0,0.0,0.0,0.0,0.0,0.0,0.0,0.0,0.0,0.0,0.0,0.0,0.0,0.0,0.0,0.0,0.0,0.0,0.0,0.0,0.0,0.0,0.0,0.0,0.0,0.0,0.0,0.0,0.0,0.0,0.0,0.0,0.0,0.0,0.0,0.0,0.0,0.0,0.0,0.0,0.0,0.0,0.0,0.0,0.0,0.0,0.0,0.0,0.0,0.0,0.0,0.0,0.0,0.0,0.0,0.0,0.0,0.0,0.0,0.0,0.0,0.0,0.0,0.0,0.0,0.0,0.0,0.0,0.0,0.0,0.0,0.0,0.0,0.0,0.0,0.0,0.0,0.0,0.0,0.0,0.0,0.0,0.0,0.0,0.0,0.0,0.0,0.0,0.0,0.0,0.0,0.0,0.0,0.0,0.0,0.0,0.0,0.0,0.0,0.0,0.0,0.0,0.0,0.0,0.0,0.0,0.0,0.0,0.0,0.0,0.0,0.0,0.0,0.0,0.0,0.0,0.0,0.0,0.0,0.0,0.0,0.0,0.0,0.0,0.0,0.0,0.0,0.0,0.0,0.0,0.0,0.0,0.0,0.0,0.0,0.0,0.0,0.0,0.0,0.0,0.0,0.0,0.0,0.0,0.0,0.0,0.0,0.0,0.0,0.0,0.0,0.0,0.0,0.0,0.0,0.0,0.0,0.0,0.0,0.0,0.0,0.0,0.0,0.0,0.0,0.0,0.0,0.0,0.0,0.0,0.0,0.0,0.0,0.0,0.0,0.0,0.0,0.0,0.0,0.0,0.0,0.0,0.0,0.0,0.0,0.0,0.0,0.0,0.0,0.0,0.0,0.0,0.0,0.0,0.0,0.0,0.0,0.0,0.0,0.0,0.0,0.0,0.0,0.0,0.0,0.0,0.0,0.0,0.0,0.0,0.0,0.0,0.0,0.0,0.0,0.0,0.0,0.0,0.0,0.0,0.0,0.0,0.0,0.0,0.0,0.0,0.0,0.0,0.0,0.0,0.0,0.0,0.0,0.0,0.0,0.0,0.0,0.0,0.0,0.0,0.0,0.0,0.0,0.0,0.0,0.0,0.0,0.0,0.0,0.0,0.0,0.0,0.0,0.0,0.0,0.0,0.0,0.0,0.0,0.0,0.0,0.0,0.0,0.0,0.0,0.0,0.0,0.0,0.0,0.0,0.0,0.0,0.0,0.0,0.0,0.0,0.0,0.0,0.0,0.0,0.0,0.0,0.0,0.0,0.0,0.0,0.0,0.0,0.0,0.0,0.0,0.0,0.0,0.0,0.0,0.0,0.0,0.0,0.0,0.0,0.0,0.0,0.0,0.0,0.0,0.0,0.0,0.0,0.0,0.0,0.0,0.0,0.0,0.0,0.0,0.0,0.0,0.0,0.0,0.0,0.0,0.0,0.0,0.0,0.0,0.0,0.0,0.0,0.0,0.0,0.0,0.0,0.0,0.0,0.0,0.0,0.0,0.0,0.0,0.0,0.0,0.0,0.0,0.0,0.0,0.0,0.0,0.0,0.0,0.0,0.0,0.0,0.0,0.0,0.0,0.0,0.0,0.0,0.0,0.0,0.0,0.0,0.0,0.0,0.0,0.0,0.0,0.0,0.0,0.0,0.0,0.0,0.0,0.0,0.0,0.0,0.0,0.0,0.0,0.0,0.0,0.0,0.0,0.0,0.0,0.0,0.0,0.0,0.0,0.0,0.0,0.0,0.0,0.0,0.0,0.0,0.0,0.0,0.0,0.0,0.0,0.0,0.0,0.0,0.0,0.0,0.0,0.0,0.0,0.0,0.0,0.0,0.0,0.0,0.0,0.0,0.0,0.0,0.0,0.0,0.0,0.0,0.0,0.0,0.0,0.0,0.0,0.0,0.0,0.0,0.0,0.0,0.0,0.0,0.0,0.0,0.0,0.0,0.0,0.0,0.0,0.0,0.0,0.0,0.0,0.0,0.0,0.0,0.0,0.0,0.0,0.0,0.0,0.0,0.0,0.0,0.0,0.0,0.0,0.0,0.0,0.0,0.0,0.0,0.0,0.0,0.0,0.0,0.0,0.0,0.0,0.0,0.0,0.0,0.0,0.0,0.0,0.0,0.0,0.0,0.0,0.0,0.0,0.0,0.0,0.0,0.0,0.0,0.0,0.0,0.0,0.0,0.0,0.0,0.0,0.0,0.0,0.0,0.0,0.0,0.0,0.0,0.0,0.0,0.0,0.0,0.0,0.0]}]]]